<?xml version="1.0" encoding="UTF-8" standalone="no" ?>
<gpx xmlns="http://www.topografix.com/GPX/1/1" xmlns:xsi="http://www.w3.org/2001/XMLSchema-instance" xsi:schemaLocation="http://www.topografix.com/GPX/1/1 http://www.topografix.com/GPX/1/1/gpx.xsd" version="1.1" creator="VisuGPX - https://www.visugpx.com">
  <metadata>
    <name>Pic de paloumere depart de galey 09-2019-10-19-150316</name>
    <desc><![CDATA[[b][i][url][img][/img][/url][/i][/b]]]></desc>
  </metadata>
  <trk>
    <name><![CDATA[MA-Rando-2019-10-19-150316]]></name>
    <trkseg>
      <trkpt lat="42.93724" lon="0.91183">
        <ele>891</ele>
        <time>2019-10-19T06:36:43Z</time>
      </trkpt>
      <trkpt lat="42.93733" lon="0.91193">
        <ele>889</ele>
        <time>2019-10-19T06:37:00Z</time>
      </trkpt>
      <trkpt lat="42.93741" lon="0.91201">
        <ele>887</ele>
        <time>2019-10-19T06:37:09Z</time>
      </trkpt>
      <trkpt lat="42.93749" lon="0.91206">
        <ele>887</ele>
        <time>2019-10-19T06:37:18Z</time>
      </trkpt>
      <trkpt lat="42.93758" lon="0.91211">
        <ele>888</ele>
        <time>2019-10-19T06:37:26Z</time>
      </trkpt>
      <trkpt lat="42.93766" lon="0.91215">
        <ele>889</ele>
        <time>2019-10-19T06:37:36Z</time>
      </trkpt>
      <trkpt lat="42.93776" lon="0.91215">
        <ele>889</ele>
        <time>2019-10-19T06:37:46Z</time>
      </trkpt>
      <trkpt lat="42.93786" lon="0.91215">
        <ele>890</ele>
        <time>2019-10-19T06:37:55Z</time>
      </trkpt>
      <trkpt lat="42.93795" lon="0.91212">
        <ele>889</ele>
        <time>2019-10-19T06:38:03Z</time>
      </trkpt>
      <trkpt lat="42.93804" lon="0.91209">
        <ele>889</ele>
        <time>2019-10-19T06:38:13Z</time>
      </trkpt>
      <trkpt lat="42.93813" lon="0.91204">
        <ele>886</ele>
        <time>2019-10-19T06:38:23Z</time>
      </trkpt>
      <trkpt lat="42.93822" lon="0.91205">
        <ele>886</ele>
        <time>2019-10-19T06:38:30Z</time>
      </trkpt>
      <trkpt lat="42.93831" lon="0.91204">
        <ele>891</ele>
        <time>2019-10-19T06:38:45Z</time>
      </trkpt>
      <trkpt lat="42.9384" lon="0.91203">
        <ele>894</ele>
        <time>2019-10-19T06:38:56Z</time>
      </trkpt>
      <trkpt lat="42.93847" lon="0.91196">
        <ele>895</ele>
        <time>2019-10-19T06:39:05Z</time>
      </trkpt>
      <trkpt lat="42.93855" lon="0.91187">
        <ele>896</ele>
        <time>2019-10-19T06:39:18Z</time>
      </trkpt>
      <trkpt lat="42.93858" lon="0.91174">
        <ele>897</ele>
        <time>2019-10-19T06:39:30Z</time>
      </trkpt>
      <trkpt lat="42.93865" lon="0.91166">
        <ele>898</ele>
        <time>2019-10-19T06:39:41Z</time>
      </trkpt>
      <trkpt lat="42.93874" lon="0.91158">
        <ele>900</ele>
        <time>2019-10-19T06:39:54Z</time>
      </trkpt>
      <trkpt lat="42.93881" lon="0.91149">
        <ele>897</ele>
        <time>2019-10-19T06:40:04Z</time>
      </trkpt>
      <trkpt lat="42.93888" lon="0.91141">
        <ele>900</ele>
        <time>2019-10-19T06:40:15Z</time>
      </trkpt>
      <trkpt lat="42.93896" lon="0.91133">
        <ele>903</ele>
        <time>2019-10-19T06:40:28Z</time>
      </trkpt>
      <trkpt lat="42.93905" lon="0.91129">
        <ele>903</ele>
        <time>2019-10-19T06:40:37Z</time>
      </trkpt>
      <trkpt lat="42.93913" lon="0.9112">
        <ele>903</ele>
        <time>2019-10-19T06:40:47Z</time>
      </trkpt>
      <trkpt lat="42.93922" lon="0.91114">
        <ele>911</ele>
        <time>2019-10-19T06:41:03Z</time>
      </trkpt>
      <trkpt lat="42.93928" lon="0.91104">
        <ele>911</ele>
        <time>2019-10-19T06:41:10Z</time>
      </trkpt>
      <trkpt lat="42.93936" lon="0.911">
        <ele>909</ele>
        <time>2019-10-19T06:41:23Z</time>
      </trkpt>
      <trkpt lat="42.93945" lon="0.91097">
        <ele>912</ele>
        <time>2019-10-19T06:41:32Z</time>
      </trkpt>
      <trkpt lat="42.9395" lon="0.91086">
        <ele>914</ele>
        <time>2019-10-19T06:41:40Z</time>
      </trkpt>
      <trkpt lat="42.93958" lon="0.91082">
        <ele>911</ele>
        <time>2019-10-19T06:41:47Z</time>
      </trkpt>
      <trkpt lat="42.93967" lon="0.91077">
        <ele>922</ele>
        <time>2019-10-19T06:42:04Z</time>
      </trkpt>
      <trkpt lat="42.93977" lon="0.91078">
        <ele>922</ele>
        <time>2019-10-19T06:42:19Z</time>
      </trkpt>
      <trkpt lat="42.93985" lon="0.91072">
        <ele>921</ele>
        <time>2019-10-19T06:42:30Z</time>
      </trkpt>
      <trkpt lat="42.93993" lon="0.91064">
        <ele>926</ele>
        <time>2019-10-19T06:42:43Z</time>
      </trkpt>
      <trkpt lat="42.93996" lon="0.91051">
        <ele>931</ele>
        <time>2019-10-19T06:42:52Z</time>
      </trkpt>
      <trkpt lat="42.94004" lon="0.91042">
        <ele>939</ele>
        <time>2019-10-19T06:43:11Z</time>
      </trkpt>
      <trkpt lat="42.94011" lon="0.91034">
        <ele>942</ele>
        <time>2019-10-19T06:43:20Z</time>
      </trkpt>
      <trkpt lat="42.94021" lon="0.91032">
        <ele>944</ele>
        <time>2019-10-19T06:43:30Z</time>
      </trkpt>
      <trkpt lat="42.94028" lon="0.91023">
        <ele>943</ele>
        <time>2019-10-19T06:43:40Z</time>
      </trkpt>
      <trkpt lat="42.94036" lon="0.91016">
        <ele>934</ele>
        <time>2019-10-19T06:43:50Z</time>
      </trkpt>
      <trkpt lat="42.94045" lon="0.91011">
        <ele>932</ele>
        <time>2019-10-19T06:44:00Z</time>
      </trkpt>
      <trkpt lat="42.94054" lon="0.91008">
        <ele>933</ele>
        <time>2019-10-19T06:44:09Z</time>
      </trkpt>
      <trkpt lat="42.9406" lon="0.90996">
        <ele>939</ele>
        <time>2019-10-19T06:44:20Z</time>
      </trkpt>
      <trkpt lat="42.94068" lon="0.9099">
        <ele>937</ele>
        <time>2019-10-19T06:44:29Z</time>
      </trkpt>
      <trkpt lat="42.94077" lon="0.90987">
        <ele>935</ele>
        <time>2019-10-19T06:44:36Z</time>
      </trkpt>
      <trkpt lat="42.94082" lon="0.90976">
        <ele>939</ele>
        <time>2019-10-19T06:44:46Z</time>
      </trkpt>
      <trkpt lat="42.94092" lon="0.90972">
        <ele>940</ele>
        <time>2019-10-19T06:44:56Z</time>
      </trkpt>
      <trkpt lat="42.94099" lon="0.90965">
        <ele>943</ele>
        <time>2019-10-19T06:45:05Z</time>
      </trkpt>
      <trkpt lat="42.94109" lon="0.90962">
        <ele>942</ele>
        <time>2019-10-19T06:45:14Z</time>
      </trkpt>
      <trkpt lat="42.94114" lon="0.90949">
        <ele>944</ele>
        <time>2019-10-19T06:45:22Z</time>
      </trkpt>
      <trkpt lat="42.9412" lon="0.9094">
        <ele>951</ele>
        <time>2019-10-19T06:45:37Z</time>
      </trkpt>
      <trkpt lat="42.94126" lon="0.90931">
        <ele>951</ele>
        <time>2019-10-19T06:45:43Z</time>
      </trkpt>
      <trkpt lat="42.94134" lon="0.90924">
        <ele>952</ele>
        <time>2019-10-19T06:45:56Z</time>
      </trkpt>
      <trkpt lat="42.94142" lon="0.90918">
        <ele>949</ele>
        <time>2019-10-19T06:46:03Z</time>
      </trkpt>
      <trkpt lat="42.94152" lon="0.90915">
        <ele>949</ele>
        <time>2019-10-19T06:46:14Z</time>
      </trkpt>
      <trkpt lat="42.94161" lon="0.90909">
        <ele>949</ele>
        <time>2019-10-19T06:46:22Z</time>
      </trkpt>
      <trkpt lat="42.94167" lon="0.909">
        <ele>949</ele>
        <time>2019-10-19T06:46:30Z</time>
      </trkpt>
      <trkpt lat="42.94172" lon="0.90888">
        <ele>951</ele>
        <time>2019-10-19T06:46:44Z</time>
      </trkpt>
      <trkpt lat="42.94182" lon="0.90886">
        <ele>951</ele>
        <time>2019-10-19T06:46:51Z</time>
      </trkpt>
      <trkpt lat="42.94185" lon="0.90873">
        <ele>959</ele>
        <time>2019-10-19T06:46:58Z</time>
      </trkpt>
      <trkpt lat="42.94194" lon="0.90869">
        <ele>956</ele>
        <time>2019-10-19T06:47:05Z</time>
      </trkpt>
      <trkpt lat="42.94199" lon="0.90859">
        <ele>958</ele>
        <time>2019-10-19T06:47:13Z</time>
      </trkpt>
      <trkpt lat="42.94206" lon="0.90851">
        <ele>962</ele>
        <time>2019-10-19T06:47:21Z</time>
      </trkpt>
      <trkpt lat="42.94215" lon="0.90846">
        <ele>962</ele>
        <time>2019-10-19T06:47:32Z</time>
      </trkpt>
      <trkpt lat="42.94223" lon="0.90838">
        <ele>960</ele>
        <time>2019-10-19T06:47:42Z</time>
      </trkpt>
      <trkpt lat="42.9423" lon="0.9083">
        <ele>956</ele>
        <time>2019-10-19T06:47:49Z</time>
      </trkpt>
      <trkpt lat="42.94238" lon="0.90823">
        <ele>956</ele>
        <time>2019-10-19T06:47:59Z</time>
      </trkpt>
      <trkpt lat="42.94246" lon="0.90815">
        <ele>960</ele>
        <time>2019-10-19T06:48:06Z</time>
      </trkpt>
      <trkpt lat="42.94254" lon="0.90809">
        <ele>961</ele>
        <time>2019-10-19T06:48:17Z</time>
      </trkpt>
      <trkpt lat="42.94257" lon="0.90796">
        <ele>962</ele>
        <time>2019-10-19T06:48:25Z</time>
      </trkpt>
      <trkpt lat="42.94266" lon="0.90792">
        <ele>965</ele>
        <time>2019-10-19T06:48:35Z</time>
      </trkpt>
      <trkpt lat="42.9427" lon="0.90779">
        <ele>968</ele>
        <time>2019-10-19T06:48:47Z</time>
      </trkpt>
      <trkpt lat="42.94279" lon="0.90772">
        <ele>968</ele>
        <time>2019-10-19T06:48:57Z</time>
      </trkpt>
      <trkpt lat="42.94287" lon="0.90765">
        <ele>969</ele>
        <time>2019-10-19T06:49:07Z</time>
      </trkpt>
      <trkpt lat="42.94294" lon="0.90755">
        <ele>972</ele>
        <time>2019-10-19T06:49:16Z</time>
      </trkpt>
      <trkpt lat="42.943" lon="0.90746">
        <ele>975</ele>
        <time>2019-10-19T06:49:27Z</time>
      </trkpt>
      <trkpt lat="42.943" lon="0.90731">
        <ele>969</ele>
        <time>2019-10-19T06:49:38Z</time>
      </trkpt>
      <trkpt lat="42.943" lon="0.90718">
        <ele>973</ele>
        <time>2019-10-19T06:49:45Z</time>
      </trkpt>
      <trkpt lat="42.94302" lon="0.90706">
        <ele>976</ele>
        <time>2019-10-19T06:49:56Z</time>
      </trkpt>
      <trkpt lat="42.94302" lon="0.90693">
        <ele>979</ele>
        <time>2019-10-19T06:50:05Z</time>
      </trkpt>
      <trkpt lat="42.94305" lon="0.9068">
        <ele>981</ele>
        <time>2019-10-19T06:50:20Z</time>
      </trkpt>
      <trkpt lat="42.94305" lon="0.90667">
        <ele>979</ele>
        <time>2019-10-19T06:50:29Z</time>
      </trkpt>
      <trkpt lat="42.94309" lon="0.90653">
        <ele>976</ele>
        <time>2019-10-19T06:50:37Z</time>
      </trkpt>
      <trkpt lat="42.94311" lon="0.90637">
        <ele>977</ele>
        <time>2019-10-19T06:50:50Z</time>
      </trkpt>
      <trkpt lat="42.94313" lon="0.90623">
        <ele>983</ele>
        <time>2019-10-19T06:51:05Z</time>
      </trkpt>
      <trkpt lat="42.94312" lon="0.9061">
        <ele>985</ele>
        <time>2019-10-19T06:51:12Z</time>
      </trkpt>
      <trkpt lat="42.94316" lon="0.90598">
        <ele>990</ele>
        <time>2019-10-19T06:51:30Z</time>
      </trkpt>
      <trkpt lat="42.94315" lon="0.90585">
        <ele>991</ele>
        <time>2019-10-19T06:51:38Z</time>
      </trkpt>
      <trkpt lat="42.94319" lon="0.9057">
        <ele>993</ele>
        <time>2019-10-19T06:51:54Z</time>
      </trkpt>
      <trkpt lat="42.9432" lon="0.90558">
        <ele>993</ele>
        <time>2019-10-19T06:52:03Z</time>
      </trkpt>
      <trkpt lat="42.94319" lon="0.90542">
        <ele>993</ele>
        <time>2019-10-19T06:52:08Z</time>
      </trkpt>
      <trkpt lat="42.94315" lon="0.90527">
        <ele>997</ele>
        <time>2019-10-19T06:52:30Z</time>
      </trkpt>
      <trkpt lat="42.94314" lon="0.90514">
        <ele>994</ele>
        <time>2019-10-19T06:52:36Z</time>
      </trkpt>
      <trkpt lat="42.94308" lon="0.90502">
        <ele>996</ele>
        <time>2019-10-19T06:52:51Z</time>
      </trkpt>
      <trkpt lat="42.94309" lon="0.90489">
        <ele>999</ele>
        <time>2019-10-19T06:53:02Z</time>
      </trkpt>
      <trkpt lat="42.94308" lon="0.90477">
        <ele>998</ele>
        <time>2019-10-19T06:53:12Z</time>
      </trkpt>
      <trkpt lat="42.94305" lon="0.90459">
        <ele>1001</ele>
        <time>2019-10-19T06:53:23Z</time>
      </trkpt>
      <trkpt lat="42.94308" lon="0.90448">
        <ele>1006</ele>
        <time>2019-10-19T06:53:31Z</time>
      </trkpt>
      <trkpt lat="42.94308" lon="0.90434">
        <ele>1008</ele>
        <time>2019-10-19T06:53:41Z</time>
      </trkpt>
      <trkpt lat="42.94309" lon="0.90422">
        <ele>1006</ele>
        <time>2019-10-19T06:53:50Z</time>
      </trkpt>
      <trkpt lat="42.94311" lon="0.90409">
        <ele>1012</ele>
        <time>2019-10-19T06:54:01Z</time>
      </trkpt>
      <trkpt lat="42.94311" lon="0.90396">
        <ele>1013</ele>
        <time>2019-10-19T06:54:11Z</time>
      </trkpt>
      <trkpt lat="42.94316" lon="0.90383">
        <ele>1010</ele>
        <time>2019-10-19T06:54:17Z</time>
      </trkpt>
      <trkpt lat="42.9432" lon="0.90372">
        <ele>1007</ele>
        <time>2019-10-19T06:54:25Z</time>
      </trkpt>
      <trkpt lat="42.94322" lon="0.90359">
        <ele>1011</ele>
        <time>2019-10-19T06:54:36Z</time>
      </trkpt>
      <trkpt lat="42.94332" lon="0.90352">
        <ele>1006</ele>
        <time>2019-10-19T06:54:42Z</time>
      </trkpt>
      <trkpt lat="42.94337" lon="0.90341">
        <ele>1006</ele>
        <time>2019-10-19T06:54:50Z</time>
      </trkpt>
      <trkpt lat="42.94343" lon="0.90331">
        <ele>1010</ele>
        <time>2019-10-19T06:55:02Z</time>
      </trkpt>
      <trkpt lat="42.94351" lon="0.90325">
        <ele>1011</ele>
        <time>2019-10-19T06:55:13Z</time>
      </trkpt>
      <trkpt lat="42.94357" lon="0.90314">
        <ele>1012</ele>
        <time>2019-10-19T06:55:21Z</time>
      </trkpt>
      <trkpt lat="42.94366" lon="0.90315">
        <ele>1017</ele>
        <time>2019-10-19T06:55:32Z</time>
      </trkpt>
      <trkpt lat="42.94372" lon="0.90304">
        <ele>1019</ele>
        <time>2019-10-19T06:55:41Z</time>
      </trkpt>
      <trkpt lat="42.94378" lon="0.90294">
        <ele>1023</ele>
        <time>2019-10-19T06:55:51Z</time>
      </trkpt>
      <trkpt lat="42.94388" lon="0.90295">
        <ele>1025</ele>
        <time>2019-10-19T06:56:02Z</time>
      </trkpt>
      <trkpt lat="42.94397" lon="0.90298">
        <ele>1027</ele>
        <time>2019-10-19T06:56:12Z</time>
      </trkpt>
      <trkpt lat="42.94406" lon="0.90294">
        <ele>1028</ele>
        <time>2019-10-19T06:56:18Z</time>
      </trkpt>
      <trkpt lat="42.94414" lon="0.90286">
        <ele>1027</ele>
        <time>2019-10-19T06:58:08Z</time>
      </trkpt>
      <trkpt lat="42.94424" lon="0.90284">
        <ele>1031</ele>
        <time>2019-10-19T06:58:16Z</time>
      </trkpt>
      <trkpt lat="42.94435" lon="0.90291">
        <ele>1031</ele>
        <time>2019-10-19T06:58:25Z</time>
      </trkpt>
      <trkpt lat="42.94439" lon="0.90279">
        <ele>1032</ele>
        <time>2019-10-19T06:58:33Z</time>
      </trkpt>
      <trkpt lat="42.94443" lon="0.90268">
        <ele>1032</ele>
        <time>2019-10-19T06:58:37Z</time>
      </trkpt>
      <trkpt lat="42.94453" lon="0.90272">
        <ele>1030</ele>
        <time>2019-10-19T06:58:45Z</time>
      </trkpt>
      <trkpt lat="42.94461" lon="0.90264">
        <ele>1028</ele>
        <time>2019-10-19T06:58:57Z</time>
      </trkpt>
      <trkpt lat="42.94467" lon="0.90254">
        <ele>1032</ele>
        <time>2019-10-19T06:59:06Z</time>
      </trkpt>
      <trkpt lat="42.94477" lon="0.90252">
        <ele>1032</ele>
        <time>2019-10-19T06:59:14Z</time>
      </trkpt>
      <trkpt lat="42.94483" lon="0.90243">
        <ele>1037</ele>
        <time>2019-10-19T06:59:26Z</time>
      </trkpt>
      <trkpt lat="42.94493" lon="0.90245">
        <ele>1037</ele>
        <time>2019-10-19T06:59:33Z</time>
      </trkpt>
      <trkpt lat="42.94503" lon="0.90242">
        <ele>1035</ele>
        <time>2019-10-19T06:59:42Z</time>
      </trkpt>
      <trkpt lat="42.94511" lon="0.90238">
        <ele>1036</ele>
        <time>2019-10-19T06:59:52Z</time>
      </trkpt>
      <trkpt lat="42.94519" lon="0.90232">
        <ele>1038</ele>
        <time>2019-10-19T07:00:03Z</time>
      </trkpt>
      <trkpt lat="42.94529" lon="0.90232">
        <ele>1037</ele>
        <time>2019-10-19T07:00:12Z</time>
      </trkpt>
      <trkpt lat="42.94539" lon="0.90226">
        <ele>1034</ele>
        <time>2019-10-19T07:00:21Z</time>
      </trkpt>
      <trkpt lat="42.9455" lon="0.90223">
        <ele>1037</ele>
        <time>2019-10-19T07:00:32Z</time>
      </trkpt>
      <trkpt lat="42.94559" lon="0.90217">
        <ele>1042</ele>
        <time>2019-10-19T07:00:42Z</time>
      </trkpt>
      <trkpt lat="42.94566" lon="0.90209">
        <ele>1040</ele>
        <time>2019-10-19T07:00:52Z</time>
      </trkpt>
      <trkpt lat="42.94574" lon="0.90202">
        <ele>1037</ele>
        <time>2019-10-19T07:00:59Z</time>
      </trkpt>
      <trkpt lat="42.94582" lon="0.90194">
        <ele>1038</ele>
        <time>2019-10-19T07:01:05Z</time>
      </trkpt>
      <trkpt lat="42.94592" lon="0.90188">
        <ele>1040</ele>
        <time>2019-10-19T07:01:18Z</time>
      </trkpt>
      <trkpt lat="42.94599" lon="0.9018">
        <ele>1039</ele>
        <time>2019-10-19T07:01:26Z</time>
      </trkpt>
      <trkpt lat="42.9461" lon="0.90174">
        <ele>1043</ele>
        <time>2019-10-19T07:01:37Z</time>
      </trkpt>
      <trkpt lat="42.94619" lon="0.90169">
        <ele>1044</ele>
        <time>2019-10-19T07:01:46Z</time>
      </trkpt>
      <trkpt lat="42.94627" lon="0.90162">
        <ele>1044</ele>
        <time>2019-10-19T07:01:56Z</time>
      </trkpt>
      <trkpt lat="42.94638" lon="0.90158">
        <ele>1043</ele>
        <time>2019-10-19T07:02:06Z</time>
      </trkpt>
      <trkpt lat="42.94647" lon="0.90152">
        <ele>1044</ele>
        <time>2019-10-19T07:02:15Z</time>
      </trkpt>
      <trkpt lat="42.94658" lon="0.90148">
        <ele>1045</ele>
        <time>2019-10-19T07:02:25Z</time>
      </trkpt>
      <trkpt lat="42.94665" lon="0.90141">
        <ele>1046</ele>
        <time>2019-10-19T07:02:34Z</time>
      </trkpt>
      <trkpt lat="42.94673" lon="0.90134">
        <ele>1048</ele>
        <time>2019-10-19T07:02:43Z</time>
      </trkpt>
      <trkpt lat="42.94678" lon="0.90124">
        <ele>1048</ele>
        <time>2019-10-19T07:02:52Z</time>
      </trkpt>
      <trkpt lat="42.94687" lon="0.90117">
        <ele>1048</ele>
        <time>2019-10-19T07:03:14Z</time>
      </trkpt>
      <trkpt lat="42.94695" lon="0.9011">
        <ele>1049</ele>
        <time>2019-10-19T07:03:19Z</time>
      </trkpt>
      <trkpt lat="42.94704" lon="0.90104">
        <ele>1052</ele>
        <time>2019-10-19T07:03:25Z</time>
      </trkpt>
      <trkpt lat="42.94713" lon="0.901">
        <ele>1052</ele>
        <time>2019-10-19T07:03:32Z</time>
      </trkpt>
      <trkpt lat="42.94723" lon="0.90098">
        <ele>1053</ele>
        <time>2019-10-19T07:03:41Z</time>
      </trkpt>
      <trkpt lat="42.94734" lon="0.90097">
        <ele>1052</ele>
        <time>2019-10-19T07:03:50Z</time>
      </trkpt>
      <trkpt lat="42.94742" lon="0.90092">
        <ele>1054</ele>
        <time>2019-10-19T07:03:59Z</time>
      </trkpt>
      <trkpt lat="42.94751" lon="0.90093">
        <ele>1057</ele>
        <time>2019-10-19T07:04:08Z</time>
      </trkpt>
      <trkpt lat="42.9476" lon="0.90097">
        <ele>1058</ele>
        <time>2019-10-19T07:04:19Z</time>
      </trkpt>
      <trkpt lat="42.9477" lon="0.90095">
        <ele>1059</ele>
        <time>2019-10-19T07:04:29Z</time>
      </trkpt>
      <trkpt lat="42.94779" lon="0.90097">
        <ele>1055</ele>
        <time>2019-10-19T07:04:37Z</time>
      </trkpt>
      <trkpt lat="42.94788" lon="0.90099">
        <ele>1056</ele>
        <time>2019-10-19T07:04:46Z</time>
      </trkpt>
      <trkpt lat="42.94798" lon="0.90101">
        <ele>1056</ele>
        <time>2019-10-19T07:04:53Z</time>
      </trkpt>
      <trkpt lat="42.94807" lon="0.90105">
        <ele>1059</ele>
        <time>2019-10-19T07:05:03Z</time>
      </trkpt>
      <trkpt lat="42.94811" lon="0.90121">
        <ele>1058</ele>
        <time>2019-10-19T07:05:11Z</time>
      </trkpt>
      <trkpt lat="42.9482" lon="0.90114">
        <ele>1058</ele>
        <time>2019-10-19T07:05:16Z</time>
      </trkpt>
      <trkpt lat="42.94829" lon="0.90109">
        <ele>1056</ele>
        <time>2019-10-19T07:05:28Z</time>
      </trkpt>
      <trkpt lat="42.94839" lon="0.90106">
        <ele>1060</ele>
        <time>2019-10-19T07:05:40Z</time>
      </trkpt>
      <trkpt lat="42.94848" lon="0.90105">
        <ele>1066</ele>
        <time>2019-10-19T07:05:52Z</time>
      </trkpt>
      <trkpt lat="42.94857" lon="0.90106">
        <ele>1067</ele>
        <time>2019-10-19T07:06:01Z</time>
      </trkpt>
      <trkpt lat="42.94866" lon="0.90103">
        <ele>1069</ele>
        <time>2019-10-19T07:06:10Z</time>
      </trkpt>
      <trkpt lat="42.94876" lon="0.901">
        <ele>1072</ele>
        <time>2019-10-19T07:06:22Z</time>
      </trkpt>
      <trkpt lat="42.94885" lon="0.90108">
        <ele>1073</ele>
        <time>2019-10-19T07:06:34Z</time>
      </trkpt>
      <trkpt lat="42.94894" lon="0.90113">
        <ele>1077</ele>
        <time>2019-10-19T07:06:47Z</time>
      </trkpt>
      <trkpt lat="42.94903" lon="0.90113">
        <ele>1081</ele>
        <time>2019-10-19T07:06:58Z</time>
      </trkpt>
      <trkpt lat="42.94912" lon="0.90115">
        <ele>1082</ele>
        <time>2019-10-19T07:07:08Z</time>
      </trkpt>
      <trkpt lat="42.94921" lon="0.90114">
        <ele>1088</ele>
        <time>2019-10-19T07:07:19Z</time>
      </trkpt>
      <trkpt lat="42.94931" lon="0.90115">
        <ele>1089</ele>
        <time>2019-10-19T07:07:31Z</time>
      </trkpt>
      <trkpt lat="42.9494" lon="0.90121">
        <ele>1085</ele>
        <time>2019-10-19T07:07:37Z</time>
      </trkpt>
      <trkpt lat="42.94947" lon="0.90128">
        <ele>1087</ele>
        <time>2019-10-19T07:07:52Z</time>
      </trkpt>
      <trkpt lat="42.94956" lon="0.90134">
        <ele>1084</ele>
        <time>2019-10-19T07:07:59Z</time>
      </trkpt>
      <trkpt lat="42.94965" lon="0.90138">
        <ele>1086</ele>
        <time>2019-10-19T07:08:11Z</time>
      </trkpt>
      <trkpt lat="42.94973" lon="0.90146">
        <ele>1082</ele>
        <time>2019-10-19T07:08:22Z</time>
      </trkpt>
      <trkpt lat="42.94981" lon="0.90153">
        <ele>1086</ele>
        <time>2019-10-19T07:08:34Z</time>
      </trkpt>
      <trkpt lat="42.94988" lon="0.90162">
        <ele>1088</ele>
        <time>2019-10-19T07:08:44Z</time>
      </trkpt>
      <trkpt lat="42.94995" lon="0.90173">
        <ele>1091</ele>
        <time>2019-10-19T07:08:53Z</time>
      </trkpt>
      <trkpt lat="42.95003" lon="0.9018">
        <ele>1093</ele>
        <time>2019-10-19T07:09:05Z</time>
      </trkpt>
      <trkpt lat="42.95011" lon="0.9019">
        <ele>1094</ele>
        <time>2019-10-19T07:09:17Z</time>
      </trkpt>
      <trkpt lat="42.9502" lon="0.90194">
        <ele>1097</ele>
        <time>2019-10-19T07:09:30Z</time>
      </trkpt>
      <trkpt lat="42.95025" lon="0.90206">
        <ele>1098</ele>
        <time>2019-10-19T07:09:38Z</time>
      </trkpt>
      <trkpt lat="42.95029" lon="0.9022">
        <ele>1098</ele>
        <time>2019-10-19T07:09:45Z</time>
      </trkpt>
      <trkpt lat="42.95035" lon="0.9023">
        <ele>1103</ele>
        <time>2019-10-19T07:09:54Z</time>
      </trkpt>
      <trkpt lat="42.9504" lon="0.90242">
        <ele>1107</ele>
        <time>2019-10-19T07:10:04Z</time>
      </trkpt>
      <trkpt lat="42.95048" lon="0.90251">
        <ele>1109</ele>
        <time>2019-10-19T07:10:14Z</time>
      </trkpt>
      <trkpt lat="42.95054" lon="0.90261">
        <ele>1111</ele>
        <time>2019-10-19T07:10:23Z</time>
      </trkpt>
      <trkpt lat="42.9506" lon="0.9027">
        <ele>1108</ele>
        <time>2019-10-19T07:10:30Z</time>
      </trkpt>
      <trkpt lat="42.95062" lon="0.90283">
        <ele>1110</ele>
        <time>2019-10-19T07:10:42Z</time>
      </trkpt>
      <trkpt lat="42.95067" lon="0.90296">
        <ele>1111</ele>
        <time>2019-10-19T07:10:52Z</time>
      </trkpt>
      <trkpt lat="42.95075" lon="0.90303">
        <ele>1112</ele>
        <time>2019-10-19T07:11:00Z</time>
      </trkpt>
      <trkpt lat="42.9508" lon="0.90315">
        <ele>1114</ele>
        <time>2019-10-19T07:11:09Z</time>
      </trkpt>
      <trkpt lat="42.95078" lon="0.90328">
        <ele>1114</ele>
        <time>2019-10-19T07:11:17Z</time>
      </trkpt>
      <trkpt lat="42.95087" lon="0.90332">
        <ele>1117</ele>
        <time>2019-10-19T07:11:24Z</time>
      </trkpt>
      <trkpt lat="42.95095" lon="0.90344">
        <ele>1119</ele>
        <time>2019-10-19T07:11:33Z</time>
      </trkpt>
      <trkpt lat="42.95098" lon="0.90355">
        <ele>1120</ele>
        <time>2019-10-19T07:11:42Z</time>
      </trkpt>
      <trkpt lat="42.95107" lon="0.9036">
        <ele>1118</ele>
        <time>2019-10-19T07:11:47Z</time>
      </trkpt>
      <trkpt lat="42.95109" lon="0.90372">
        <ele>1121</ele>
        <time>2019-10-19T07:11:55Z</time>
      </trkpt>
      <trkpt lat="42.95118" lon="0.9038">
        <ele>1121</ele>
        <time>2019-10-19T07:12:02Z</time>
      </trkpt>
      <trkpt lat="42.95124" lon="0.9039">
        <ele>1120</ele>
        <time>2019-10-19T07:12:09Z</time>
      </trkpt>
      <trkpt lat="42.95127" lon="0.90403">
        <ele>1118</ele>
        <time>2019-10-19T07:12:20Z</time>
      </trkpt>
      <trkpt lat="42.95125" lon="0.90416">
        <ele>1119</ele>
        <time>2019-10-19T07:12:27Z</time>
      </trkpt>
      <trkpt lat="42.95127" lon="0.90428">
        <ele>1118</ele>
        <time>2019-10-19T07:12:33Z</time>
      </trkpt>
      <trkpt lat="42.95136" lon="0.90437">
        <ele>1116</ele>
        <time>2019-10-19T07:12:40Z</time>
      </trkpt>
      <trkpt lat="42.95144" lon="0.90445">
        <ele>1117</ele>
        <time>2019-10-19T07:12:47Z</time>
      </trkpt>
      <trkpt lat="42.95149" lon="0.90455">
        <ele>1116</ele>
        <time>2019-10-19T07:12:53Z</time>
      </trkpt>
      <trkpt lat="42.95156" lon="0.90463">
        <ele>1115</ele>
        <time>2019-10-19T07:13:00Z</time>
      </trkpt>
      <trkpt lat="42.95165" lon="0.90469">
        <ele>1115</ele>
        <time>2019-10-19T07:13:08Z</time>
      </trkpt>
      <trkpt lat="42.95172" lon="0.90476">
        <ele>1116</ele>
        <time>2019-10-19T07:13:15Z</time>
      </trkpt>
      <trkpt lat="42.95182" lon="0.90482">
        <ele>1119</ele>
        <time>2019-10-19T07:13:19Z</time>
      </trkpt>
      <trkpt lat="42.95188" lon="0.90493">
        <ele>1118</ele>
        <time>2019-10-19T07:13:32Z</time>
      </trkpt>
      <trkpt lat="42.95195" lon="0.90503">
        <ele>1121</ele>
        <time>2019-10-19T07:13:37Z</time>
      </trkpt>
      <trkpt lat="42.95204" lon="0.90507">
        <ele>1118</ele>
        <time>2019-10-19T07:13:45Z</time>
      </trkpt>
      <trkpt lat="42.9521" lon="0.90518">
        <ele>1120</ele>
        <time>2019-10-19T07:13:53Z</time>
      </trkpt>
      <trkpt lat="42.95217" lon="0.90526">
        <ele>1120</ele>
        <time>2019-10-19T07:14:01Z</time>
      </trkpt>
      <trkpt lat="42.95227" lon="0.9053">
        <ele>1117</ele>
        <time>2019-10-19T07:14:08Z</time>
      </trkpt>
      <trkpt lat="42.95235" lon="0.90536">
        <ele>1117</ele>
        <time>2019-10-19T07:14:18Z</time>
      </trkpt>
      <trkpt lat="42.95244" lon="0.90531">
        <ele>1123</ele>
        <time>2019-10-19T07:14:32Z</time>
      </trkpt>
      <trkpt lat="42.95254" lon="0.90531">
        <ele>1119</ele>
        <time>2019-10-19T07:14:38Z</time>
      </trkpt>
      <trkpt lat="42.95263" lon="0.90524">
        <ele>1126</ele>
        <time>2019-10-19T07:14:50Z</time>
      </trkpt>
      <trkpt lat="42.95271" lon="0.90528">
        <ele>1130</ele>
        <time>2019-10-19T07:14:58Z</time>
      </trkpt>
      <trkpt lat="42.95275" lon="0.90515">
        <ele>1132</ele>
        <time>2019-10-19T07:15:08Z</time>
      </trkpt>
      <trkpt lat="42.95285" lon="0.90509">
        <ele>1132</ele>
        <time>2019-10-19T07:15:17Z</time>
      </trkpt>
      <trkpt lat="42.95292" lon="0.90501">
        <ele>1128</ele>
        <time>2019-10-19T07:15:25Z</time>
      </trkpt>
      <trkpt lat="42.95297" lon="0.9049">
        <ele>1137</ele>
        <time>2019-10-19T07:15:38Z</time>
      </trkpt>
      <trkpt lat="42.953" lon="0.90477">
        <ele>1142</ele>
        <time>2019-10-19T07:15:51Z</time>
      </trkpt>
      <trkpt lat="42.95304" lon="0.90466">
        <ele>1147</ele>
        <time>2019-10-19T07:16:00Z</time>
      </trkpt>
      <trkpt lat="42.95313" lon="0.90459">
        <ele>1152</ele>
        <time>2019-10-19T07:16:10Z</time>
      </trkpt>
      <trkpt lat="42.95322" lon="0.90449">
        <ele>1153</ele>
        <time>2019-10-19T07:16:16Z</time>
      </trkpt>
      <trkpt lat="42.95322" lon="0.90435">
        <ele>1156</ele>
        <time>2019-10-19T07:16:31Z</time>
      </trkpt>
      <trkpt lat="42.95327" lon="0.90426">
        <ele>1153</ele>
        <time>2019-10-19T07:16:37Z</time>
      </trkpt>
      <trkpt lat="42.95329" lon="0.90413">
        <ele>1148</ele>
        <time>2019-10-19T07:16:44Z</time>
      </trkpt>
      <trkpt lat="42.95331" lon="0.90399">
        <ele>1150</ele>
        <time>2019-10-19T07:16:52Z</time>
      </trkpt>
      <trkpt lat="42.95335" lon="0.90388">
        <ele>1153</ele>
        <time>2019-10-19T07:17:04Z</time>
      </trkpt>
      <trkpt lat="42.95336" lon="0.90375">
        <ele>1154</ele>
        <time>2019-10-19T07:17:10Z</time>
      </trkpt>
      <trkpt lat="42.95336" lon="0.90361">
        <ele>1153</ele>
        <time>2019-10-19T07:17:20Z</time>
      </trkpt>
      <trkpt lat="42.95338" lon="0.90349">
        <ele>1158</ele>
        <time>2019-10-19T07:17:31Z</time>
      </trkpt>
      <trkpt lat="42.95343" lon="0.90338">
        <ele>1159</ele>
        <time>2019-10-19T07:17:39Z</time>
      </trkpt>
      <trkpt lat="42.95346" lon="0.90326">
        <ele>1162</ele>
        <time>2019-10-19T07:17:55Z</time>
      </trkpt>
      <trkpt lat="42.95345" lon="0.90313">
        <ele>1163</ele>
        <time>2019-10-19T07:18:06Z</time>
      </trkpt>
      <trkpt lat="42.95348" lon="0.903">
        <ele>1164</ele>
        <time>2019-10-19T07:18:12Z</time>
      </trkpt>
      <trkpt lat="42.95348" lon="0.90284">
        <ele>1167</ele>
        <time>2019-10-19T07:18:34Z</time>
      </trkpt>
      <trkpt lat="42.95351" lon="0.90269">
        <ele>1163</ele>
        <time>2019-10-19T07:18:39Z</time>
      </trkpt>
      <trkpt lat="42.95351" lon="0.90256">
        <ele>1162</ele>
        <time>2019-10-19T07:18:45Z</time>
      </trkpt>
      <trkpt lat="42.95347" lon="0.90245">
        <ele>1168</ele>
        <time>2019-10-19T07:18:54Z</time>
      </trkpt>
      <trkpt lat="42.95342" lon="0.90233">
        <ele>1170</ele>
        <time>2019-10-19T07:19:04Z</time>
      </trkpt>
      <trkpt lat="42.95338" lon="0.90221">
        <ele>1174</ele>
        <time>2019-10-19T07:19:14Z</time>
      </trkpt>
      <trkpt lat="42.95331" lon="0.90211">
        <ele>1172</ele>
        <time>2019-10-19T07:19:22Z</time>
      </trkpt>
      <trkpt lat="42.95326" lon="0.902">
        <ele>1168</ele>
        <time>2019-10-19T07:19:30Z</time>
      </trkpt>
      <trkpt lat="42.9532" lon="0.9019">
        <ele>1171</ele>
        <time>2019-10-19T07:19:42Z</time>
      </trkpt>
      <trkpt lat="42.95315" lon="0.90179">
        <ele>1172</ele>
        <time>2019-10-19T07:19:51Z</time>
      </trkpt>
      <trkpt lat="42.95309" lon="0.90169">
        <ele>1175</ele>
        <time>2019-10-19T07:20:02Z</time>
      </trkpt>
      <trkpt lat="42.95307" lon="0.90157">
        <ele>1176</ele>
        <time>2019-10-19T07:20:13Z</time>
      </trkpt>
      <trkpt lat="42.95307" lon="0.90144">
        <ele>1179</ele>
        <time>2019-10-19T07:20:27Z</time>
      </trkpt>
      <trkpt lat="42.9531" lon="0.90132">
        <ele>1183</ele>
        <time>2019-10-19T07:20:40Z</time>
      </trkpt>
      <trkpt lat="42.9531" lon="0.90118">
        <ele>1185</ele>
        <time>2019-10-19T07:20:50Z</time>
      </trkpt>
      <trkpt lat="42.95308" lon="0.90105">
        <ele>1185</ele>
        <time>2019-10-19T07:21:00Z</time>
      </trkpt>
      <trkpt lat="42.95311" lon="0.90092">
        <ele>1182</ele>
        <time>2019-10-19T07:21:08Z</time>
      </trkpt>
      <trkpt lat="42.95312" lon="0.9008">
        <ele>1187</ele>
        <time>2019-10-19T07:21:26Z</time>
      </trkpt>
      <trkpt lat="42.95314" lon="0.90066">
        <ele>1188</ele>
        <time>2019-10-19T07:21:39Z</time>
      </trkpt>
      <trkpt lat="42.95317" lon="0.90054">
        <ele>1185</ele>
        <time>2019-10-19T07:22:43Z</time>
      </trkpt>
      <trkpt lat="42.95318" lon="0.9004">
        <ele>1185</ele>
        <time>2019-10-19T07:22:49Z</time>
      </trkpt>
      <trkpt lat="42.95318" lon="0.90028">
        <ele>1190</ele>
        <time>2019-10-19T07:22:57Z</time>
      </trkpt>
      <trkpt lat="42.95318" lon="0.90014">
        <ele>1194</ele>
        <time>2019-10-19T07:23:07Z</time>
      </trkpt>
      <trkpt lat="42.95316" lon="0.90002">
        <ele>1194</ele>
        <time>2019-10-19T07:23:15Z</time>
      </trkpt>
      <trkpt lat="42.95316" lon="0.89988">
        <ele>1194</ele>
        <time>2019-10-19T07:23:25Z</time>
      </trkpt>
      <trkpt lat="42.95314" lon="0.89975">
        <ele>1193</ele>
        <time>2019-10-19T07:23:32Z</time>
      </trkpt>
      <trkpt lat="42.95312" lon="0.89962">
        <ele>1187</ele>
        <time>2019-10-19T07:23:37Z</time>
      </trkpt>
      <trkpt lat="42.95309" lon="0.8995">
        <ele>1189</ele>
        <time>2019-10-19T07:23:44Z</time>
      </trkpt>
      <trkpt lat="42.95306" lon="0.89938">
        <ele>1190</ele>
        <time>2019-10-19T07:23:52Z</time>
      </trkpt>
      <trkpt lat="42.95301" lon="0.89927">
        <ele>1189</ele>
        <time>2019-10-19T07:24:01Z</time>
      </trkpt>
      <trkpt lat="42.95297" lon="0.89915">
        <ele>1193</ele>
        <time>2019-10-19T07:24:13Z</time>
      </trkpt>
      <trkpt lat="42.95291" lon="0.89905">
        <ele>1193</ele>
        <time>2019-10-19T07:24:24Z</time>
      </trkpt>
      <trkpt lat="42.95285" lon="0.89895">
        <ele>1198</ele>
        <time>2019-10-19T07:24:36Z</time>
      </trkpt>
      <trkpt lat="42.9528" lon="0.89884">
        <ele>1202</ele>
        <time>2019-10-19T07:24:47Z</time>
      </trkpt>
      <trkpt lat="42.95278" lon="0.89869">
        <ele>1202</ele>
        <time>2019-10-19T07:25:08Z</time>
      </trkpt>
      <trkpt lat="42.95277" lon="0.89856">
        <ele>1205</ele>
        <time>2019-10-19T07:25:16Z</time>
      </trkpt>
      <trkpt lat="42.95277" lon="0.89844">
        <ele>1206</ele>
        <time>2019-10-19T07:25:23Z</time>
      </trkpt>
      <trkpt lat="42.95275" lon="0.89831">
        <ele>1210</ele>
        <time>2019-10-19T07:25:32Z</time>
      </trkpt>
      <trkpt lat="42.95276" lon="0.89818">
        <ele>1209</ele>
        <time>2019-10-19T07:25:39Z</time>
      </trkpt>
      <trkpt lat="42.95276" lon="0.89805">
        <ele>1211</ele>
        <time>2019-10-19T07:25:48Z</time>
      </trkpt>
      <trkpt lat="42.95273" lon="0.89792">
        <ele>1213</ele>
        <time>2019-10-19T07:25:59Z</time>
      </trkpt>
      <trkpt lat="42.95274" lon="0.89778">
        <ele>1213</ele>
        <time>2019-10-19T07:26:10Z</time>
      </trkpt>
      <trkpt lat="42.95274" lon="0.89765">
        <ele>1208</ele>
        <time>2019-10-19T07:26:17Z</time>
      </trkpt>
      <trkpt lat="42.95277" lon="0.89753">
        <ele>1211</ele>
        <time>2019-10-19T07:26:27Z</time>
      </trkpt>
      <trkpt lat="42.95279" lon="0.8974">
        <ele>1215</ele>
        <time>2019-10-19T07:26:37Z</time>
      </trkpt>
      <trkpt lat="42.95285" lon="0.89729">
        <ele>1221</ele>
        <time>2019-10-19T07:26:50Z</time>
      </trkpt>
      <trkpt lat="42.95289" lon="0.89718">
        <ele>1223</ele>
        <time>2019-10-19T07:27:03Z</time>
      </trkpt>
      <trkpt lat="42.95293" lon="0.89706">
        <ele>1222</ele>
        <time>2019-10-19T07:27:14Z</time>
      </trkpt>
      <trkpt lat="42.95298" lon="0.89696">
        <ele>1225</ele>
        <time>2019-10-19T07:27:25Z</time>
      </trkpt>
      <trkpt lat="42.95301" lon="0.89684">
        <ele>1226</ele>
        <time>2019-10-19T07:27:34Z</time>
      </trkpt>
      <trkpt lat="42.95298" lon="0.89671">
        <ele>1231</ele>
        <time>2019-10-19T07:27:47Z</time>
      </trkpt>
      <trkpt lat="42.95296" lon="0.89658">
        <ele>1231</ele>
        <time>2019-10-19T07:27:57Z</time>
      </trkpt>
      <trkpt lat="42.95294" lon="0.89646">
        <ele>1230</ele>
        <time>2019-10-19T07:28:07Z</time>
      </trkpt>
      <trkpt lat="42.95292" lon="0.89632">
        <ele>1229</ele>
        <time>2019-10-19T07:28:19Z</time>
      </trkpt>
      <trkpt lat="42.95292" lon="0.89619">
        <ele>1232</ele>
        <time>2019-10-19T07:28:29Z</time>
      </trkpt>
      <trkpt lat="42.9529" lon="0.89606">
        <ele>1236</ele>
        <time>2019-10-19T07:28:42Z</time>
      </trkpt>
      <trkpt lat="42.95287" lon="0.89593">
        <ele>1241</ele>
        <time>2019-10-19T07:28:52Z</time>
      </trkpt>
      <trkpt lat="42.95291" lon="0.8958">
        <ele>1242</ele>
        <time>2019-10-19T07:29:02Z</time>
      </trkpt>
      <trkpt lat="42.95295" lon="0.89569">
        <ele>1242</ele>
        <time>2019-10-19T07:29:13Z</time>
      </trkpt>
      <trkpt lat="42.95295" lon="0.89555">
        <ele>1245</ele>
        <time>2019-10-19T07:29:24Z</time>
      </trkpt>
      <trkpt lat="42.95292" lon="0.89542">
        <ele>1244</ele>
        <time>2019-10-19T07:29:36Z</time>
      </trkpt>
      <trkpt lat="42.95288" lon="0.89526">
        <ele>1245</ele>
        <time>2019-10-19T07:29:50Z</time>
      </trkpt>
      <trkpt lat="42.95285" lon="0.89514">
        <ele>1248</ele>
        <time>2019-10-19T07:30:00Z</time>
      </trkpt>
      <trkpt lat="42.95291" lon="0.89503">
        <ele>1250</ele>
        <time>2019-10-19T07:30:15Z</time>
      </trkpt>
      <trkpt lat="42.95293" lon="0.8949">
        <ele>1252</ele>
        <time>2019-10-19T07:30:26Z</time>
      </trkpt>
      <trkpt lat="42.95294" lon="0.89478">
        <ele>1253</ele>
        <time>2019-10-19T07:30:43Z</time>
      </trkpt>
      <trkpt lat="42.95291" lon="0.89466">
        <ele>1258</ele>
        <time>2019-10-19T07:30:55Z</time>
      </trkpt>
      <trkpt lat="42.95293" lon="0.89453">
        <ele>1262</ele>
        <time>2019-10-19T07:31:10Z</time>
      </trkpt>
      <trkpt lat="42.95293" lon="0.89441">
        <ele>1263</ele>
        <time>2019-10-19T07:31:24Z</time>
      </trkpt>
      <trkpt lat="42.95295" lon="0.89428">
        <ele>1265</ele>
        <time>2019-10-19T07:31:37Z</time>
      </trkpt>
      <trkpt lat="42.95295" lon="0.89414">
        <ele>1267</ele>
        <time>2019-10-19T07:31:52Z</time>
      </trkpt>
      <trkpt lat="42.95293" lon="0.894">
        <ele>1271</ele>
        <time>2019-10-19T07:32:14Z</time>
      </trkpt>
      <trkpt lat="42.95302" lon="0.89392">
        <ele>1276</ele>
        <time>2019-10-19T07:32:36Z</time>
      </trkpt>
      <trkpt lat="42.95302" lon="0.8938">
        <ele>1279</ele>
        <time>2019-10-19T07:32:48Z</time>
      </trkpt>
      <trkpt lat="42.95306" lon="0.89368">
        <ele>1277</ele>
        <time>2019-10-19T07:32:58Z</time>
      </trkpt>
      <trkpt lat="42.95304" lon="0.89355">
        <ele>1281</ele>
        <time>2019-10-19T07:33:12Z</time>
      </trkpt>
      <trkpt lat="42.95305" lon="0.89342">
        <ele>1281</ele>
        <time>2019-10-19T07:33:23Z</time>
      </trkpt>
      <trkpt lat="42.95302" lon="0.89329">
        <ele>1279</ele>
        <time>2019-10-19T07:33:32Z</time>
      </trkpt>
      <trkpt lat="42.95304" lon="0.89317">
        <ele>1284</ele>
        <time>2019-10-19T07:33:50Z</time>
      </trkpt>
      <trkpt lat="42.95307" lon="0.89305">
        <ele>1290</ele>
        <time>2019-10-19T07:34:04Z</time>
      </trkpt>
      <trkpt lat="42.95309" lon="0.89292">
        <ele>1287</ele>
        <time>2019-10-19T07:34:21Z</time>
      </trkpt>
      <trkpt lat="42.95306" lon="0.89279">
        <ele>1289</ele>
        <time>2019-10-19T07:34:33Z</time>
      </trkpt>
      <trkpt lat="42.95298" lon="0.89271">
        <ele>1292</ele>
        <time>2019-10-19T07:34:42Z</time>
      </trkpt>
      <trkpt lat="42.95292" lon="0.89262">
        <ele>1297</ele>
        <time>2019-10-19T07:35:00Z</time>
      </trkpt>
      <trkpt lat="42.95289" lon="0.8925">
        <ele>1303</ele>
        <time>2019-10-19T07:35:14Z</time>
      </trkpt>
      <trkpt lat="42.95286" lon="0.89238">
        <ele>1300</ele>
        <time>2019-10-19T07:35:23Z</time>
      </trkpt>
      <trkpt lat="42.95287" lon="0.89225">
        <ele>1303</ele>
        <time>2019-10-19T07:35:36Z</time>
      </trkpt>
      <trkpt lat="42.95288" lon="0.89211">
        <ele>1306</ele>
        <time>2019-10-19T07:35:59Z</time>
      </trkpt>
      <trkpt lat="42.95292" lon="0.892">
        <ele>1309</ele>
        <time>2019-10-19T07:36:11Z</time>
      </trkpt>
      <trkpt lat="42.95293" lon="0.89187">
        <ele>1309</ele>
        <time>2019-10-19T07:36:23Z</time>
      </trkpt>
      <trkpt lat="42.95296" lon="0.89173">
        <ele>1311</ele>
        <time>2019-10-19T07:36:39Z</time>
      </trkpt>
      <trkpt lat="42.95296" lon="0.8916">
        <ele>1312</ele>
        <time>2019-10-19T07:36:53Z</time>
      </trkpt>
      <trkpt lat="42.95296" lon="0.89147">
        <ele>1315</ele>
        <time>2019-10-19T07:37:07Z</time>
      </trkpt>
      <trkpt lat="42.953" lon="0.89136">
        <ele>1318</ele>
        <time>2019-10-19T07:37:20Z</time>
      </trkpt>
      <trkpt lat="42.953" lon="0.89123">
        <ele>1321</ele>
        <time>2019-10-19T07:37:34Z</time>
      </trkpt>
      <trkpt lat="42.9531" lon="0.89124">
        <ele>1329</ele>
        <time>2019-10-19T07:38:18Z</time>
      </trkpt>
      <trkpt lat="42.95319" lon="0.89127">
        <ele>1328</ele>
        <time>2019-10-19T07:38:27Z</time>
      </trkpt>
      <trkpt lat="42.95327" lon="0.8912">
        <ele>1335</ele>
        <time>2019-10-19T07:38:46Z</time>
      </trkpt>
      <trkpt lat="42.95329" lon="0.89108">
        <ele>1340</ele>
        <time>2019-10-19T07:39:01Z</time>
      </trkpt>
      <trkpt lat="42.95329" lon="0.89095">
        <ele>1340</ele>
        <time>2019-10-19T07:39:14Z</time>
      </trkpt>
      <trkpt lat="42.9534" lon="0.89095">
        <ele>1343</ele>
        <time>2019-10-19T07:46:15Z</time>
      </trkpt>
      <trkpt lat="42.95349" lon="0.89093">
        <ele>1347</ele>
        <time>2019-10-19T07:46:24Z</time>
      </trkpt>
      <trkpt lat="42.95357" lon="0.89086">
        <ele>1348</ele>
        <time>2019-10-19T07:46:33Z</time>
      </trkpt>
      <trkpt lat="42.95365" lon="0.8908">
        <ele>1351</ele>
        <time>2019-10-19T07:46:47Z</time>
      </trkpt>
      <trkpt lat="42.95375" lon="0.89076">
        <ele>1354</ele>
        <time>2019-10-19T07:47:04Z</time>
      </trkpt>
      <trkpt lat="42.95384" lon="0.89071">
        <ele>1358</ele>
        <time>2019-10-19T07:47:18Z</time>
      </trkpt>
      <trkpt lat="42.95387" lon="0.89083">
        <ele>1355</ele>
        <time>2019-10-19T07:47:47Z</time>
      </trkpt>
      <trkpt lat="42.95393" lon="0.89092">
        <ele>1361</ele>
        <time>2019-10-19T07:48:04Z</time>
      </trkpt>
      <trkpt lat="42.95403" lon="0.89092">
        <ele>1365</ele>
        <time>2019-10-19T07:48:17Z</time>
      </trkpt>
      <trkpt lat="42.95412" lon="0.89087">
        <ele>1370</ele>
        <time>2019-10-19T07:48:31Z</time>
      </trkpt>
      <trkpt lat="42.95417" lon="0.89077">
        <ele>1370</ele>
        <time>2019-10-19T07:48:41Z</time>
      </trkpt>
      <trkpt lat="42.95421" lon="0.89064">
        <ele>1373</ele>
        <time>2019-10-19T07:48:51Z</time>
      </trkpt>
      <trkpt lat="42.95425" lon="0.89053">
        <ele>1373</ele>
        <time>2019-10-19T07:49:00Z</time>
      </trkpt>
      <trkpt lat="42.95428" lon="0.89041">
        <ele>1373</ele>
        <time>2019-10-19T07:49:12Z</time>
      </trkpt>
      <trkpt lat="42.95432" lon="0.89053">
        <ele>1380</ele>
        <time>2019-10-19T07:49:52Z</time>
      </trkpt>
      <trkpt lat="42.95435" lon="0.89065">
        <ele>1372</ele>
        <time>2019-10-19T07:50:06Z</time>
      </trkpt>
      <trkpt lat="42.95437" lon="0.89077">
        <ele>1378</ele>
        <time>2019-10-19T07:50:20Z</time>
      </trkpt>
      <trkpt lat="42.95442" lon="0.89089">
        <ele>1378</ele>
        <time>2019-10-19T07:50:33Z</time>
      </trkpt>
      <trkpt lat="42.9545" lon="0.89095">
        <ele>1381</ele>
        <time>2019-10-19T07:50:42Z</time>
      </trkpt>
      <trkpt lat="42.95455" lon="0.89107">
        <ele>1390</ele>
        <time>2019-10-19T07:51:07Z</time>
      </trkpt>
      <trkpt lat="42.95463" lon="0.89113">
        <ele>1393</ele>
        <time>2019-10-19T07:51:20Z</time>
      </trkpt>
      <trkpt lat="42.95469" lon="0.89122">
        <ele>1396</ele>
        <time>2019-10-19T07:51:36Z</time>
      </trkpt>
      <trkpt lat="42.95474" lon="0.89134">
        <ele>1399</ele>
        <time>2019-10-19T07:51:59Z</time>
      </trkpt>
      <trkpt lat="42.95483" lon="0.89141">
        <ele>1401</ele>
        <time>2019-10-19T07:52:15Z</time>
      </trkpt>
      <trkpt lat="42.95492" lon="0.89142">
        <ele>1408</ele>
        <time>2019-10-19T07:52:35Z</time>
      </trkpt>
      <trkpt lat="42.955" lon="0.89134">
        <ele>1413</ele>
        <time>2019-10-19T07:52:53Z</time>
      </trkpt>
      <trkpt lat="42.95505" lon="0.89124">
        <ele>1414</ele>
        <time>2019-10-19T07:53:09Z</time>
      </trkpt>
      <trkpt lat="42.95508" lon="0.89112">
        <ele>1417</ele>
        <time>2019-10-19T07:53:23Z</time>
      </trkpt>
      <trkpt lat="42.95509" lon="0.89099">
        <ele>1420</ele>
        <time>2019-10-19T07:53:36Z</time>
      </trkpt>
      <trkpt lat="42.95511" lon="0.89086">
        <ele>1421</ele>
        <time>2019-10-19T07:53:48Z</time>
      </trkpt>
      <trkpt lat="42.95514" lon="0.89073">
        <ele>1423</ele>
        <time>2019-10-19T07:54:02Z</time>
      </trkpt>
      <trkpt lat="42.95517" lon="0.89061">
        <ele>1423</ele>
        <time>2019-10-19T07:54:16Z</time>
      </trkpt>
      <trkpt lat="42.95524" lon="0.89053">
        <ele>1425</ele>
        <time>2019-10-19T07:54:29Z</time>
      </trkpt>
      <trkpt lat="42.95524" lon="0.8904">
        <ele>1430</ele>
        <time>2019-10-19T07:54:44Z</time>
      </trkpt>
      <trkpt lat="42.95531" lon="0.89025">
        <ele>1432</ele>
        <time>2019-10-19T07:54:57Z</time>
      </trkpt>
      <trkpt lat="42.95537" lon="0.89015">
        <ele>1432</ele>
        <time>2019-10-19T07:55:17Z</time>
      </trkpt>
      <trkpt lat="42.95546" lon="0.8901">
        <ele>1433</ele>
        <time>2019-10-19T07:55:37Z</time>
      </trkpt>
      <trkpt lat="42.95552" lon="0.88998">
        <ele>1433</ele>
        <time>2019-10-19T07:55:46Z</time>
      </trkpt>
      <trkpt lat="42.95559" lon="0.88989">
        <ele>1432</ele>
        <time>2019-10-19T07:55:58Z</time>
      </trkpt>
      <trkpt lat="42.95567" lon="0.8898">
        <ele>1433</ele>
        <time>2019-10-19T07:56:08Z</time>
      </trkpt>
      <trkpt lat="42.95575" lon="0.88972">
        <ele>1439</ele>
        <time>2019-10-19T07:56:25Z</time>
      </trkpt>
      <trkpt lat="42.95579" lon="0.88959">
        <ele>1439</ele>
        <time>2019-10-19T07:56:33Z</time>
      </trkpt>
      <trkpt lat="42.95582" lon="0.88946">
        <ele>1437</ele>
        <time>2019-10-19T07:56:42Z</time>
      </trkpt>
      <trkpt lat="42.95583" lon="0.88934">
        <ele>1436</ele>
        <time>2019-10-19T07:56:52Z</time>
      </trkpt>
      <trkpt lat="42.95585" lon="0.88921">
        <ele>1437</ele>
        <time>2019-10-19T07:57:04Z</time>
      </trkpt>
      <trkpt lat="42.95588" lon="0.8891">
        <ele>1440</ele>
        <time>2019-10-19T07:57:16Z</time>
      </trkpt>
      <trkpt lat="42.95592" lon="0.88898">
        <ele>1444</ele>
        <time>2019-10-19T07:57:29Z</time>
      </trkpt>
      <trkpt lat="42.95596" lon="0.88887">
        <ele>1447</ele>
        <time>2019-10-19T07:57:43Z</time>
      </trkpt>
      <trkpt lat="42.95597" lon="0.88875">
        <ele>1443</ele>
        <time>2019-10-19T07:57:53Z</time>
      </trkpt>
      <trkpt lat="42.956" lon="0.88862">
        <ele>1447</ele>
        <time>2019-10-19T07:58:05Z</time>
      </trkpt>
      <trkpt lat="42.95606" lon="0.88852">
        <ele>1449</ele>
        <time>2019-10-19T07:58:20Z</time>
      </trkpt>
      <trkpt lat="42.95606" lon="0.88839">
        <ele>1450</ele>
        <time>2019-10-19T07:58:38Z</time>
      </trkpt>
      <trkpt lat="42.95609" lon="0.88827">
        <ele>1454</ele>
        <time>2019-10-19T07:58:53Z</time>
      </trkpt>
      <trkpt lat="42.95611" lon="0.88815">
        <ele>1453</ele>
        <time>2019-10-19T07:59:01Z</time>
      </trkpt>
      <trkpt lat="42.95613" lon="0.88803">
        <ele>1452</ele>
        <time>2019-10-19T07:59:10Z</time>
      </trkpt>
      <trkpt lat="42.95616" lon="0.8879">
        <ele>1451</ele>
        <time>2019-10-19T07:59:20Z</time>
      </trkpt>
      <trkpt lat="42.95621" lon="0.88779">
        <ele>1455</ele>
        <time>2019-10-19T07:59:37Z</time>
      </trkpt>
      <trkpt lat="42.95629" lon="0.88772">
        <ele>1460</ele>
        <time>2019-10-19T08:00:01Z</time>
      </trkpt>
      <trkpt lat="42.95635" lon="0.88762">
        <ele>1462</ele>
        <time>2019-10-19T08:00:08Z</time>
      </trkpt>
      <trkpt lat="42.95643" lon="0.88753">
        <ele>1461</ele>
        <time>2019-10-19T08:00:38Z</time>
      </trkpt>
      <trkpt lat="42.9565" lon="0.88743">
        <ele>1462</ele>
        <time>2019-10-19T08:00:47Z</time>
      </trkpt>
      <trkpt lat="42.95656" lon="0.88733">
        <ele>1465</ele>
        <time>2019-10-19T08:01:01Z</time>
      </trkpt>
      <trkpt lat="42.95662" lon="0.88722">
        <ele>1466</ele>
        <time>2019-10-19T08:01:11Z</time>
      </trkpt>
      <trkpt lat="42.95667" lon="0.88712">
        <ele>1473</ele>
        <time>2019-10-19T08:01:24Z</time>
      </trkpt>
      <trkpt lat="42.95671" lon="0.887">
        <ele>1472</ele>
        <time>2019-10-19T08:01:39Z</time>
      </trkpt>
      <trkpt lat="42.95677" lon="0.88689">
        <ele>1471</ele>
        <time>2019-10-19T08:01:56Z</time>
      </trkpt>
      <trkpt lat="42.95685" lon="0.88683">
        <ele>1479</ele>
        <time>2019-10-19T08:02:14Z</time>
      </trkpt>
      <trkpt lat="42.95687" lon="0.88671">
        <ele>1484</ele>
        <time>2019-10-19T08:02:29Z</time>
      </trkpt>
      <trkpt lat="42.95691" lon="0.88659">
        <ele>1486</ele>
        <time>2019-10-19T08:02:38Z</time>
      </trkpt>
      <trkpt lat="42.95692" lon="0.88646">
        <ele>1483</ele>
        <time>2019-10-19T08:02:46Z</time>
      </trkpt>
      <trkpt lat="42.95697" lon="0.88636">
        <ele>1485</ele>
        <time>2019-10-19T08:02:57Z</time>
      </trkpt>
      <trkpt lat="42.95705" lon="0.88628">
        <ele>1484</ele>
        <time>2019-10-19T08:03:07Z</time>
      </trkpt>
      <trkpt lat="42.95705" lon="0.88615">
        <ele>1483</ele>
        <time>2019-10-19T08:03:15Z</time>
      </trkpt>
      <trkpt lat="42.95705" lon="0.88603">
        <ele>1485</ele>
        <time>2019-10-19T08:03:24Z</time>
      </trkpt>
      <trkpt lat="42.95708" lon="0.8859">
        <ele>1483</ele>
        <time>2019-10-19T08:03:42Z</time>
      </trkpt>
      <trkpt lat="42.95712" lon="0.88579">
        <ele>1486</ele>
        <time>2019-10-19T08:03:53Z</time>
      </trkpt>
      <trkpt lat="42.95712" lon="0.88566">
        <ele>1481</ele>
        <time>2019-10-19T08:04:02Z</time>
      </trkpt>
      <trkpt lat="42.95712" lon="0.88553">
        <ele>1481</ele>
        <time>2019-10-19T08:04:12Z</time>
      </trkpt>
      <trkpt lat="42.95717" lon="0.88563">
        <ele>1478</ele>
        <time>2019-10-19T08:04:31Z</time>
      </trkpt>
      <trkpt lat="42.95726" lon="0.8857">
        <ele>1483</ele>
        <time>2019-10-19T08:04:47Z</time>
      </trkpt>
      <trkpt lat="42.95726" lon="0.88583">
        <ele>1488</ele>
        <time>2019-10-19T08:08:57Z</time>
      </trkpt>
      <trkpt lat="42.9573" lon="0.88594">
        <ele>1489</ele>
        <time>2019-10-19T08:09:09Z</time>
      </trkpt>
      <trkpt lat="42.95732" lon="0.88607">
        <ele>1491</ele>
        <time>2019-10-19T08:09:19Z</time>
      </trkpt>
      <trkpt lat="42.95741" lon="0.88612">
        <ele>1493</ele>
        <time>2019-10-19T08:09:31Z</time>
      </trkpt>
      <trkpt lat="42.95742" lon="0.88624">
        <ele>1490</ele>
        <time>2019-10-19T08:09:42Z</time>
      </trkpt>
      <trkpt lat="42.95744" lon="0.88637">
        <ele>1495</ele>
        <time>2019-10-19T08:09:56Z</time>
      </trkpt>
      <trkpt lat="42.9575" lon="0.88647">
        <ele>1496</ele>
        <time>2019-10-19T08:10:12Z</time>
      </trkpt>
      <trkpt lat="42.95749" lon="0.8866">
        <ele>1500</ele>
        <time>2019-10-19T08:10:28Z</time>
      </trkpt>
      <trkpt lat="42.95752" lon="0.88673">
        <ele>1503</ele>
        <time>2019-10-19T08:10:44Z</time>
      </trkpt>
      <trkpt lat="42.95752" lon="0.88685">
        <ele>1507</ele>
        <time>2019-10-19T08:11:00Z</time>
      </trkpt>
      <trkpt lat="42.95754" lon="0.88698">
        <ele>1510</ele>
        <time>2019-10-19T08:11:17Z</time>
      </trkpt>
      <trkpt lat="42.95758" lon="0.8871">
        <ele>1510</ele>
        <time>2019-10-19T08:11:34Z</time>
      </trkpt>
      <trkpt lat="42.95766" lon="0.88716">
        <ele>1511</ele>
        <time>2019-10-19T08:11:45Z</time>
      </trkpt>
      <trkpt lat="42.95768" lon="0.88728">
        <ele>1515</ele>
        <time>2019-10-19T08:11:59Z</time>
      </trkpt>
      <trkpt lat="42.95771" lon="0.88742">
        <ele>1519</ele>
        <time>2019-10-19T08:12:19Z</time>
      </trkpt>
      <trkpt lat="42.95773" lon="0.88754">
        <ele>1522</ele>
        <time>2019-10-19T08:12:43Z</time>
      </trkpt>
      <trkpt lat="42.95778" lon="0.88765">
        <ele>1527</ele>
        <time>2019-10-19T08:13:03Z</time>
      </trkpt>
      <trkpt lat="42.95781" lon="0.88777">
        <ele>1529</ele>
        <time>2019-10-19T08:13:24Z</time>
      </trkpt>
      <trkpt lat="42.95783" lon="0.8879">
        <ele>1534</ele>
        <time>2019-10-19T08:13:40Z</time>
      </trkpt>
      <trkpt lat="42.95787" lon="0.888">
        <ele>1536</ele>
        <time>2019-10-19T08:13:57Z</time>
      </trkpt>
      <trkpt lat="42.95789" lon="0.88813">
        <ele>1540</ele>
        <time>2019-10-19T08:14:17Z</time>
      </trkpt>
      <trkpt lat="42.95797" lon="0.88818">
        <ele>1541</ele>
        <time>2019-10-19T08:14:36Z</time>
      </trkpt>
      <trkpt lat="42.95801" lon="0.88832">
        <ele>1541</ele>
        <time>2019-10-19T08:14:46Z</time>
      </trkpt>
      <trkpt lat="42.95803" lon="0.88845">
        <ele>1544</ele>
        <time>2019-10-19T08:15:01Z</time>
      </trkpt>
      <trkpt lat="42.95806" lon="0.88857">
        <ele>1547</ele>
        <time>2019-10-19T08:15:16Z</time>
      </trkpt>
      <trkpt lat="42.95806" lon="0.8887">
        <ele>1551</ele>
        <time>2019-10-19T08:15:29Z</time>
      </trkpt>
      <trkpt lat="42.95808" lon="0.88884">
        <ele>1552</ele>
        <time>2019-10-19T08:15:42Z</time>
      </trkpt>
      <trkpt lat="42.95815" lon="0.88892">
        <ele>1553</ele>
        <time>2019-10-19T08:15:57Z</time>
      </trkpt>
      <trkpt lat="42.95821" lon="0.88903">
        <ele>1556</ele>
        <time>2019-10-19T08:16:11Z</time>
      </trkpt>
      <trkpt lat="42.95826" lon="0.88914">
        <ele>1554</ele>
        <time>2019-10-19T08:16:19Z</time>
      </trkpt>
      <trkpt lat="42.95825" lon="0.88927">
        <ele>1553</ele>
        <time>2019-10-19T08:16:29Z</time>
      </trkpt>
      <trkpt lat="42.95824" lon="0.88939">
        <ele>1551</ele>
        <time>2019-10-19T08:16:38Z</time>
      </trkpt>
      <trkpt lat="42.95824" lon="0.88952">
        <ele>1553</ele>
        <time>2019-10-19T08:16:50Z</time>
      </trkpt>
      <trkpt lat="42.95821" lon="0.88965">
        <ele>1556</ele>
        <time>2019-10-19T08:16:58Z</time>
      </trkpt>
      <trkpt lat="42.9582" lon="0.88977">
        <ele>1555</ele>
        <time>2019-10-19T08:17:12Z</time>
      </trkpt>
      <trkpt lat="42.95818" lon="0.88989">
        <ele>1554</ele>
        <time>2019-10-19T08:17:24Z</time>
      </trkpt>
      <trkpt lat="42.95814" lon="0.89001">
        <ele>1556</ele>
        <time>2019-10-19T08:17:33Z</time>
      </trkpt>
      <trkpt lat="42.95809" lon="0.89012">
        <ele>1559</ele>
        <time>2019-10-19T08:17:41Z</time>
      </trkpt>
      <trkpt lat="42.95804" lon="0.89024">
        <ele>1558</ele>
        <time>2019-10-19T08:17:53Z</time>
      </trkpt>
      <trkpt lat="42.95806" lon="0.89037">
        <ele>1561</ele>
        <time>2019-10-19T08:18:04Z</time>
      </trkpt>
      <trkpt lat="42.95804" lon="0.8905">
        <ele>1557</ele>
        <time>2019-10-19T08:18:26Z</time>
      </trkpt>
      <trkpt lat="42.958" lon="0.89062">
        <ele>1557</ele>
        <time>2019-10-19T08:18:44Z</time>
      </trkpt>
      <trkpt lat="42.95799" lon="0.89074">
        <ele>1559</ele>
        <time>2019-10-19T08:18:56Z</time>
      </trkpt>
      <trkpt lat="42.95799" lon="0.89087">
        <ele>1569</ele>
        <time>2019-10-19T08:32:25Z</time>
      </trkpt>
      <trkpt lat="42.95799" lon="0.89074">
        <ele>1570</ele>
        <time>2019-10-19T08:33:02Z</time>
      </trkpt>
      <trkpt lat="42.95799" lon="0.8906">
        <ele>1570</ele>
        <time>2019-10-19T08:33:09Z</time>
      </trkpt>
      <trkpt lat="42.95797" lon="0.89048">
        <ele>1568</ele>
        <time>2019-10-19T08:33:17Z</time>
      </trkpt>
      <trkpt lat="42.95803" lon="0.8904">
        <ele>1563</ele>
        <time>2019-10-19T08:33:25Z</time>
      </trkpt>
      <trkpt lat="42.95801" lon="0.89028">
        <ele>1558</ele>
        <time>2019-10-19T08:33:37Z</time>
      </trkpt>
      <trkpt lat="42.95806" lon="0.89017">
        <ele>1558</ele>
        <time>2019-10-19T08:33:49Z</time>
      </trkpt>
      <trkpt lat="42.95812" lon="0.89005">
        <ele>1562</ele>
        <time>2019-10-19T08:34:01Z</time>
      </trkpt>
      <trkpt lat="42.95814" lon="0.88993">
        <ele>1563</ele>
        <time>2019-10-19T08:34:12Z</time>
      </trkpt>
      <trkpt lat="42.95817" lon="0.88981">
        <ele>1559</ele>
        <time>2019-10-19T08:34:20Z</time>
      </trkpt>
      <trkpt lat="42.95821" lon="0.88969">
        <ele>1560</ele>
        <time>2019-10-19T08:34:30Z</time>
      </trkpt>
      <trkpt lat="42.95821" lon="0.88957">
        <ele>1558</ele>
        <time>2019-10-19T08:34:39Z</time>
      </trkpt>
      <trkpt lat="42.95821" lon="0.88944">
        <ele>1554</ele>
        <time>2019-10-19T08:34:49Z</time>
      </trkpt>
      <trkpt lat="42.95825" lon="0.88932">
        <ele>1555</ele>
        <time>2019-10-19T08:35:01Z</time>
      </trkpt>
      <trkpt lat="42.95826" lon="0.88918">
        <ele>1558</ele>
        <time>2019-10-19T08:35:13Z</time>
      </trkpt>
      <trkpt lat="42.95829" lon="0.88905">
        <ele>1559</ele>
        <time>2019-10-19T08:35:23Z</time>
      </trkpt>
      <trkpt lat="42.95828" lon="0.88892">
        <ele>1557</ele>
        <time>2019-10-19T08:35:31Z</time>
      </trkpt>
      <trkpt lat="42.95828" lon="0.88879">
        <ele>1553</ele>
        <time>2019-10-19T08:35:41Z</time>
      </trkpt>
      <trkpt lat="42.9583" lon="0.88867">
        <ele>1556</ele>
        <time>2019-10-19T08:35:50Z</time>
      </trkpt>
      <trkpt lat="42.95829" lon="0.88854">
        <ele>1554</ele>
        <time>2019-10-19T08:36:00Z</time>
      </trkpt>
      <trkpt lat="42.9583" lon="0.88842">
        <ele>1553</ele>
        <time>2019-10-19T08:36:11Z</time>
      </trkpt>
      <trkpt lat="42.9583" lon="0.88829">
        <ele>1551</ele>
        <time>2019-10-19T08:36:25Z</time>
      </trkpt>
      <trkpt lat="42.95833" lon="0.88816">
        <ele>1548</ele>
        <time>2019-10-19T08:36:38Z</time>
      </trkpt>
      <trkpt lat="42.95836" lon="0.88804">
        <ele>1546</ele>
        <time>2019-10-19T08:36:48Z</time>
      </trkpt>
      <trkpt lat="42.95836" lon="0.8879">
        <ele>1538</ele>
        <time>2019-10-19T08:36:58Z</time>
      </trkpt>
      <trkpt lat="42.95842" lon="0.8878">
        <ele>1532</ele>
        <time>2019-10-19T08:37:18Z</time>
      </trkpt>
      <trkpt lat="42.95845" lon="0.88768">
        <ele>1530</ele>
        <time>2019-10-19T08:37:25Z</time>
      </trkpt>
      <trkpt lat="42.95848" lon="0.88756">
        <ele>1531</ele>
        <time>2019-10-19T08:37:37Z</time>
      </trkpt>
      <trkpt lat="42.95851" lon="0.88743">
        <ele>1531</ele>
        <time>2019-10-19T08:37:50Z</time>
      </trkpt>
      <trkpt lat="42.95857" lon="0.88732">
        <ele>1531</ele>
        <time>2019-10-19T08:38:04Z</time>
      </trkpt>
      <trkpt lat="42.95863" lon="0.88722">
        <ele>1528</ele>
        <time>2019-10-19T08:38:14Z</time>
      </trkpt>
      <trkpt lat="42.95866" lon="0.8871">
        <ele>1525</ele>
        <time>2019-10-19T08:38:27Z</time>
      </trkpt>
      <trkpt lat="42.95866" lon="0.88695">
        <ele>1523</ele>
        <time>2019-10-19T08:38:35Z</time>
      </trkpt>
      <trkpt lat="42.95872" lon="0.88686">
        <ele>1521</ele>
        <time>2019-10-19T08:38:50Z</time>
      </trkpt>
      <trkpt lat="42.95875" lon="0.88674">
        <ele>1520</ele>
        <time>2019-10-19T08:39:00Z</time>
      </trkpt>
      <trkpt lat="42.95877" lon="0.88662">
        <ele>1512</ele>
        <time>2019-10-19T08:39:10Z</time>
      </trkpt>
      <trkpt lat="42.95884" lon="0.88654">
        <ele>1517</ele>
        <time>2019-10-19T08:39:30Z</time>
      </trkpt>
      <trkpt lat="42.95886" lon="0.88642">
        <ele>1517</ele>
        <time>2019-10-19T08:39:38Z</time>
      </trkpt>
      <trkpt lat="42.95889" lon="0.88629">
        <ele>1514</ele>
        <time>2019-10-19T08:39:50Z</time>
      </trkpt>
      <trkpt lat="42.95897" lon="0.88622">
        <ele>1512</ele>
        <time>2019-10-19T08:40:01Z</time>
      </trkpt>
      <trkpt lat="42.95903" lon="0.88612">
        <ele>1509</ele>
        <time>2019-10-19T08:40:10Z</time>
      </trkpt>
      <trkpt lat="42.95911" lon="0.88606">
        <ele>1512</ele>
        <time>2019-10-19T08:40:22Z</time>
      </trkpt>
      <trkpt lat="42.95913" lon="0.88592">
        <ele>1507</ele>
        <time>2019-10-19T08:40:33Z</time>
      </trkpt>
      <trkpt lat="42.9592" lon="0.88582">
        <ele>1509</ele>
        <time>2019-10-19T08:40:43Z</time>
      </trkpt>
      <trkpt lat="42.95928" lon="0.88576">
        <ele>1506</ele>
        <time>2019-10-19T08:40:52Z</time>
      </trkpt>
      <trkpt lat="42.95932" lon="0.88563">
        <ele>1505</ele>
        <time>2019-10-19T08:41:00Z</time>
      </trkpt>
      <trkpt lat="42.95932" lon="0.8855">
        <ele>1504</ele>
        <time>2019-10-19T08:41:07Z</time>
      </trkpt>
      <trkpt lat="42.95931" lon="0.88537">
        <ele>1503</ele>
        <time>2019-10-19T08:41:18Z</time>
      </trkpt>
      <trkpt lat="42.9593" lon="0.88523">
        <ele>1502</ele>
        <time>2019-10-19T08:41:26Z</time>
      </trkpt>
      <trkpt lat="42.95931" lon="0.8851">
        <ele>1504</ele>
        <time>2019-10-19T08:41:36Z</time>
      </trkpt>
      <trkpt lat="42.95933" lon="0.88498">
        <ele>1504</ele>
        <time>2019-10-19T08:41:45Z</time>
      </trkpt>
      <trkpt lat="42.95932" lon="0.88485">
        <ele>1504</ele>
        <time>2019-10-19T08:41:56Z</time>
      </trkpt>
      <trkpt lat="42.95927" lon="0.88474">
        <ele>1505</ele>
        <time>2019-10-19T08:42:03Z</time>
      </trkpt>
      <trkpt lat="42.95923" lon="0.88463">
        <ele>1506</ele>
        <time>2019-10-19T08:42:13Z</time>
      </trkpt>
      <trkpt lat="42.95919" lon="0.88451">
        <ele>1504</ele>
        <time>2019-10-19T08:42:25Z</time>
      </trkpt>
      <trkpt lat="42.95918" lon="0.88438">
        <ele>1504</ele>
        <time>2019-10-19T08:42:34Z</time>
      </trkpt>
      <trkpt lat="42.95915" lon="0.88426">
        <ele>1506</ele>
        <time>2019-10-19T08:42:47Z</time>
      </trkpt>
      <trkpt lat="42.95914" lon="0.88413">
        <ele>1506</ele>
        <time>2019-10-19T08:42:59Z</time>
      </trkpt>
      <trkpt lat="42.9591" lon="0.88402">
        <ele>1509</ele>
        <time>2019-10-19T08:43:10Z</time>
      </trkpt>
      <trkpt lat="42.95908" lon="0.8839">
        <ele>1511</ele>
        <time>2019-10-19T08:43:21Z</time>
      </trkpt>
      <trkpt lat="42.95903" lon="0.88379">
        <ele>1514</ele>
        <time>2019-10-19T08:43:32Z</time>
      </trkpt>
      <trkpt lat="42.95903" lon="0.88367">
        <ele>1523</ele>
        <time>2019-10-19T08:43:54Z</time>
      </trkpt>
      <trkpt lat="42.959" lon="0.88355">
        <ele>1525</ele>
        <time>2019-10-19T08:44:02Z</time>
      </trkpt>
      <trkpt lat="42.95896" lon="0.88343">
        <ele>1525</ele>
        <time>2019-10-19T08:44:12Z</time>
      </trkpt>
      <trkpt lat="42.95886" lon="0.8834">
        <ele>1523</ele>
        <time>2019-10-19T08:44:24Z</time>
      </trkpt>
      <trkpt lat="42.9588" lon="0.8833">
        <ele>1526</ele>
        <time>2019-10-19T08:44:35Z</time>
      </trkpt>
      <trkpt lat="42.95873" lon="0.88321">
        <ele>1531</ele>
        <time>2019-10-19T08:44:48Z</time>
      </trkpt>
      <trkpt lat="42.95866" lon="0.88311">
        <ele>1531</ele>
        <time>2019-10-19T08:44:59Z</time>
      </trkpt>
      <trkpt lat="42.95858" lon="0.883">
        <ele>1536</ele>
        <time>2019-10-19T08:45:13Z</time>
      </trkpt>
      <trkpt lat="42.95853" lon="0.8829">
        <ele>1538</ele>
        <time>2019-10-19T08:45:27Z</time>
      </trkpt>
      <trkpt lat="42.95846" lon="0.8828">
        <ele>1540</ele>
        <time>2019-10-19T08:45:36Z</time>
      </trkpt>
      <trkpt lat="42.95839" lon="0.88273">
        <ele>1541</ele>
        <time>2019-10-19T08:45:46Z</time>
      </trkpt>
      <trkpt lat="42.95833" lon="0.88262">
        <ele>1543</ele>
        <time>2019-10-19T08:45:54Z</time>
      </trkpt>
      <trkpt lat="42.95829" lon="0.88251">
        <ele>1545</ele>
        <time>2019-10-19T08:46:06Z</time>
      </trkpt>
      <trkpt lat="42.95829" lon="0.88237">
        <ele>1540</ele>
        <time>2019-10-19T08:46:18Z</time>
      </trkpt>
      <trkpt lat="42.95838" lon="0.8823">
        <ele>1542</ele>
        <time>2019-10-19T08:46:29Z</time>
      </trkpt>
      <trkpt lat="42.95847" lon="0.88227">
        <ele>1540</ele>
        <time>2019-10-19T08:46:37Z</time>
      </trkpt>
      <trkpt lat="42.95855" lon="0.88214">
        <ele>1539</ele>
        <time>2019-10-19T08:46:48Z</time>
      </trkpt>
      <trkpt lat="42.95862" lon="0.88205">
        <ele>1544</ele>
        <time>2019-10-19T08:47:10Z</time>
      </trkpt>
      <trkpt lat="42.95866" lon="0.88194">
        <ele>1546</ele>
        <time>2019-10-19T08:47:20Z</time>
      </trkpt>
      <trkpt lat="42.95869" lon="0.88182">
        <ele>1546</ele>
        <time>2019-10-19T08:47:40Z</time>
      </trkpt>
      <trkpt lat="42.95872" lon="0.88171">
        <ele>1552</ele>
        <time>2019-10-19T08:47:51Z</time>
      </trkpt>
      <trkpt lat="42.95875" lon="0.88158">
        <ele>1556</ele>
        <time>2019-10-19T08:48:14Z</time>
      </trkpt>
      <trkpt lat="42.95875" lon="0.88145">
        <ele>1562</ele>
        <time>2019-10-19T08:48:29Z</time>
      </trkpt>
      <trkpt lat="42.95879" lon="0.88131">
        <ele>1562</ele>
        <time>2019-10-19T08:48:45Z</time>
      </trkpt>
      <trkpt lat="42.95884" lon="0.88121">
        <ele>1562</ele>
        <time>2019-10-19T08:48:53Z</time>
      </trkpt>
      <trkpt lat="42.95889" lon="0.8811">
        <ele>1565</ele>
        <time>2019-10-19T08:49:05Z</time>
      </trkpt>
      <trkpt lat="42.9589" lon="0.88096">
        <ele>1562</ele>
        <time>2019-10-19T08:49:36Z</time>
      </trkpt>
      <trkpt lat="42.95894" lon="0.88084">
        <ele>1557</ele>
        <time>2019-10-19T08:50:49Z</time>
      </trkpt>
      <trkpt lat="42.95899" lon="0.88074">
        <ele>1556</ele>
        <time>2019-10-19T08:50:58Z</time>
      </trkpt>
      <trkpt lat="42.95894" lon="0.88063">
        <ele>1555</ele>
        <time>2019-10-19T08:51:08Z</time>
      </trkpt>
      <trkpt lat="42.95892" lon="0.88051">
        <ele>1554</ele>
        <time>2019-10-19T08:51:16Z</time>
      </trkpt>
      <trkpt lat="42.9589" lon="0.88038">
        <ele>1555</ele>
        <time>2019-10-19T08:51:27Z</time>
      </trkpt>
      <trkpt lat="42.95889" lon="0.88023">
        <ele>1555</ele>
        <time>2019-10-19T08:51:37Z</time>
      </trkpt>
      <trkpt lat="42.9589" lon="0.88011">
        <ele>1553</ele>
        <time>2019-10-19T08:51:47Z</time>
      </trkpt>
      <trkpt lat="42.95891" lon="0.87997">
        <ele>1553</ele>
        <time>2019-10-19T08:51:53Z</time>
      </trkpt>
      <trkpt lat="42.95888" lon="0.87984">
        <ele>1554</ele>
        <time>2019-10-19T08:52:03Z</time>
      </trkpt>
      <trkpt lat="42.95887" lon="0.87971">
        <ele>1556</ele>
        <time>2019-10-19T08:52:16Z</time>
      </trkpt>
      <trkpt lat="42.95882" lon="0.87961">
        <ele>1554</ele>
        <time>2019-10-19T08:52:23Z</time>
      </trkpt>
      <trkpt lat="42.9588" lon="0.87949">
        <ele>1555</ele>
        <time>2019-10-19T08:52:34Z</time>
      </trkpt>
      <trkpt lat="42.95875" lon="0.87939">
        <ele>1554</ele>
        <time>2019-10-19T08:52:45Z</time>
      </trkpt>
      <trkpt lat="42.9587" lon="0.87927">
        <ele>1560</ele>
        <time>2019-10-19T08:53:02Z</time>
      </trkpt>
      <trkpt lat="42.95865" lon="0.87917">
        <ele>1558</ele>
        <time>2019-10-19T08:53:09Z</time>
      </trkpt>
      <trkpt lat="42.95858" lon="0.87907">
        <ele>1559</ele>
        <time>2019-10-19T08:53:17Z</time>
      </trkpt>
      <trkpt lat="42.95851" lon="0.87898">
        <ele>1565</ele>
        <time>2019-10-19T08:53:35Z</time>
      </trkpt>
      <trkpt lat="42.95851" lon="0.87884">
        <ele>1569</ele>
        <time>2019-10-19T08:53:55Z</time>
      </trkpt>
      <trkpt lat="42.95852" lon="0.87871">
        <ele>1569</ele>
        <time>2019-10-19T08:54:05Z</time>
      </trkpt>
      <trkpt lat="42.95848" lon="0.87855">
        <ele>1568</ele>
        <time>2019-10-19T08:54:23Z</time>
      </trkpt>
      <trkpt lat="42.95845" lon="0.87842">
        <ele>1573</ele>
        <time>2019-10-19T08:54:41Z</time>
      </trkpt>
      <trkpt lat="42.95841" lon="0.8783">
        <ele>1578</ele>
        <time>2019-10-19T08:54:55Z</time>
      </trkpt>
      <trkpt lat="42.95838" lon="0.87819">
        <ele>1580</ele>
        <time>2019-10-19T08:55:03Z</time>
      </trkpt>
      <trkpt lat="42.95837" lon="0.87806">
        <ele>1582</ele>
        <time>2019-10-19T08:55:21Z</time>
      </trkpt>
      <trkpt lat="42.95833" lon="0.87794">
        <ele>1586</ele>
        <time>2019-10-19T08:55:37Z</time>
      </trkpt>
      <trkpt lat="42.9583" lon="0.87781">
        <ele>1584</ele>
        <time>2019-10-19T08:55:46Z</time>
      </trkpt>
      <trkpt lat="42.95828" lon="0.87768">
        <ele>1582</ele>
        <time>2019-10-19T08:55:56Z</time>
      </trkpt>
      <trkpt lat="42.95822" lon="0.87758">
        <ele>1581</ele>
        <time>2019-10-19T08:56:07Z</time>
      </trkpt>
      <trkpt lat="42.95819" lon="0.87747">
        <ele>1579</ele>
        <time>2019-10-19T08:56:18Z</time>
      </trkpt>
      <trkpt lat="42.95813" lon="0.87737">
        <ele>1580</ele>
        <time>2019-10-19T08:56:37Z</time>
      </trkpt>
      <trkpt lat="42.95809" lon="0.87725">
        <ele>1580</ele>
        <time>2019-10-19T08:56:49Z</time>
      </trkpt>
      <trkpt lat="42.95805" lon="0.87713">
        <ele>1577</ele>
        <time>2019-10-19T08:56:59Z</time>
      </trkpt>
      <trkpt lat="42.95804" lon="0.877">
        <ele>1576</ele>
        <time>2019-10-19T08:57:10Z</time>
      </trkpt>
      <trkpt lat="42.95801" lon="0.87687">
        <ele>1576</ele>
        <time>2019-10-19T08:57:21Z</time>
      </trkpt>
      <trkpt lat="42.95797" lon="0.87676">
        <ele>1576</ele>
        <time>2019-10-19T08:57:34Z</time>
      </trkpt>
      <trkpt lat="42.95789" lon="0.87668">
        <ele>1580</ele>
        <time>2019-10-19T08:57:47Z</time>
      </trkpt>
      <trkpt lat="42.95788" lon="0.87655">
        <ele>1580</ele>
        <time>2019-10-19T08:59:56Z</time>
      </trkpt>
      <trkpt lat="42.95785" lon="0.87643">
        <ele>1580</ele>
        <time>2019-10-19T09:00:07Z</time>
      </trkpt>
      <trkpt lat="42.95785" lon="0.8763">
        <ele>1578</ele>
        <time>2019-10-19T09:00:19Z</time>
      </trkpt>
      <trkpt lat="42.95784" lon="0.87617">
        <ele>1578</ele>
        <time>2019-10-19T09:00:27Z</time>
      </trkpt>
      <trkpt lat="42.95781" lon="0.87604">
        <ele>1578</ele>
        <time>2019-10-19T09:00:37Z</time>
      </trkpt>
      <trkpt lat="42.9578" lon="0.87591">
        <ele>1573</ele>
        <time>2019-10-19T09:00:48Z</time>
      </trkpt>
      <trkpt lat="42.95775" lon="0.87579">
        <ele>1573</ele>
        <time>2019-10-19T09:00:54Z</time>
      </trkpt>
      <trkpt lat="42.9577" lon="0.87567">
        <ele>1572</ele>
        <time>2019-10-19T09:01:07Z</time>
      </trkpt>
      <trkpt lat="42.95766" lon="0.87555">
        <ele>1573</ele>
        <time>2019-10-19T09:01:17Z</time>
      </trkpt>
      <trkpt lat="42.95762" lon="0.87543">
        <ele>1573</ele>
        <time>2019-10-19T09:01:25Z</time>
      </trkpt>
      <trkpt lat="42.95759" lon="0.8753">
        <ele>1573</ele>
        <time>2019-10-19T09:01:36Z</time>
      </trkpt>
      <trkpt lat="42.95756" lon="0.87519">
        <ele>1575</ele>
        <time>2019-10-19T09:01:48Z</time>
      </trkpt>
      <trkpt lat="42.95755" lon="0.87505">
        <ele>1575</ele>
        <time>2019-10-19T09:01:58Z</time>
      </trkpt>
      <trkpt lat="42.95759" lon="0.87494">
        <ele>1574</ele>
        <time>2019-10-19T09:02:06Z</time>
      </trkpt>
      <trkpt lat="42.95766" lon="0.87484">
        <ele>1572</ele>
        <time>2019-10-19T09:02:18Z</time>
      </trkpt>
      <trkpt lat="42.95775" lon="0.87479">
        <ele>1572</ele>
        <time>2019-10-19T09:02:26Z</time>
      </trkpt>
      <trkpt lat="42.95778" lon="0.87466">
        <ele>1567</ele>
        <time>2019-10-19T09:02:35Z</time>
      </trkpt>
      <trkpt lat="42.95783" lon="0.87456">
        <ele>1566</ele>
        <time>2019-10-19T09:02:47Z</time>
      </trkpt>
      <trkpt lat="42.95791" lon="0.87448">
        <ele>1566</ele>
        <time>2019-10-19T09:03:02Z</time>
      </trkpt>
      <trkpt lat="42.95794" lon="0.87435">
        <ele>1559</ele>
        <time>2019-10-19T09:03:15Z</time>
      </trkpt>
      <trkpt lat="42.95797" lon="0.87423">
        <ele>1554</ele>
        <time>2019-10-19T09:03:26Z</time>
      </trkpt>
      <trkpt lat="42.958" lon="0.87411">
        <ele>1553</ele>
        <time>2019-10-19T09:03:38Z</time>
      </trkpt>
      <trkpt lat="42.95806" lon="0.87401">
        <ele>1548</ele>
        <time>2019-10-19T09:03:45Z</time>
      </trkpt>
      <trkpt lat="42.95812" lon="0.87391">
        <ele>1544</ele>
        <time>2019-10-19T09:03:54Z</time>
      </trkpt>
      <trkpt lat="42.95814" lon="0.87378">
        <ele>1541</ele>
        <time>2019-10-19T09:04:06Z</time>
      </trkpt>
      <trkpt lat="42.95819" lon="0.87368">
        <ele>1539</ele>
        <time>2019-10-19T09:04:18Z</time>
      </trkpt>
      <trkpt lat="42.95819" lon="0.87355">
        <ele>1535</ele>
        <time>2019-10-19T09:04:31Z</time>
      </trkpt>
      <trkpt lat="42.95816" lon="0.87342">
        <ele>1531</ele>
        <time>2019-10-19T09:04:41Z</time>
      </trkpt>
      <trkpt lat="42.9582" lon="0.8733">
        <ele>1529</ele>
        <time>2019-10-19T09:04:50Z</time>
      </trkpt>
      <trkpt lat="42.9582" lon="0.87318">
        <ele>1529</ele>
        <time>2019-10-19T09:05:03Z</time>
      </trkpt>
      <trkpt lat="42.95821" lon="0.87306">
        <ele>1526</ele>
        <time>2019-10-19T09:05:15Z</time>
      </trkpt>
      <trkpt lat="42.95826" lon="0.87294">
        <ele>1526</ele>
        <time>2019-10-19T09:05:30Z</time>
      </trkpt>
      <trkpt lat="42.95829" lon="0.87282">
        <ele>1522</ele>
        <time>2019-10-19T09:05:45Z</time>
      </trkpt>
      <trkpt lat="42.95828" lon="0.87269">
        <ele>1519</ele>
        <time>2019-10-19T09:05:56Z</time>
      </trkpt>
      <trkpt lat="42.95824" lon="0.87258">
        <ele>1514</ele>
        <time>2019-10-19T09:06:08Z</time>
      </trkpt>
      <trkpt lat="42.95831" lon="0.8725">
        <ele>1517</ele>
        <time>2019-10-19T09:06:24Z</time>
      </trkpt>
      <trkpt lat="42.95835" lon="0.87238">
        <ele>1517</ele>
        <time>2019-10-19T09:06:36Z</time>
      </trkpt>
      <trkpt lat="42.95843" lon="0.87232">
        <ele>1519</ele>
        <time>2019-10-19T09:06:51Z</time>
      </trkpt>
      <trkpt lat="42.95849" lon="0.87223">
        <ele>1521</ele>
        <time>2019-10-19T09:07:11Z</time>
      </trkpt>
      <trkpt lat="42.95849" lon="0.8721">
        <ele>1521</ele>
        <time>2019-10-19T09:07:17Z</time>
      </trkpt>
      <trkpt lat="42.95854" lon="0.87197">
        <ele>1523</ele>
        <time>2019-10-19T09:07:33Z</time>
      </trkpt>
      <trkpt lat="42.95861" lon="0.87185">
        <ele>1526</ele>
        <time>2019-10-19T09:07:47Z</time>
      </trkpt>
      <trkpt lat="42.95865" lon="0.87174">
        <ele>1528</ele>
        <time>2019-10-19T09:07:59Z</time>
      </trkpt>
      <trkpt lat="42.95868" lon="0.87163">
        <ele>1527</ele>
        <time>2019-10-19T09:08:16Z</time>
      </trkpt>
      <trkpt lat="42.9587" lon="0.8715">
        <ele>1528</ele>
        <time>2019-10-19T09:08:23Z</time>
      </trkpt>
      <trkpt lat="42.95869" lon="0.87136">
        <ele>1524</ele>
        <time>2019-10-19T09:08:30Z</time>
      </trkpt>
      <trkpt lat="42.95874" lon="0.87125">
        <ele>1526</ele>
        <time>2019-10-19T09:08:41Z</time>
      </trkpt>
      <trkpt lat="42.95877" lon="0.87113">
        <ele>1523</ele>
        <time>2019-10-19T09:08:52Z</time>
      </trkpt>
      <trkpt lat="42.95882" lon="0.87103">
        <ele>1523</ele>
        <time>2019-10-19T09:09:00Z</time>
      </trkpt>
      <trkpt lat="42.95889" lon="0.87093">
        <ele>1522</ele>
        <time>2019-10-19T09:09:17Z</time>
      </trkpt>
      <trkpt lat="42.95897" lon="0.87084">
        <ele>1520</ele>
        <time>2019-10-19T09:09:27Z</time>
      </trkpt>
      <trkpt lat="42.95904" lon="0.87073">
        <ele>1528</ele>
        <time>2019-10-19T09:10:01Z</time>
      </trkpt>
      <trkpt lat="42.95904" lon="0.8706">
        <ele>1530</ele>
        <time>2019-10-19T09:10:25Z</time>
      </trkpt>
      <trkpt lat="42.959" lon="0.87048">
        <ele>1532</ele>
        <time>2019-10-19T09:10:39Z</time>
      </trkpt>
      <trkpt lat="42.95904" lon="0.87036">
        <ele>1532</ele>
        <time>2019-10-19T09:10:51Z</time>
      </trkpt>
      <trkpt lat="42.95901" lon="0.87024">
        <ele>1535</ele>
        <time>2019-10-19T09:11:14Z</time>
      </trkpt>
      <trkpt lat="42.95904" lon="0.87011">
        <ele>1533</ele>
        <time>2019-10-19T09:11:21Z</time>
      </trkpt>
      <trkpt lat="42.95911" lon="0.87003">
        <ele>1537</ele>
        <time>2019-10-19T09:11:36Z</time>
      </trkpt>
      <trkpt lat="42.95916" lon="0.86991">
        <ele>1537</ele>
        <time>2019-10-19T09:11:46Z</time>
      </trkpt>
      <trkpt lat="42.95925" lon="0.86986">
        <ele>1538</ele>
        <time>2019-10-19T09:11:58Z</time>
      </trkpt>
      <trkpt lat="42.95933" lon="0.8698">
        <ele>1539</ele>
        <time>2019-10-19T09:12:08Z</time>
      </trkpt>
      <trkpt lat="42.95941" lon="0.86974">
        <ele>1542</ele>
        <time>2019-10-19T09:12:21Z</time>
      </trkpt>
      <trkpt lat="42.95948" lon="0.86965">
        <ele>1540</ele>
        <time>2019-10-19T09:12:38Z</time>
      </trkpt>
      <trkpt lat="42.95954" lon="0.86955">
        <ele>1539</ele>
        <time>2019-10-19T09:12:48Z</time>
      </trkpt>
      <trkpt lat="42.95957" lon="0.86944">
        <ele>1541</ele>
        <time>2019-10-19T09:12:56Z</time>
      </trkpt>
      <trkpt lat="42.95956" lon="0.86931">
        <ele>1539</ele>
        <time>2019-10-19T09:13:07Z</time>
      </trkpt>
      <trkpt lat="42.95953" lon="0.86919">
        <ele>1541</ele>
        <time>2019-10-19T09:13:17Z</time>
      </trkpt>
      <trkpt lat="42.95954" lon="0.86906">
        <ele>1541</ele>
        <time>2019-10-19T09:13:26Z</time>
      </trkpt>
      <trkpt lat="42.95951" lon="0.86894">
        <ele>1540</ele>
        <time>2019-10-19T09:13:33Z</time>
      </trkpt>
      <trkpt lat="42.95951" lon="0.8688">
        <ele>1542</ele>
        <time>2019-10-19T09:13:41Z</time>
      </trkpt>
      <trkpt lat="42.95949" lon="0.86867">
        <ele>1541</ele>
        <time>2019-10-19T09:13:50Z</time>
      </trkpt>
      <trkpt lat="42.95948" lon="0.86854">
        <ele>1540</ele>
        <time>2019-10-19T09:13:59Z</time>
      </trkpt>
      <trkpt lat="42.95946" lon="0.86841">
        <ele>1537</ele>
        <time>2019-10-19T09:14:06Z</time>
      </trkpt>
      <trkpt lat="42.95943" lon="0.86829">
        <ele>1541</ele>
        <time>2019-10-19T09:14:16Z</time>
      </trkpt>
      <trkpt lat="42.9594" lon="0.86817">
        <ele>1547</ele>
        <time>2019-10-19T09:14:27Z</time>
      </trkpt>
      <trkpt lat="42.95937" lon="0.86806">
        <ele>1550</ele>
        <time>2019-10-19T09:14:39Z</time>
      </trkpt>
      <trkpt lat="42.95937" lon="0.86793">
        <ele>1550</ele>
        <time>2019-10-19T09:14:46Z</time>
      </trkpt>
      <trkpt lat="42.95933" lon="0.86782">
        <ele>1554</ele>
        <time>2019-10-19T09:14:57Z</time>
      </trkpt>
      <trkpt lat="42.95931" lon="0.86769">
        <ele>1552</ele>
        <time>2019-10-19T09:15:06Z</time>
      </trkpt>
      <trkpt lat="42.95928" lon="0.86757">
        <ele>1550</ele>
        <time>2019-10-19T09:15:16Z</time>
      </trkpt>
      <trkpt lat="42.95927" lon="0.86743">
        <ele>1548</ele>
        <time>2019-10-19T09:15:24Z</time>
      </trkpt>
      <trkpt lat="42.95924" lon="0.8673">
        <ele>1549</ele>
        <time>2019-10-19T09:15:34Z</time>
      </trkpt>
      <trkpt lat="42.95921" lon="0.86717">
        <ele>1551</ele>
        <time>2019-10-19T09:15:45Z</time>
      </trkpt>
      <trkpt lat="42.9592" lon="0.86704">
        <ele>1549</ele>
        <time>2019-10-19T09:15:51Z</time>
      </trkpt>
      <trkpt lat="42.95916" lon="0.86692">
        <ele>1550</ele>
        <time>2019-10-19T09:15:59Z</time>
      </trkpt>
      <trkpt lat="42.95914" lon="0.8668">
        <ele>1548</ele>
        <time>2019-10-19T09:16:09Z</time>
      </trkpt>
      <trkpt lat="42.95911" lon="0.86668">
        <ele>1549</ele>
        <time>2019-10-19T09:16:17Z</time>
      </trkpt>
      <trkpt lat="42.95904" lon="0.86658">
        <ele>1551</ele>
        <time>2019-10-19T09:16:26Z</time>
      </trkpt>
      <trkpt lat="42.95898" lon="0.86649">
        <ele>1554</ele>
        <time>2019-10-19T09:16:33Z</time>
      </trkpt>
      <trkpt lat="42.95896" lon="0.86636">
        <ele>1555</ele>
        <time>2019-10-19T09:16:43Z</time>
      </trkpt>
      <trkpt lat="42.95894" lon="0.86623">
        <ele>1556</ele>
        <time>2019-10-19T09:16:50Z</time>
      </trkpt>
      <trkpt lat="42.95889" lon="0.86614">
        <ele>1557</ele>
        <time>2019-10-19T09:17:00Z</time>
      </trkpt>
      <trkpt lat="42.95883" lon="0.86603">
        <ele>1557</ele>
        <time>2019-10-19T09:17:10Z</time>
      </trkpt>
      <trkpt lat="42.95882" lon="0.8659">
        <ele>1558</ele>
        <time>2019-10-19T09:17:20Z</time>
      </trkpt>
      <trkpt lat="42.95878" lon="0.86578">
        <ele>1562</ele>
        <time>2019-10-19T09:17:31Z</time>
      </trkpt>
      <trkpt lat="42.95871" lon="0.8657">
        <ele>1567</ele>
        <time>2019-10-19T09:17:41Z</time>
      </trkpt>
      <trkpt lat="42.95867" lon="0.86558">
        <ele>1568</ele>
        <time>2019-10-19T09:17:53Z</time>
      </trkpt>
      <trkpt lat="42.95863" lon="0.86546">
        <ele>1570</ele>
        <time>2019-10-19T09:18:03Z</time>
      </trkpt>
      <trkpt lat="42.95858" lon="0.86535">
        <ele>1570</ele>
        <time>2019-10-19T09:18:13Z</time>
      </trkpt>
      <trkpt lat="42.95855" lon="0.86523">
        <ele>1570</ele>
        <time>2019-10-19T09:18:22Z</time>
      </trkpt>
      <trkpt lat="42.95854" lon="0.8651">
        <ele>1573</ele>
        <time>2019-10-19T09:18:32Z</time>
      </trkpt>
      <trkpt lat="42.9585" lon="0.86499">
        <ele>1572</ele>
        <time>2019-10-19T09:18:41Z</time>
      </trkpt>
      <trkpt lat="42.95848" lon="0.86487">
        <ele>1572</ele>
        <time>2019-10-19T09:18:47Z</time>
      </trkpt>
      <trkpt lat="42.95846" lon="0.86475">
        <ele>1572</ele>
        <time>2019-10-19T09:18:58Z</time>
      </trkpt>
      <trkpt lat="42.95844" lon="0.86462">
        <ele>1572</ele>
        <time>2019-10-19T09:19:07Z</time>
      </trkpt>
      <trkpt lat="42.95845" lon="0.86449">
        <ele>1574</ele>
        <time>2019-10-19T09:19:15Z</time>
      </trkpt>
      <trkpt lat="42.9584" lon="0.86437">
        <ele>1572</ele>
        <time>2019-10-19T09:19:23Z</time>
      </trkpt>
      <trkpt lat="42.95837" lon="0.86424">
        <ele>1571</ele>
        <time>2019-10-19T09:19:31Z</time>
      </trkpt>
      <trkpt lat="42.95834" lon="0.86411">
        <ele>1572</ele>
        <time>2019-10-19T09:19:40Z</time>
      </trkpt>
      <trkpt lat="42.9583" lon="0.864">
        <ele>1572</ele>
        <time>2019-10-19T09:19:49Z</time>
      </trkpt>
      <trkpt lat="42.95829" lon="0.86386">
        <ele>1573</ele>
        <time>2019-10-19T09:19:57Z</time>
      </trkpt>
      <trkpt lat="42.95826" lon="0.86374">
        <ele>1572</ele>
        <time>2019-10-19T09:20:06Z</time>
      </trkpt>
      <trkpt lat="42.95826" lon="0.86361">
        <ele>1571</ele>
        <time>2019-10-19T09:20:13Z</time>
      </trkpt>
      <trkpt lat="42.95825" lon="0.86347">
        <ele>1572</ele>
        <time>2019-10-19T09:20:22Z</time>
      </trkpt>
      <trkpt lat="42.95825" lon="0.86334">
        <ele>1569</ele>
        <time>2019-10-19T09:20:29Z</time>
      </trkpt>
      <trkpt lat="42.95821" lon="0.86323">
        <ele>1568</ele>
        <time>2019-10-19T09:20:36Z</time>
      </trkpt>
      <trkpt lat="42.95819" lon="0.8631">
        <ele>1567</ele>
        <time>2019-10-19T09:20:43Z</time>
      </trkpt>
      <trkpt lat="42.95817" lon="0.86298">
        <ele>1564</ele>
        <time>2019-10-19T09:20:50Z</time>
      </trkpt>
      <trkpt lat="42.95818" lon="0.86285">
        <ele>1566</ele>
        <time>2019-10-19T09:20:57Z</time>
      </trkpt>
      <trkpt lat="42.95818" lon="0.86272">
        <ele>1571</ele>
        <time>2019-10-19T09:21:05Z</time>
      </trkpt>
      <trkpt lat="42.95814" lon="0.86261">
        <ele>1572</ele>
        <time>2019-10-19T09:21:13Z</time>
      </trkpt>
      <trkpt lat="42.95812" lon="0.86249">
        <ele>1572</ele>
        <time>2019-10-19T09:21:22Z</time>
      </trkpt>
      <trkpt lat="42.95812" lon="0.86236">
        <ele>1570</ele>
        <time>2019-10-19T09:21:31Z</time>
      </trkpt>
      <trkpt lat="42.95813" lon="0.86223">
        <ele>1566</ele>
        <time>2019-10-19T09:21:41Z</time>
      </trkpt>
      <trkpt lat="42.95812" lon="0.8621">
        <ele>1566</ele>
        <time>2019-10-19T09:21:50Z</time>
      </trkpt>
      <trkpt lat="42.95811" lon="0.86198">
        <ele>1569</ele>
        <time>2019-10-19T09:21:58Z</time>
      </trkpt>
      <trkpt lat="42.95805" lon="0.86186">
        <ele>1565</ele>
        <time>2019-10-19T09:22:06Z</time>
      </trkpt>
      <trkpt lat="42.95798" lon="0.86176">
        <ele>1566</ele>
        <time>2019-10-19T09:22:14Z</time>
      </trkpt>
      <trkpt lat="42.95794" lon="0.86165">
        <ele>1565</ele>
        <time>2019-10-19T09:22:22Z</time>
      </trkpt>
      <trkpt lat="42.9579" lon="0.86152">
        <ele>1563</ele>
        <time>2019-10-19T09:22:32Z</time>
      </trkpt>
      <trkpt lat="42.9579" lon="0.86138">
        <ele>1567</ele>
        <time>2019-10-19T09:22:39Z</time>
      </trkpt>
      <trkpt lat="42.95789" lon="0.86125">
        <ele>1565</ele>
        <time>2019-10-19T09:22:47Z</time>
      </trkpt>
      <trkpt lat="42.95789" lon="0.86113">
        <ele>1566</ele>
        <time>2019-10-19T09:22:55Z</time>
      </trkpt>
      <trkpt lat="42.9579" lon="0.861">
        <ele>1569</ele>
        <time>2019-10-19T09:23:03Z</time>
      </trkpt>
      <trkpt lat="42.95791" lon="0.86087">
        <ele>1568</ele>
        <time>2019-10-19T09:24:27Z</time>
      </trkpt>
      <trkpt lat="42.95792" lon="0.86074">
        <ele>1571</ele>
        <time>2019-10-19T09:25:44Z</time>
      </trkpt>
      <trkpt lat="42.95792" lon="0.86061">
        <ele>1572</ele>
        <time>2019-10-19T09:25:57Z</time>
      </trkpt>
      <trkpt lat="42.95787" lon="0.86051">
        <ele>1566</ele>
        <time>2019-10-19T09:26:37Z</time>
      </trkpt>
      <trkpt lat="42.95785" lon="0.86038">
        <ele>1564</ele>
        <time>2019-10-19T09:27:01Z</time>
      </trkpt>
      <trkpt lat="42.95778" lon="0.86028">
        <ele>1561</ele>
        <time>2019-10-19T09:27:10Z</time>
      </trkpt>
      <trkpt lat="42.95774" lon="0.86017">
        <ele>1561</ele>
        <time>2019-10-19T09:27:18Z</time>
      </trkpt>
      <trkpt lat="42.95773" lon="0.86004">
        <ele>1558</ele>
        <time>2019-10-19T09:27:28Z</time>
      </trkpt>
      <trkpt lat="42.9577" lon="0.85991">
        <ele>1554</ele>
        <time>2019-10-19T09:27:38Z</time>
      </trkpt>
      <trkpt lat="42.95764" lon="0.85981">
        <ele>1553</ele>
        <time>2019-10-19T09:27:50Z</time>
      </trkpt>
      <trkpt lat="42.9576" lon="0.85969">
        <ele>1550</ele>
        <time>2019-10-19T09:28:05Z</time>
      </trkpt>
      <trkpt lat="42.95761" lon="0.85956">
        <ele>1549</ele>
        <time>2019-10-19T09:28:14Z</time>
      </trkpt>
      <trkpt lat="42.95757" lon="0.85944">
        <ele>1547</ele>
        <time>2019-10-19T09:29:17Z</time>
      </trkpt>
      <trkpt lat="42.95751" lon="0.85934">
        <ele>1544</ele>
        <time>2019-10-19T09:29:27Z</time>
      </trkpt>
      <trkpt lat="42.95746" lon="0.85923">
        <ele>1539</ele>
        <time>2019-10-19T09:29:40Z</time>
      </trkpt>
      <trkpt lat="42.9574" lon="0.85913">
        <ele>1532</ele>
        <time>2019-10-19T09:29:56Z</time>
      </trkpt>
      <trkpt lat="42.95734" lon="0.85902">
        <ele>1532</ele>
        <time>2019-10-19T09:30:08Z</time>
      </trkpt>
      <trkpt lat="42.95728" lon="0.85893">
        <ele>1530</ele>
        <time>2019-10-19T09:30:20Z</time>
      </trkpt>
      <trkpt lat="42.95726" lon="0.8588">
        <ele>1524</ele>
        <time>2019-10-19T09:30:31Z</time>
      </trkpt>
      <trkpt lat="42.95721" lon="0.85869">
        <ele>1520</ele>
        <time>2019-10-19T09:30:38Z</time>
      </trkpt>
      <trkpt lat="42.9572" lon="0.85856">
        <ele>1519</ele>
        <time>2019-10-19T09:30:47Z</time>
      </trkpt>
      <trkpt lat="42.95714" lon="0.85846">
        <ele>1516</ele>
        <time>2019-10-19T09:30:59Z</time>
      </trkpt>
      <trkpt lat="42.95709" lon="0.85835">
        <ele>1513</ele>
        <time>2019-10-19T09:31:10Z</time>
      </trkpt>
      <trkpt lat="42.95706" lon="0.85823">
        <ele>1514</ele>
        <time>2019-10-19T09:31:27Z</time>
      </trkpt>
      <trkpt lat="42.957" lon="0.85813">
        <ele>1511</ele>
        <time>2019-10-19T09:31:37Z</time>
      </trkpt>
      <trkpt lat="42.95694" lon="0.85803">
        <ele>1509</ele>
        <time>2019-10-19T09:31:44Z</time>
      </trkpt>
      <trkpt lat="42.9569" lon="0.85792">
        <ele>1508</ele>
        <time>2019-10-19T09:31:55Z</time>
      </trkpt>
      <trkpt lat="42.95686" lon="0.8578">
        <ele>1508</ele>
        <time>2019-10-19T09:32:03Z</time>
      </trkpt>
      <trkpt lat="42.95684" lon="0.85767">
        <ele>1507</ele>
        <time>2019-10-19T09:32:11Z</time>
      </trkpt>
      <trkpt lat="42.95678" lon="0.85756">
        <ele>1505</ele>
        <time>2019-10-19T09:32:20Z</time>
      </trkpt>
      <trkpt lat="42.9567" lon="0.85749">
        <ele>1505</ele>
        <time>2019-10-19T09:32:30Z</time>
      </trkpt>
      <trkpt lat="42.95666" lon="0.85737">
        <ele>1505</ele>
        <time>2019-10-19T09:32:40Z</time>
      </trkpt>
      <trkpt lat="42.95662" lon="0.85724">
        <ele>1503</ele>
        <time>2019-10-19T09:32:49Z</time>
      </trkpt>
      <trkpt lat="42.95654" lon="0.85715">
        <ele>1501</ele>
        <time>2019-10-19T09:33:01Z</time>
      </trkpt>
      <trkpt lat="42.9565" lon="0.85704">
        <ele>1497</ele>
        <time>2019-10-19T09:33:12Z</time>
      </trkpt>
      <trkpt lat="42.95643" lon="0.85696">
        <ele>1497</ele>
        <time>2019-10-19T09:33:27Z</time>
      </trkpt>
      <trkpt lat="42.95635" lon="0.85689">
        <ele>1501</ele>
        <time>2019-10-19T09:34:09Z</time>
      </trkpt>
      <trkpt lat="42.95631" lon="0.85677">
        <ele>1501</ele>
        <time>2019-10-19T09:34:20Z</time>
      </trkpt>
      <trkpt lat="42.95625" lon="0.85668">
        <ele>1501</ele>
        <time>2019-10-19T09:34:29Z</time>
      </trkpt>
      <trkpt lat="42.95621" lon="0.85656">
        <ele>1500</ele>
        <time>2019-10-19T09:34:37Z</time>
      </trkpt>
      <trkpt lat="42.95616" lon="0.85645">
        <ele>1503</ele>
        <time>2019-10-19T09:34:48Z</time>
      </trkpt>
      <trkpt lat="42.95613" lon="0.85633">
        <ele>1502</ele>
        <time>2019-10-19T09:35:00Z</time>
      </trkpt>
      <trkpt lat="42.95607" lon="0.85622">
        <ele>1508</ele>
        <time>2019-10-19T09:35:15Z</time>
      </trkpt>
      <trkpt lat="42.95603" lon="0.8561">
        <ele>1511</ele>
        <time>2019-10-19T09:35:32Z</time>
      </trkpt>
      <trkpt lat="42.95596" lon="0.856">
        <ele>1514</ele>
        <time>2019-10-19T09:35:47Z</time>
      </trkpt>
      <trkpt lat="42.95589" lon="0.85592">
        <ele>1517</ele>
        <time>2019-10-19T09:36:04Z</time>
      </trkpt>
      <trkpt lat="42.95582" lon="0.85584">
        <ele>1516</ele>
        <time>2019-10-19T09:36:20Z</time>
      </trkpt>
      <trkpt lat="42.95579" lon="0.85571">
        <ele>1520</ele>
        <time>2019-10-19T09:36:38Z</time>
      </trkpt>
      <trkpt lat="42.95577" lon="0.85559">
        <ele>1526</ele>
        <time>2019-10-19T09:37:01Z</time>
      </trkpt>
      <trkpt lat="42.95571" lon="0.85548">
        <ele>1529</ele>
        <time>2019-10-19T09:37:17Z</time>
      </trkpt>
      <trkpt lat="42.95571" lon="0.85535">
        <ele>1534</ele>
        <time>2019-10-19T09:37:32Z</time>
      </trkpt>
      <trkpt lat="42.95574" lon="0.85524">
        <ele>1534</ele>
        <time>2019-10-19T09:38:21Z</time>
      </trkpt>
      <trkpt lat="42.95582" lon="0.85516">
        <ele>1535</ele>
        <time>2019-10-19T09:38:31Z</time>
      </trkpt>
      <trkpt lat="42.95585" lon="0.85504">
        <ele>1539</ele>
        <time>2019-10-19T09:38:43Z</time>
      </trkpt>
      <trkpt lat="42.95589" lon="0.85492">
        <ele>1543</ele>
        <time>2019-10-19T09:39:04Z</time>
      </trkpt>
      <trkpt lat="42.95596" lon="0.85483">
        <ele>1548</ele>
        <time>2019-10-19T09:39:18Z</time>
      </trkpt>
      <trkpt lat="42.95597" lon="0.8547">
        <ele>1547</ele>
        <time>2019-10-19T09:39:44Z</time>
      </trkpt>
      <trkpt lat="42.95603" lon="0.8546">
        <ele>1553</ele>
        <time>2019-10-19T09:39:55Z</time>
      </trkpt>
      <trkpt lat="42.95606" lon="0.85447">
        <ele>1552</ele>
        <time>2019-10-19T09:48:30Z</time>
      </trkpt>
      <trkpt lat="42.95602" lon="0.85435">
        <ele>1551</ele>
        <time>2019-10-19T09:48:38Z</time>
      </trkpt>
      <trkpt lat="42.95597" lon="0.85425">
        <ele>1549</ele>
        <time>2019-10-19T09:48:49Z</time>
      </trkpt>
      <trkpt lat="42.95593" lon="0.85413">
        <ele>1546</ele>
        <time>2019-10-19T09:49:01Z</time>
      </trkpt>
      <trkpt lat="42.95587" lon="0.85403">
        <ele>1547</ele>
        <time>2019-10-19T09:49:16Z</time>
      </trkpt>
      <trkpt lat="42.95586" lon="0.8539">
        <ele>1542</ele>
        <time>2019-10-19T09:49:33Z</time>
      </trkpt>
      <trkpt lat="42.95581" lon="0.85379">
        <ele>1538</ele>
        <time>2019-10-19T09:49:44Z</time>
      </trkpt>
      <trkpt lat="42.95575" lon="0.85369">
        <ele>1534</ele>
        <time>2019-10-19T09:49:57Z</time>
      </trkpt>
      <trkpt lat="42.9557" lon="0.85358">
        <ele>1530</ele>
        <time>2019-10-19T09:50:09Z</time>
      </trkpt>
      <trkpt lat="42.95567" lon="0.85345">
        <ele>1526</ele>
        <time>2019-10-19T09:50:19Z</time>
      </trkpt>
      <trkpt lat="42.95568" lon="0.85333">
        <ele>1525</ele>
        <time>2019-10-19T09:50:27Z</time>
      </trkpt>
      <trkpt lat="42.95569" lon="0.8532">
        <ele>1529</ele>
        <time>2019-10-19T09:50:39Z</time>
      </trkpt>
      <trkpt lat="42.95565" lon="0.85309">
        <ele>1525</ele>
        <time>2019-10-19T09:50:48Z</time>
      </trkpt>
      <trkpt lat="42.95568" lon="0.85297">
        <ele>1521</ele>
        <time>2019-10-19T09:50:57Z</time>
      </trkpt>
      <trkpt lat="42.95567" lon="0.85284">
        <ele>1519</ele>
        <time>2019-10-19T09:51:04Z</time>
      </trkpt>
      <trkpt lat="42.95569" lon="0.85271">
        <ele>1521</ele>
        <time>2019-10-19T09:51:12Z</time>
      </trkpt>
      <trkpt lat="42.95569" lon="0.85258">
        <ele>1525</ele>
        <time>2019-10-19T09:51:20Z</time>
      </trkpt>
      <trkpt lat="42.95566" lon="0.85247">
        <ele>1520</ele>
        <time>2019-10-19T09:51:28Z</time>
      </trkpt>
      <trkpt lat="42.95566" lon="0.85234">
        <ele>1519</ele>
        <time>2019-10-19T09:51:37Z</time>
      </trkpt>
      <trkpt lat="42.95566" lon="0.85222">
        <ele>1517</ele>
        <time>2019-10-19T09:51:45Z</time>
      </trkpt>
      <trkpt lat="42.95568" lon="0.85209">
        <ele>1513</ele>
        <time>2019-10-19T09:51:54Z</time>
      </trkpt>
      <trkpt lat="42.95571" lon="0.85197">
        <ele>1512</ele>
        <time>2019-10-19T09:52:01Z</time>
      </trkpt>
      <trkpt lat="42.95572" lon="0.85184">
        <ele>1512</ele>
        <time>2019-10-19T09:52:11Z</time>
      </trkpt>
      <trkpt lat="42.9557" lon="0.85171">
        <ele>1506</ele>
        <time>2019-10-19T09:52:32Z</time>
      </trkpt>
      <trkpt lat="42.95565" lon="0.8516">
        <ele>1502</ele>
        <time>2019-10-19T09:52:45Z</time>
      </trkpt>
      <trkpt lat="42.9556" lon="0.8515">
        <ele>1500</ele>
        <time>2019-10-19T09:52:58Z</time>
      </trkpt>
      <trkpt lat="42.95569" lon="0.85149">
        <ele>1495</ele>
        <time>2019-10-19T09:53:34Z</time>
      </trkpt>
      <trkpt lat="42.95578" lon="0.85147">
        <ele>1494</ele>
        <time>2019-10-19T09:53:47Z</time>
      </trkpt>
      <trkpt lat="42.95587" lon="0.85149">
        <ele>1495</ele>
        <time>2019-10-19T09:53:55Z</time>
      </trkpt>
      <trkpt lat="42.95594" lon="0.85138">
        <ele>1493</ele>
        <time>2019-10-19T09:54:01Z</time>
      </trkpt>
      <trkpt lat="42.95591" lon="0.85127">
        <ele>1493</ele>
        <time>2019-10-19T09:54:06Z</time>
      </trkpt>
      <trkpt lat="42.95588" lon="0.85113">
        <ele>1492</ele>
        <time>2019-10-19T09:54:15Z</time>
      </trkpt>
      <trkpt lat="42.9559" lon="0.85101">
        <ele>1492</ele>
        <time>2019-10-19T09:54:26Z</time>
      </trkpt>
      <trkpt lat="42.95595" lon="0.8509">
        <ele>1488</ele>
        <time>2019-10-19T09:54:37Z</time>
      </trkpt>
      <trkpt lat="42.95603" lon="0.85081">
        <ele>1487</ele>
        <time>2019-10-19T09:54:45Z</time>
      </trkpt>
      <trkpt lat="42.95606" lon="0.85068">
        <ele>1489</ele>
        <time>2019-10-19T09:54:52Z</time>
      </trkpt>
      <trkpt lat="42.9561" lon="0.85055">
        <ele>1490</ele>
        <time>2019-10-19T09:54:59Z</time>
      </trkpt>
      <trkpt lat="42.95613" lon="0.85043">
        <ele>1489</ele>
        <time>2019-10-19T09:55:08Z</time>
      </trkpt>
      <trkpt lat="42.95616" lon="0.85031">
        <ele>1486</ele>
        <time>2019-10-19T09:55:16Z</time>
      </trkpt>
      <trkpt lat="42.9562" lon="0.85019">
        <ele>1485</ele>
        <time>2019-10-19T09:55:23Z</time>
      </trkpt>
      <trkpt lat="42.95624" lon="0.85009">
        <ele>1486</ele>
        <time>2019-10-19T09:55:30Z</time>
      </trkpt>
      <trkpt lat="42.95627" lon="0.84996">
        <ele>1487</ele>
        <time>2019-10-19T09:55:39Z</time>
      </trkpt>
      <trkpt lat="42.95627" lon="0.84982">
        <ele>1488</ele>
        <time>2019-10-19T09:55:51Z</time>
      </trkpt>
      <trkpt lat="42.95626" lon="0.84969">
        <ele>1488</ele>
        <time>2019-10-19T09:56:01Z</time>
      </trkpt>
      <trkpt lat="42.95628" lon="0.84956">
        <ele>1491</ele>
        <time>2019-10-19T09:56:08Z</time>
      </trkpt>
      <trkpt lat="42.9563" lon="0.84944">
        <ele>1488</ele>
        <time>2019-10-19T09:56:18Z</time>
      </trkpt>
      <trkpt lat="42.95632" lon="0.84932">
        <ele>1489</ele>
        <time>2019-10-19T09:56:24Z</time>
      </trkpt>
      <trkpt lat="42.95635" lon="0.8492">
        <ele>1487</ele>
        <time>2019-10-19T09:56:33Z</time>
      </trkpt>
      <trkpt lat="42.95636" lon="0.84907">
        <ele>1487</ele>
        <time>2019-10-19T09:56:46Z</time>
      </trkpt>
      <trkpt lat="42.95642" lon="0.84898">
        <ele>1483</ele>
        <time>2019-10-19T09:56:59Z</time>
      </trkpt>
      <trkpt lat="42.95646" lon="0.84887">
        <ele>1479</ele>
        <time>2019-10-19T09:57:10Z</time>
      </trkpt>
      <trkpt lat="42.95648" lon="0.84875">
        <ele>1477</ele>
        <time>2019-10-19T09:57:31Z</time>
      </trkpt>
      <trkpt lat="42.95653" lon="0.84861">
        <ele>1477</ele>
        <time>2019-10-19T09:58:55Z</time>
      </trkpt>
      <trkpt lat="42.95656" lon="0.84847">
        <ele>1477</ele>
        <time>2019-10-19T09:59:08Z</time>
      </trkpt>
      <trkpt lat="42.95659" lon="0.84835">
        <ele>1479</ele>
        <time>2019-10-19T09:59:18Z</time>
      </trkpt>
      <trkpt lat="42.95659" lon="0.84822">
        <ele>1481</ele>
        <time>2019-10-19T09:59:52Z</time>
      </trkpt>
      <trkpt lat="42.95666" lon="0.84808">
        <ele>1485</ele>
        <time>2019-10-19T10:00:00Z</time>
      </trkpt>
      <trkpt lat="42.95669" lon="0.84797">
        <ele>1485</ele>
        <time>2019-10-19T10:00:09Z</time>
      </trkpt>
      <trkpt lat="42.95668" lon="0.84784">
        <ele>1489</ele>
        <time>2019-10-19T10:00:18Z</time>
      </trkpt>
      <trkpt lat="42.95666" lon="0.84771">
        <ele>1495</ele>
        <time>2019-10-19T10:00:29Z</time>
      </trkpt>
      <trkpt lat="42.95665" lon="0.84758">
        <ele>1497</ele>
        <time>2019-10-19T10:00:40Z</time>
      </trkpt>
      <trkpt lat="42.95662" lon="0.84746">
        <ele>1497</ele>
        <time>2019-10-19T10:00:49Z</time>
      </trkpt>
      <trkpt lat="42.95657" lon="0.84736">
        <ele>1496</ele>
        <time>2019-10-19T10:01:03Z</time>
      </trkpt>
      <trkpt lat="42.95655" lon="0.84723">
        <ele>1504</ele>
        <time>2019-10-19T10:01:50Z</time>
      </trkpt>
      <trkpt lat="42.95652" lon="0.8471">
        <ele>1502</ele>
        <time>2019-10-19T10:02:15Z</time>
      </trkpt>
      <trkpt lat="42.95652" lon="0.84698">
        <ele>1504</ele>
        <time>2019-10-19T10:02:29Z</time>
      </trkpt>
      <trkpt lat="42.95649" lon="0.84684">
        <ele>1502</ele>
        <time>2019-10-19T10:02:39Z</time>
      </trkpt>
      <trkpt lat="42.95647" lon="0.84672">
        <ele>1502</ele>
        <time>2019-10-19T10:02:55Z</time>
      </trkpt>
      <trkpt lat="42.95644" lon="0.8466">
        <ele>1504</ele>
        <time>2019-10-19T10:03:05Z</time>
      </trkpt>
      <trkpt lat="42.95644" lon="0.84647">
        <ele>1505</ele>
        <time>2019-10-19T10:03:15Z</time>
      </trkpt>
      <trkpt lat="42.95641" lon="0.84634">
        <ele>1502</ele>
        <time>2019-10-19T10:03:23Z</time>
      </trkpt>
      <trkpt lat="42.95644" lon="0.84622">
        <ele>1507</ele>
        <time>2019-10-19T10:03:37Z</time>
      </trkpt>
      <trkpt lat="42.95645" lon="0.84608">
        <ele>1508</ele>
        <time>2019-10-19T10:03:48Z</time>
      </trkpt>
      <trkpt lat="42.9565" lon="0.84597">
        <ele>1509</ele>
        <time>2019-10-19T10:04:03Z</time>
      </trkpt>
      <trkpt lat="42.95651" lon="0.84584">
        <ele>1511</ele>
        <time>2019-10-19T10:04:14Z</time>
      </trkpt>
      <trkpt lat="42.95652" lon="0.84571">
        <ele>1511</ele>
        <time>2019-10-19T10:04:23Z</time>
      </trkpt>
      <trkpt lat="42.95649" lon="0.84559">
        <ele>1508</ele>
        <time>2019-10-19T10:04:34Z</time>
      </trkpt>
      <trkpt lat="42.95645" lon="0.84548">
        <ele>1512</ele>
        <time>2019-10-19T10:04:47Z</time>
      </trkpt>
      <trkpt lat="42.95648" lon="0.84536">
        <ele>1515</ele>
        <time>2019-10-19T10:04:54Z</time>
      </trkpt>
      <trkpt lat="42.9565" lon="0.84523">
        <ele>1516</ele>
        <time>2019-10-19T10:05:02Z</time>
      </trkpt>
      <trkpt lat="42.95648" lon="0.84511">
        <ele>1516</ele>
        <time>2019-10-19T10:05:12Z</time>
      </trkpt>
      <trkpt lat="42.95648" lon="0.84497">
        <ele>1516</ele>
        <time>2019-10-19T10:05:22Z</time>
      </trkpt>
      <trkpt lat="42.9565" lon="0.84485">
        <ele>1514</ele>
        <time>2019-10-19T10:05:43Z</time>
      </trkpt>
      <trkpt lat="42.95649" lon="0.84472">
        <ele>1512</ele>
        <time>2019-10-19T10:05:49Z</time>
      </trkpt>
      <trkpt lat="42.95647" lon="0.84459">
        <ele>1512</ele>
        <time>2019-10-19T10:05:58Z</time>
      </trkpt>
      <trkpt lat="42.95649" lon="0.84441">
        <ele>1518</ele>
        <time>2019-10-19T10:06:19Z</time>
      </trkpt>
      <trkpt lat="42.95653" lon="0.84424">
        <ele>1518</ele>
        <time>2019-10-19T10:07:05Z</time>
      </trkpt>
      <trkpt lat="42.95656" lon="0.84412">
        <ele>1515</ele>
        <time>2019-10-19T10:07:12Z</time>
      </trkpt>
      <trkpt lat="42.95662" lon="0.84402">
        <ele>1516</ele>
        <time>2019-10-19T10:07:29Z</time>
      </trkpt>
      <trkpt lat="42.95658" lon="0.8439">
        <ele>1510</ele>
        <time>2019-10-19T10:07:59Z</time>
      </trkpt>
      <trkpt lat="42.95662" lon="0.84379">
        <ele>1508</ele>
        <time>2019-10-19T10:08:10Z</time>
      </trkpt>
      <trkpt lat="42.95666" lon="0.84367">
        <ele>1512</ele>
        <time>2019-10-19T10:08:21Z</time>
      </trkpt>
      <trkpt lat="42.95673" lon="0.84357">
        <ele>1513</ele>
        <time>2019-10-19T10:08:31Z</time>
      </trkpt>
      <trkpt lat="42.9568" lon="0.84346">
        <ele>1515</ele>
        <time>2019-10-19T10:08:39Z</time>
      </trkpt>
      <trkpt lat="42.95683" lon="0.84335">
        <ele>1512</ele>
        <time>2019-10-19T10:08:46Z</time>
      </trkpt>
      <trkpt lat="42.95691" lon="0.84327">
        <ele>1511</ele>
        <time>2019-10-19T10:08:54Z</time>
      </trkpt>
      <trkpt lat="42.95695" lon="0.84315">
        <ele>1513</ele>
        <time>2019-10-19T10:09:02Z</time>
      </trkpt>
      <trkpt lat="42.95701" lon="0.84305">
        <ele>1511</ele>
        <time>2019-10-19T10:09:09Z</time>
      </trkpt>
      <trkpt lat="42.95705" lon="0.84294">
        <ele>1512</ele>
        <time>2019-10-19T10:09:16Z</time>
      </trkpt>
      <trkpt lat="42.95699" lon="0.84283">
        <ele>1506</ele>
        <time>2019-10-19T10:09:23Z</time>
      </trkpt>
      <trkpt lat="42.95706" lon="0.84273">
        <ele>1504</ele>
        <time>2019-10-19T10:09:33Z</time>
      </trkpt>
      <trkpt lat="42.95714" lon="0.84268">
        <ele>1501</ele>
        <time>2019-10-19T10:09:41Z</time>
      </trkpt>
      <trkpt lat="42.95723" lon="0.84263">
        <ele>1500</ele>
        <time>2019-10-19T10:09:53Z</time>
      </trkpt>
      <trkpt lat="42.95732" lon="0.84261">
        <ele>1502</ele>
        <time>2019-10-19T10:11:29Z</time>
      </trkpt>
      <trkpt lat="42.95741" lon="0.8426">
        <ele>1499</ele>
        <time>2019-10-19T10:11:35Z</time>
      </trkpt>
      <trkpt lat="42.9575" lon="0.84267">
        <ele>1499</ele>
        <time>2019-10-19T10:11:44Z</time>
      </trkpt>
      <trkpt lat="42.95757" lon="0.84273">
        <ele>1504</ele>
        <time>2019-10-19T10:11:54Z</time>
      </trkpt>
      <trkpt lat="42.95763" lon="0.84283">
        <ele>1509</ele>
        <time>2019-10-19T10:12:00Z</time>
      </trkpt>
      <trkpt lat="42.95773" lon="0.84284">
        <ele>1509</ele>
        <time>2019-10-19T10:12:12Z</time>
      </trkpt>
      <trkpt lat="42.95782" lon="0.8428">
        <ele>1512</ele>
        <time>2019-10-19T10:12:23Z</time>
      </trkpt>
      <trkpt lat="42.95783" lon="0.84268">
        <ele>1512</ele>
        <time>2019-10-19T10:12:37Z</time>
      </trkpt>
      <trkpt lat="42.9579" lon="0.8426">
        <ele>1514</ele>
        <time>2019-10-19T10:12:48Z</time>
      </trkpt>
      <trkpt lat="42.95798" lon="0.84252">
        <ele>1514</ele>
        <time>2019-10-19T10:13:05Z</time>
      </trkpt>
      <trkpt lat="42.95802" lon="0.8424">
        <ele>1518</ele>
        <time>2019-10-19T10:13:21Z</time>
      </trkpt>
      <trkpt lat="42.95808" lon="0.84229">
        <ele>1520</ele>
        <time>2019-10-19T10:13:36Z</time>
      </trkpt>
      <trkpt lat="42.95813" lon="0.84218">
        <ele>1524</ele>
        <time>2019-10-19T10:13:49Z</time>
      </trkpt>
      <trkpt lat="42.95809" lon="0.84206">
        <ele>1528</ele>
        <time>2019-10-19T10:14:03Z</time>
      </trkpt>
      <trkpt lat="42.95812" lon="0.84193">
        <ele>1532</ele>
        <time>2019-10-19T10:14:16Z</time>
      </trkpt>
      <trkpt lat="42.95816" lon="0.84181">
        <ele>1530</ele>
        <time>2019-10-19T10:14:26Z</time>
      </trkpt>
      <trkpt lat="42.95818" lon="0.84169">
        <ele>1535</ele>
        <time>2019-10-19T10:14:44Z</time>
      </trkpt>
      <trkpt lat="42.95816" lon="0.84156">
        <ele>1536</ele>
        <time>2019-10-19T10:14:58Z</time>
      </trkpt>
      <trkpt lat="42.95812" lon="0.84145">
        <ele>1539</ele>
        <time>2019-10-19T10:15:12Z</time>
      </trkpt>
      <trkpt lat="42.95815" lon="0.84132">
        <ele>1537</ele>
        <time>2019-10-19T10:15:46Z</time>
      </trkpt>
      <trkpt lat="42.95824" lon="0.84133">
        <ele>1545</ele>
        <time>2019-10-19T10:15:57Z</time>
      </trkpt>
      <trkpt lat="42.95833" lon="0.84132">
        <ele>1550</ele>
        <time>2019-10-19T10:16:12Z</time>
      </trkpt>
      <trkpt lat="42.95842" lon="0.84129">
        <ele>1549</ele>
        <time>2019-10-19T10:16:28Z</time>
      </trkpt>
      <trkpt lat="42.95851" lon="0.84131">
        <ele>1557</ele>
        <time>2019-10-19T10:16:42Z</time>
      </trkpt>
      <trkpt lat="42.9586" lon="0.84126">
        <ele>1556</ele>
        <time>2019-10-19T10:16:56Z</time>
      </trkpt>
      <trkpt lat="42.95869" lon="0.84122">
        <ele>1561</ele>
        <time>2019-10-19T10:17:11Z</time>
      </trkpt>
      <trkpt lat="42.95878" lon="0.84123">
        <ele>1565</ele>
        <time>2019-10-19T10:17:27Z</time>
      </trkpt>
      <trkpt lat="42.95887" lon="0.8412">
        <ele>1570</ele>
        <time>2019-10-19T10:17:49Z</time>
      </trkpt>
      <trkpt lat="42.95895" lon="0.84116">
        <ele>1571</ele>
        <time>2019-10-19T10:18:10Z</time>
      </trkpt>
      <trkpt lat="42.95904" lon="0.84114">
        <ele>1574</ele>
        <time>2019-10-19T10:18:31Z</time>
      </trkpt>
      <trkpt lat="42.95913" lon="0.84118">
        <ele>1572</ele>
        <time>2019-10-19T10:18:41Z</time>
      </trkpt>
      <trkpt lat="42.9592" lon="0.84126">
        <ele>1573</ele>
        <time>2019-10-19T10:18:52Z</time>
      </trkpt>
      <trkpt lat="42.9593" lon="0.84128">
        <ele>1578</ele>
        <time>2019-10-19T10:19:04Z</time>
      </trkpt>
      <trkpt lat="42.95937" lon="0.84135">
        <ele>1573</ele>
        <time>2019-10-19T10:19:16Z</time>
      </trkpt>
      <trkpt lat="42.95946" lon="0.84136">
        <ele>1579</ele>
        <time>2019-10-19T10:19:34Z</time>
      </trkpt>
      <trkpt lat="42.95956" lon="0.84138">
        <ele>1578</ele>
        <time>2019-10-19T10:19:47Z</time>
      </trkpt>
      <trkpt lat="42.95965" lon="0.84144">
        <ele>1582</ele>
        <time>2019-10-19T10:19:57Z</time>
      </trkpt>
      <trkpt lat="42.95973" lon="0.84151">
        <ele>1582</ele>
        <time>2019-10-19T10:20:07Z</time>
      </trkpt>
      <trkpt lat="42.95982" lon="0.84156">
        <ele>1580</ele>
        <time>2019-10-19T10:20:15Z</time>
      </trkpt>
      <trkpt lat="42.95988" lon="0.84166">
        <ele>1583</ele>
        <time>2019-10-19T10:20:25Z</time>
      </trkpt>
      <trkpt lat="42.95993" lon="0.84177">
        <ele>1584</ele>
        <time>2019-10-19T10:20:34Z</time>
      </trkpt>
      <trkpt lat="42.95998" lon="0.84187">
        <ele>1584</ele>
        <time>2019-10-19T10:20:41Z</time>
      </trkpt>
      <trkpt lat="42.96003" lon="0.84199">
        <ele>1583</ele>
        <time>2019-10-19T10:20:50Z</time>
      </trkpt>
      <trkpt lat="42.96012" lon="0.84204">
        <ele>1583</ele>
        <time>2019-10-19T10:20:57Z</time>
      </trkpt>
      <trkpt lat="42.96019" lon="0.84214">
        <ele>1583</ele>
        <time>2019-10-19T10:21:07Z</time>
      </trkpt>
      <trkpt lat="42.96025" lon="0.84225">
        <ele>1584</ele>
        <time>2019-10-19T10:21:18Z</time>
      </trkpt>
      <trkpt lat="42.9603" lon="0.84236">
        <ele>1584</ele>
        <time>2019-10-19T10:21:29Z</time>
      </trkpt>
      <trkpt lat="42.96036" lon="0.84246">
        <ele>1587</ele>
        <time>2019-10-19T10:21:41Z</time>
      </trkpt>
      <trkpt lat="42.96042" lon="0.84254">
        <ele>1583</ele>
        <time>2019-10-19T10:21:53Z</time>
      </trkpt>
      <trkpt lat="42.96048" lon="0.84266">
        <ele>1583</ele>
        <time>2019-10-19T10:22:04Z</time>
      </trkpt>
      <trkpt lat="42.96051" lon="0.84277">
        <ele>1587</ele>
        <time>2019-10-19T10:22:19Z</time>
      </trkpt>
      <trkpt lat="42.96055" lon="0.84289">
        <ele>1588</ele>
        <time>2019-10-19T10:22:30Z</time>
      </trkpt>
      <trkpt lat="42.96066" lon="0.84294">
        <ele>1592</ele>
        <time>2019-10-19T10:23:04Z</time>
      </trkpt>
      <trkpt lat="42.96073" lon="0.84302">
        <ele>1597</ele>
        <time>2019-10-19T10:23:18Z</time>
      </trkpt>
      <trkpt lat="42.9608" lon="0.84312">
        <ele>1601</ele>
        <time>2019-10-19T10:23:37Z</time>
      </trkpt>
      <trkpt lat="42.96088" lon="0.84317">
        <ele>1602</ele>
        <time>2019-10-19T10:23:52Z</time>
      </trkpt>
      <trkpt lat="42.96096" lon="0.84328">
        <ele>1603</ele>
        <time>2019-10-19T10:24:22Z</time>
      </trkpt>
      <trkpt lat="42.96104" lon="0.84336">
        <ele>1607</ele>
        <time>2019-10-19T10:24:35Z</time>
      </trkpt>
      <trkpt lat="42.96106" lon="0.84348">
        <ele>1605</ele>
        <time>2019-10-19T11:29:34Z</time>
      </trkpt>
      <trkpt lat="42.96103" lon="0.84337">
        <ele>1598</ele>
        <time>2019-10-19T11:30:22Z</time>
      </trkpt>
      <trkpt lat="42.96093" lon="0.84338">
        <ele>1607</ele>
        <time>2019-10-19T11:33:29Z</time>
      </trkpt>
      <trkpt lat="42.96104" lon="0.84339">
        <ele>1603</ele>
        <time>2019-10-19T11:36:13Z</time>
      </trkpt>
      <trkpt lat="42.96098" lon="0.84331">
        <ele>1601</ele>
        <time>2019-10-19T11:49:45Z</time>
      </trkpt>
      <trkpt lat="42.96091" lon="0.84322">
        <ele>1601</ele>
        <time>2019-10-19T11:49:55Z</time>
      </trkpt>
      <trkpt lat="42.96084" lon="0.84312">
        <ele>1601</ele>
        <time>2019-10-19T11:50:08Z</time>
      </trkpt>
      <trkpt lat="42.96076" lon="0.84306">
        <ele>1597</ele>
        <time>2019-10-19T11:50:17Z</time>
      </trkpt>
      <trkpt lat="42.96072" lon="0.84295">
        <ele>1596</ele>
        <time>2019-10-19T11:50:32Z</time>
      </trkpt>
      <trkpt lat="42.96063" lon="0.84289">
        <ele>1593</ele>
        <time>2019-10-19T11:50:52Z</time>
      </trkpt>
      <trkpt lat="42.96055" lon="0.84282">
        <ele>1591</ele>
        <time>2019-10-19T11:51:04Z</time>
      </trkpt>
      <trkpt lat="42.96049" lon="0.84272">
        <ele>1585</ele>
        <time>2019-10-19T11:51:21Z</time>
      </trkpt>
      <trkpt lat="42.96045" lon="0.84261">
        <ele>1587</ele>
        <time>2019-10-19T11:51:29Z</time>
      </trkpt>
      <trkpt lat="42.96039" lon="0.84249">
        <ele>1588</ele>
        <time>2019-10-19T11:51:41Z</time>
      </trkpt>
      <trkpt lat="42.96033" lon="0.8424">
        <ele>1586</ele>
        <time>2019-10-19T11:51:54Z</time>
      </trkpt>
      <trkpt lat="42.96028" lon="0.8423">
        <ele>1583</ele>
        <time>2019-10-19T11:52:03Z</time>
      </trkpt>
      <trkpt lat="42.96021" lon="0.84221">
        <ele>1584</ele>
        <time>2019-10-19T11:52:16Z</time>
      </trkpt>
      <trkpt lat="42.96016" lon="0.8421">
        <ele>1581</ele>
        <time>2019-10-19T11:52:25Z</time>
      </trkpt>
      <trkpt lat="42.96012" lon="0.84199">
        <ele>1581</ele>
        <time>2019-10-19T11:52:33Z</time>
      </trkpt>
      <trkpt lat="42.96004" lon="0.84191">
        <ele>1579</ele>
        <time>2019-10-19T11:52:43Z</time>
      </trkpt>
      <trkpt lat="42.95997" lon="0.84181">
        <ele>1580</ele>
        <time>2019-10-19T11:52:53Z</time>
      </trkpt>
      <trkpt lat="42.95992" lon="0.8417">
        <ele>1580</ele>
        <time>2019-10-19T11:53:01Z</time>
      </trkpt>
      <trkpt lat="42.95986" lon="0.84159">
        <ele>1579</ele>
        <time>2019-10-19T11:53:10Z</time>
      </trkpt>
      <trkpt lat="42.95977" lon="0.84153">
        <ele>1583</ele>
        <time>2019-10-19T11:53:22Z</time>
      </trkpt>
      <trkpt lat="42.95969" lon="0.84147">
        <ele>1584</ele>
        <time>2019-10-19T11:53:34Z</time>
      </trkpt>
      <trkpt lat="42.95963" lon="0.84137">
        <ele>1582</ele>
        <time>2019-10-19T11:53:44Z</time>
      </trkpt>
      <trkpt lat="42.95954" lon="0.84137">
        <ele>1584</ele>
        <time>2019-10-19T11:53:53Z</time>
      </trkpt>
      <trkpt lat="42.95944" lon="0.84135">
        <ele>1580</ele>
        <time>2019-10-19T11:54:03Z</time>
      </trkpt>
      <trkpt lat="42.95935" lon="0.84132">
        <ele>1575</ele>
        <time>2019-10-19T11:54:14Z</time>
      </trkpt>
      <trkpt lat="42.95929" lon="0.84121">
        <ele>1570</ele>
        <time>2019-10-19T11:54:24Z</time>
      </trkpt>
      <trkpt lat="42.95921" lon="0.84116">
        <ele>1567</ele>
        <time>2019-10-19T11:54:32Z</time>
      </trkpt>
      <trkpt lat="42.95911" lon="0.84113">
        <ele>1568</ele>
        <time>2019-10-19T11:54:40Z</time>
      </trkpt>
      <trkpt lat="42.95902" lon="0.84111">
        <ele>1572</ele>
        <time>2019-10-19T11:54:48Z</time>
      </trkpt>
      <trkpt lat="42.95893" lon="0.84116">
        <ele>1572</ele>
        <time>2019-10-19T11:54:59Z</time>
      </trkpt>
      <trkpt lat="42.95884" lon="0.84117">
        <ele>1569</ele>
        <time>2019-10-19T11:55:08Z</time>
      </trkpt>
      <trkpt lat="42.95874" lon="0.8412">
        <ele>1568</ele>
        <time>2019-10-19T11:55:20Z</time>
      </trkpt>
      <trkpt lat="42.95865" lon="0.84119">
        <ele>1564</ele>
        <time>2019-10-19T11:55:28Z</time>
      </trkpt>
      <trkpt lat="42.95857" lon="0.84126">
        <ele>1560</ele>
        <time>2019-10-19T11:55:39Z</time>
      </trkpt>
      <trkpt lat="42.95848" lon="0.8413">
        <ele>1556</ele>
        <time>2019-10-19T11:55:48Z</time>
      </trkpt>
      <trkpt lat="42.95839" lon="0.84132">
        <ele>1555</ele>
        <time>2019-10-19T11:55:56Z</time>
      </trkpt>
      <trkpt lat="42.9583" lon="0.84132">
        <ele>1549</ele>
        <time>2019-10-19T11:56:06Z</time>
      </trkpt>
      <trkpt lat="42.95821" lon="0.84137">
        <ele>1549</ele>
        <time>2019-10-19T11:56:15Z</time>
      </trkpt>
      <trkpt lat="42.95811" lon="0.84144">
        <ele>1544</ele>
        <time>2019-10-19T11:56:36Z</time>
      </trkpt>
      <trkpt lat="42.95816" lon="0.84155">
        <ele>1543</ele>
        <time>2019-10-19T11:56:47Z</time>
      </trkpt>
      <trkpt lat="42.95818" lon="0.84169">
        <ele>1541</ele>
        <time>2019-10-19T11:56:56Z</time>
      </trkpt>
      <trkpt lat="42.95822" lon="0.84182">
        <ele>1536</ele>
        <time>2019-10-19T11:57:05Z</time>
      </trkpt>
      <trkpt lat="42.95815" lon="0.84192">
        <ele>1533</ele>
        <time>2019-10-19T11:57:17Z</time>
      </trkpt>
      <trkpt lat="42.9581" lon="0.84203">
        <ele>1534</ele>
        <time>2019-10-19T11:57:27Z</time>
      </trkpt>
      <trkpt lat="42.95811" lon="0.84215">
        <ele>1528</ele>
        <time>2019-10-19T11:57:38Z</time>
      </trkpt>
      <trkpt lat="42.95805" lon="0.84227">
        <ele>1527</ele>
        <time>2019-10-19T11:57:49Z</time>
      </trkpt>
      <trkpt lat="42.95803" lon="0.84239">
        <ele>1524</ele>
        <time>2019-10-19T11:57:58Z</time>
      </trkpt>
      <trkpt lat="42.95796" lon="0.84249">
        <ele>1523</ele>
        <time>2019-10-19T11:58:06Z</time>
      </trkpt>
      <trkpt lat="42.95791" lon="0.8426">
        <ele>1517</ele>
        <time>2019-10-19T11:58:20Z</time>
      </trkpt>
      <trkpt lat="42.95785" lon="0.8427">
        <ele>1514</ele>
        <time>2019-10-19T11:58:30Z</time>
      </trkpt>
      <trkpt lat="42.95778" lon="0.84279">
        <ele>1512</ele>
        <time>2019-10-19T11:58:40Z</time>
      </trkpt>
      <trkpt lat="42.95769" lon="0.8428">
        <ele>1510</ele>
        <time>2019-10-19T11:58:49Z</time>
      </trkpt>
      <trkpt lat="42.9576" lon="0.84276">
        <ele>1510</ele>
        <time>2019-10-19T11:59:03Z</time>
      </trkpt>
      <trkpt lat="42.95751" lon="0.84274">
        <ele>1507</ele>
        <time>2019-10-19T11:59:12Z</time>
      </trkpt>
      <trkpt lat="42.95742" lon="0.84269">
        <ele>1507</ele>
        <time>2019-10-19T11:59:21Z</time>
      </trkpt>
      <trkpt lat="42.95732" lon="0.84267">
        <ele>1506</ele>
        <time>2019-10-19T11:59:28Z</time>
      </trkpt>
      <trkpt lat="42.95722" lon="0.84266">
        <ele>1504</ele>
        <time>2019-10-19T11:59:36Z</time>
      </trkpt>
      <trkpt lat="42.95713" lon="0.84268">
        <ele>1501</ele>
        <time>2019-10-19T11:59:44Z</time>
      </trkpt>
      <trkpt lat="42.95706" lon="0.84275">
        <ele>1503</ele>
        <time>2019-10-19T11:59:54Z</time>
      </trkpt>
      <trkpt lat="42.95699" lon="0.84285">
        <ele>1505</ele>
        <time>2019-10-19T12:00:04Z</time>
      </trkpt>
      <trkpt lat="42.95694" lon="0.84297">
        <ele>1506</ele>
        <time>2019-10-19T12:00:14Z</time>
      </trkpt>
      <trkpt lat="42.95691" lon="0.8431">
        <ele>1507</ele>
        <time>2019-10-19T12:00:23Z</time>
      </trkpt>
      <trkpt lat="42.95685" lon="0.84321">
        <ele>1509</ele>
        <time>2019-10-19T12:00:32Z</time>
      </trkpt>
      <trkpt lat="42.95683" lon="0.84334">
        <ele>1505</ele>
        <time>2019-10-19T12:00:42Z</time>
      </trkpt>
      <trkpt lat="42.95676" lon="0.84344">
        <ele>1508</ele>
        <time>2019-10-19T12:00:50Z</time>
      </trkpt>
      <trkpt lat="42.95672" lon="0.84356">
        <ele>1508</ele>
        <time>2019-10-19T12:01:00Z</time>
      </trkpt>
      <trkpt lat="42.95665" lon="0.84364">
        <ele>1514</ele>
        <time>2019-10-19T12:01:08Z</time>
      </trkpt>
      <trkpt lat="42.95662" lon="0.84377">
        <ele>1518</ele>
        <time>2019-10-19T12:01:19Z</time>
      </trkpt>
      <trkpt lat="42.95659" lon="0.84388">
        <ele>1515</ele>
        <time>2019-10-19T12:01:28Z</time>
      </trkpt>
      <trkpt lat="42.95653" lon="0.84396">
        <ele>1514</ele>
        <time>2019-10-19T12:01:41Z</time>
      </trkpt>
      <trkpt lat="42.95648" lon="0.8441">
        <ele>1514</ele>
        <time>2019-10-19T12:02:03Z</time>
      </trkpt>
      <trkpt lat="42.95644" lon="0.84422">
        <ele>1514</ele>
        <time>2019-10-19T12:02:11Z</time>
      </trkpt>
      <trkpt lat="42.95644" lon="0.84436">
        <ele>1513</ele>
        <time>2019-10-19T12:02:17Z</time>
      </trkpt>
      <trkpt lat="42.95645" lon="0.84449">
        <ele>1514</ele>
        <time>2019-10-19T12:02:24Z</time>
      </trkpt>
      <trkpt lat="42.95648" lon="0.84462">
        <ele>1515</ele>
        <time>2019-10-19T12:02:33Z</time>
      </trkpt>
      <trkpt lat="42.95652" lon="0.84473">
        <ele>1515</ele>
        <time>2019-10-19T12:02:40Z</time>
      </trkpt>
      <trkpt lat="42.9565" lon="0.84486">
        <ele>1513</ele>
        <time>2019-10-19T12:02:50Z</time>
      </trkpt>
      <trkpt lat="42.95648" lon="0.84499">
        <ele>1512</ele>
        <time>2019-10-19T12:02:59Z</time>
      </trkpt>
      <trkpt lat="42.95647" lon="0.84513">
        <ele>1511</ele>
        <time>2019-10-19T12:03:08Z</time>
      </trkpt>
      <trkpt lat="42.95647" lon="0.84526">
        <ele>1512</ele>
        <time>2019-10-19T12:03:15Z</time>
      </trkpt>
      <trkpt lat="42.95647" lon="0.84539">
        <ele>1514</ele>
        <time>2019-10-19T12:03:24Z</time>
      </trkpt>
      <trkpt lat="42.95645" lon="0.84551">
        <ele>1514</ele>
        <time>2019-10-19T12:03:33Z</time>
      </trkpt>
      <trkpt lat="42.95647" lon="0.84564">
        <ele>1513</ele>
        <time>2019-10-19T12:03:43Z</time>
      </trkpt>
      <trkpt lat="42.95645" lon="0.84578">
        <ele>1510</ele>
        <time>2019-10-19T12:04:02Z</time>
      </trkpt>
      <trkpt lat="42.95643" lon="0.84591">
        <ele>1507</ele>
        <time>2019-10-19T12:04:12Z</time>
      </trkpt>
      <trkpt lat="42.95641" lon="0.84604">
        <ele>1504</ele>
        <time>2019-10-19T12:04:28Z</time>
      </trkpt>
      <trkpt lat="42.95637" lon="0.84617">
        <ele>1506</ele>
        <time>2019-10-19T12:04:40Z</time>
      </trkpt>
      <trkpt lat="42.95639" lon="0.8463">
        <ele>1506</ele>
        <time>2019-10-19T12:04:49Z</time>
      </trkpt>
      <trkpt lat="42.9564" lon="0.84645">
        <ele>1503</ele>
        <time>2019-10-19T12:05:02Z</time>
      </trkpt>
      <trkpt lat="42.95642" lon="0.84658">
        <ele>1504</ele>
        <time>2019-10-19T12:05:11Z</time>
      </trkpt>
      <trkpt lat="42.95645" lon="0.8467">
        <ele>1497</ele>
        <time>2019-10-19T12:05:20Z</time>
      </trkpt>
      <trkpt lat="42.95647" lon="0.84683">
        <ele>1500</ele>
        <time>2019-10-19T12:05:29Z</time>
      </trkpt>
      <trkpt lat="42.95648" lon="0.84696">
        <ele>1498</ele>
        <time>2019-10-19T12:05:59Z</time>
      </trkpt>
      <trkpt lat="42.95651" lon="0.8471">
        <ele>1493</ele>
        <time>2019-10-19T12:06:49Z</time>
      </trkpt>
      <trkpt lat="42.9565" lon="0.84723">
        <ele>1490</ele>
        <time>2019-10-19T12:07:01Z</time>
      </trkpt>
      <trkpt lat="42.95653" lon="0.84735">
        <ele>1498</ele>
        <time>2019-10-19T12:07:06Z</time>
      </trkpt>
      <trkpt lat="42.95653" lon="0.84749">
        <ele>1494</ele>
        <time>2019-10-19T12:07:13Z</time>
      </trkpt>
      <trkpt lat="42.95658" lon="0.8476">
        <ele>1494</ele>
        <time>2019-10-19T12:07:20Z</time>
      </trkpt>
      <trkpt lat="42.95661" lon="0.84773">
        <ele>1494</ele>
        <time>2019-10-19T12:07:27Z</time>
      </trkpt>
      <trkpt lat="42.9566" lon="0.84786">
        <ele>1493</ele>
        <time>2019-10-19T12:07:35Z</time>
      </trkpt>
      <trkpt lat="42.95651" lon="0.84788">
        <ele>1490</ele>
        <time>2019-10-19T12:07:47Z</time>
      </trkpt>
      <trkpt lat="42.95647" lon="0.84799">
        <ele>1482</ele>
        <time>2019-10-19T12:07:54Z</time>
      </trkpt>
      <trkpt lat="42.95644" lon="0.84812">
        <ele>1476</ele>
        <time>2019-10-19T12:08:19Z</time>
      </trkpt>
      <trkpt lat="42.95643" lon="0.84826">
        <ele>1476</ele>
        <time>2019-10-19T12:08:26Z</time>
      </trkpt>
      <trkpt lat="42.95639" lon="0.84837">
        <ele>1473</ele>
        <time>2019-10-19T12:08:34Z</time>
      </trkpt>
      <trkpt lat="42.95641" lon="0.8485">
        <ele>1474</ele>
        <time>2019-10-19T12:08:40Z</time>
      </trkpt>
      <trkpt lat="42.95644" lon="0.84861">
        <ele>1475</ele>
        <time>2019-10-19T12:08:57Z</time>
      </trkpt>
      <trkpt lat="42.95648" lon="0.84872">
        <ele>1474</ele>
        <time>2019-10-19T12:10:49Z</time>
      </trkpt>
      <trkpt lat="42.95639" lon="0.8487">
        <ele>1470</ele>
        <time>2019-10-19T12:13:52Z</time>
      </trkpt>
      <trkpt lat="42.9563" lon="0.84867">
        <ele>1474</ele>
        <time>2019-10-19T12:14:04Z</time>
      </trkpt>
      <trkpt lat="42.95621" lon="0.84868">
        <ele>1468</ele>
        <time>2019-10-19T12:14:15Z</time>
      </trkpt>
      <trkpt lat="42.95611" lon="0.84868">
        <ele>1465</ele>
        <time>2019-10-19T12:14:27Z</time>
      </trkpt>
      <trkpt lat="42.95602" lon="0.84866">
        <ele>1461</ele>
        <time>2019-10-19T12:14:41Z</time>
      </trkpt>
      <trkpt lat="42.95596" lon="0.84856">
        <ele>1456</ele>
        <time>2019-10-19T12:15:00Z</time>
      </trkpt>
      <trkpt lat="42.95589" lon="0.84847">
        <ele>1455</ele>
        <time>2019-10-19T12:15:15Z</time>
      </trkpt>
      <trkpt lat="42.95583" lon="0.84837">
        <ele>1450</ele>
        <time>2019-10-19T12:15:28Z</time>
      </trkpt>
      <trkpt lat="42.95579" lon="0.84849">
        <ele>1446</ele>
        <time>2019-10-19T12:15:50Z</time>
      </trkpt>
      <trkpt lat="42.9557" lon="0.84852">
        <ele>1443</ele>
        <time>2019-10-19T12:16:01Z</time>
      </trkpt>
      <trkpt lat="42.95561" lon="0.84854">
        <ele>1441</ele>
        <time>2019-10-19T12:16:17Z</time>
      </trkpt>
      <trkpt lat="42.95552" lon="0.8486">
        <ele>1435</ele>
        <time>2019-10-19T12:16:30Z</time>
      </trkpt>
      <trkpt lat="42.95544" lon="0.84866">
        <ele>1429</ele>
        <time>2019-10-19T12:16:42Z</time>
      </trkpt>
      <trkpt lat="42.95537" lon="0.84873">
        <ele>1428</ele>
        <time>2019-10-19T12:16:52Z</time>
      </trkpt>
      <trkpt lat="42.95528" lon="0.84873">
        <ele>1431</ele>
        <time>2019-10-19T12:17:01Z</time>
      </trkpt>
      <trkpt lat="42.95518" lon="0.84874">
        <ele>1431</ele>
        <time>2019-10-19T12:17:09Z</time>
      </trkpt>
      <trkpt lat="42.95509" lon="0.84878">
        <ele>1430</ele>
        <time>2019-10-19T12:17:20Z</time>
      </trkpt>
      <trkpt lat="42.95498" lon="0.84877">
        <ele>1429</ele>
        <time>2019-10-19T12:17:28Z</time>
      </trkpt>
      <trkpt lat="42.95489" lon="0.84878">
        <ele>1426</ele>
        <time>2019-10-19T12:17:36Z</time>
      </trkpt>
      <trkpt lat="42.95479" lon="0.84877">
        <ele>1421</ele>
        <time>2019-10-19T12:17:44Z</time>
      </trkpt>
      <trkpt lat="42.9547" lon="0.84873">
        <ele>1421</ele>
        <time>2019-10-19T12:17:52Z</time>
      </trkpt>
      <trkpt lat="42.95461" lon="0.8487">
        <ele>1418</ele>
        <time>2019-10-19T12:18:00Z</time>
      </trkpt>
      <trkpt lat="42.95451" lon="0.84868">
        <ele>1416</ele>
        <time>2019-10-19T12:18:09Z</time>
      </trkpt>
      <trkpt lat="42.95442" lon="0.84863">
        <ele>1417</ele>
        <time>2019-10-19T12:18:19Z</time>
      </trkpt>
      <trkpt lat="42.95432" lon="0.8486">
        <ele>1416</ele>
        <time>2019-10-19T12:18:31Z</time>
      </trkpt>
      <trkpt lat="42.95424" lon="0.84855">
        <ele>1412</ele>
        <time>2019-10-19T12:18:41Z</time>
      </trkpt>
      <trkpt lat="42.95417" lon="0.84846">
        <ele>1410</ele>
        <time>2019-10-19T12:18:53Z</time>
      </trkpt>
      <trkpt lat="42.95408" lon="0.8484">
        <ele>1406</ele>
        <time>2019-10-19T12:19:03Z</time>
      </trkpt>
      <trkpt lat="42.95399" lon="0.84837">
        <ele>1403</ele>
        <time>2019-10-19T12:19:12Z</time>
      </trkpt>
      <trkpt lat="42.9539" lon="0.84833">
        <ele>1402</ele>
        <time>2019-10-19T12:19:22Z</time>
      </trkpt>
      <trkpt lat="42.95385" lon="0.84822">
        <ele>1397</ele>
        <time>2019-10-19T12:21:36Z</time>
      </trkpt>
      <trkpt lat="42.95377" lon="0.84813">
        <ele>1395</ele>
        <time>2019-10-19T12:22:06Z</time>
      </trkpt>
      <trkpt lat="42.95369" lon="0.84806">
        <ele>1391</ele>
        <time>2019-10-19T12:22:18Z</time>
      </trkpt>
      <trkpt lat="42.95362" lon="0.84798">
        <ele>1390</ele>
        <time>2019-10-19T12:22:24Z</time>
      </trkpt>
      <trkpt lat="42.95355" lon="0.84789">
        <ele>1385</ele>
        <time>2019-10-19T12:22:38Z</time>
      </trkpt>
      <trkpt lat="42.95344" lon="0.8479">
        <ele>1376</ele>
        <time>2019-10-19T12:22:51Z</time>
      </trkpt>
      <trkpt lat="42.95336" lon="0.84782">
        <ele>1375</ele>
        <time>2019-10-19T12:23:01Z</time>
      </trkpt>
      <trkpt lat="42.95327" lon="0.84779">
        <ele>1379</ele>
        <time>2019-10-19T12:23:09Z</time>
      </trkpt>
      <trkpt lat="42.9532" lon="0.8477">
        <ele>1380</ele>
        <time>2019-10-19T12:23:22Z</time>
      </trkpt>
      <trkpt lat="42.95314" lon="0.84759">
        <ele>1377</ele>
        <time>2019-10-19T12:23:34Z</time>
      </trkpt>
      <trkpt lat="42.95305" lon="0.84758">
        <ele>1370</ele>
        <time>2019-10-19T12:23:44Z</time>
      </trkpt>
      <trkpt lat="42.95295" lon="0.84755">
        <ele>1363</ele>
        <time>2019-10-19T12:23:54Z</time>
      </trkpt>
      <trkpt lat="42.95286" lon="0.84754">
        <ele>1355</ele>
        <time>2019-10-19T12:24:00Z</time>
      </trkpt>
      <trkpt lat="42.95276" lon="0.84754">
        <ele>1355</ele>
        <time>2019-10-19T12:24:10Z</time>
      </trkpt>
      <trkpt lat="42.95266" lon="0.84756">
        <ele>1356</ele>
        <time>2019-10-19T12:24:19Z</time>
      </trkpt>
      <trkpt lat="42.95257" lon="0.84759">
        <ele>1354</ele>
        <time>2019-10-19T12:24:28Z</time>
      </trkpt>
      <trkpt lat="42.95248" lon="0.84763">
        <ele>1348</ele>
        <time>2019-10-19T12:24:35Z</time>
      </trkpt>
      <trkpt lat="42.95239" lon="0.84767">
        <ele>1345</ele>
        <time>2019-10-19T12:24:41Z</time>
      </trkpt>
      <trkpt lat="42.9523" lon="0.84771">
        <ele>1338</ele>
        <time>2019-10-19T12:24:51Z</time>
      </trkpt>
      <trkpt lat="42.95222" lon="0.84778">
        <ele>1339</ele>
        <time>2019-10-19T12:24:58Z</time>
      </trkpt>
      <trkpt lat="42.95214" lon="0.84786">
        <ele>1332</ele>
        <time>2019-10-19T12:25:07Z</time>
      </trkpt>
      <trkpt lat="42.95205" lon="0.8479">
        <ele>1330</ele>
        <time>2019-10-19T12:25:12Z</time>
      </trkpt>
      <trkpt lat="42.95197" lon="0.84798">
        <ele>1326</ele>
        <time>2019-10-19T12:25:20Z</time>
      </trkpt>
      <trkpt lat="42.9519" lon="0.84806">
        <ele>1323</ele>
        <time>2019-10-19T12:25:28Z</time>
      </trkpt>
      <trkpt lat="42.95182" lon="0.84814">
        <ele>1326</ele>
        <time>2019-10-19T12:25:59Z</time>
      </trkpt>
      <trkpt lat="42.95173" lon="0.84819">
        <ele>1320</ele>
        <time>2019-10-19T12:26:07Z</time>
      </trkpt>
      <trkpt lat="42.95165" lon="0.84827">
        <ele>1319</ele>
        <time>2019-10-19T12:26:18Z</time>
      </trkpt>
      <trkpt lat="42.95156" lon="0.84835">
        <ele>1317</ele>
        <time>2019-10-19T12:26:28Z</time>
      </trkpt>
      <trkpt lat="42.95151" lon="0.84845">
        <ele>1314</ele>
        <time>2019-10-19T12:26:39Z</time>
      </trkpt>
      <trkpt lat="42.95144" lon="0.84855">
        <ele>1313</ele>
        <time>2019-10-19T12:26:48Z</time>
      </trkpt>
      <trkpt lat="42.95135" lon="0.84863">
        <ele>1309</ele>
        <time>2019-10-19T12:26:56Z</time>
      </trkpt>
      <trkpt lat="42.95129" lon="0.84872">
        <ele>1305</ele>
        <time>2019-10-19T12:27:05Z</time>
      </trkpt>
      <trkpt lat="42.95126" lon="0.84885">
        <ele>1304</ele>
        <time>2019-10-19T12:27:12Z</time>
      </trkpt>
      <trkpt lat="42.95122" lon="0.84896">
        <ele>1307</ele>
        <time>2019-10-19T12:27:25Z</time>
      </trkpt>
      <trkpt lat="42.9512" lon="0.84909">
        <ele>1304</ele>
        <time>2019-10-19T12:27:31Z</time>
      </trkpt>
      <trkpt lat="42.95119" lon="0.84921">
        <ele>1303</ele>
        <time>2019-10-19T12:27:40Z</time>
      </trkpt>
      <trkpt lat="42.9512" lon="0.84935">
        <ele>1299</ele>
        <time>2019-10-19T12:27:46Z</time>
      </trkpt>
      <trkpt lat="42.95119" lon="0.84948">
        <ele>1300</ele>
        <time>2019-10-19T12:27:53Z</time>
      </trkpt>
      <trkpt lat="42.95113" lon="0.84958">
        <ele>1302</ele>
        <time>2019-10-19T12:28:03Z</time>
      </trkpt>
      <trkpt lat="42.95108" lon="0.8497">
        <ele>1302</ele>
        <time>2019-10-19T12:28:14Z</time>
      </trkpt>
      <trkpt lat="42.95106" lon="0.84984">
        <ele>1293</ele>
        <time>2019-10-19T12:28:21Z</time>
      </trkpt>
      <trkpt lat="42.95106" lon="0.84997">
        <ele>1291</ele>
        <time>2019-10-19T12:28:29Z</time>
      </trkpt>
      <trkpt lat="42.95103" lon="0.8501">
        <ele>1294</ele>
        <time>2019-10-19T12:28:38Z</time>
      </trkpt>
      <trkpt lat="42.951" lon="0.85024">
        <ele>1290</ele>
        <time>2019-10-19T12:28:50Z</time>
      </trkpt>
      <trkpt lat="42.95098" lon="0.85036">
        <ele>1293</ele>
        <time>2019-10-19T12:28:58Z</time>
      </trkpt>
      <trkpt lat="42.95094" lon="0.85047">
        <ele>1294</ele>
        <time>2019-10-19T12:29:08Z</time>
      </trkpt>
      <trkpt lat="42.95088" lon="0.85058">
        <ele>1287</ele>
        <time>2019-10-19T12:29:15Z</time>
      </trkpt>
      <trkpt lat="42.95088" lon="0.85073">
        <ele>1280</ele>
        <time>2019-10-19T12:29:22Z</time>
      </trkpt>
      <trkpt lat="42.95086" lon="0.85086">
        <ele>1281</ele>
        <time>2019-10-19T12:29:31Z</time>
      </trkpt>
      <trkpt lat="42.95087" lon="0.85099">
        <ele>1281</ele>
        <time>2019-10-19T12:29:41Z</time>
      </trkpt>
      <trkpt lat="42.9508" lon="0.85108">
        <ele>1280</ele>
        <time>2019-10-19T12:29:51Z</time>
      </trkpt>
      <trkpt lat="42.95077" lon="0.85123">
        <ele>1282</ele>
        <time>2019-10-19T12:32:08Z</time>
      </trkpt>
      <trkpt lat="42.95074" lon="0.85134">
        <ele>1283</ele>
        <time>2019-10-19T12:32:16Z</time>
      </trkpt>
      <trkpt lat="42.95069" lon="0.85146">
        <ele>1282</ele>
        <time>2019-10-19T12:32:24Z</time>
      </trkpt>
      <trkpt lat="42.95066" lon="0.8516">
        <ele>1277</ele>
        <time>2019-10-19T12:32:33Z</time>
      </trkpt>
      <trkpt lat="42.95063" lon="0.85173">
        <ele>1278</ele>
        <time>2019-10-19T12:32:42Z</time>
      </trkpt>
      <trkpt lat="42.95055" lon="0.85183">
        <ele>1274</ele>
        <time>2019-10-19T12:32:47Z</time>
      </trkpt>
      <trkpt lat="42.95048" lon="0.85191">
        <ele>1269</ele>
        <time>2019-10-19T12:32:53Z</time>
      </trkpt>
      <trkpt lat="42.95041" lon="0.852">
        <ele>1266</ele>
        <time>2019-10-19T12:33:00Z</time>
      </trkpt>
      <trkpt lat="42.95044" lon="0.85189">
        <ele>1262</ele>
        <time>2019-10-19T12:33:21Z</time>
      </trkpt>
      <trkpt lat="42.95038" lon="0.85178">
        <ele>1259</ele>
        <time>2019-10-19T12:33:27Z</time>
      </trkpt>
      <trkpt lat="42.9504" lon="0.85165">
        <ele>1264</ele>
        <time>2019-10-19T12:33:34Z</time>
      </trkpt>
      <trkpt lat="42.95036" lon="0.85151">
        <ele>1259</ele>
        <time>2019-10-19T12:33:41Z</time>
      </trkpt>
      <trkpt lat="42.95036" lon="0.85138">
        <ele>1257</ele>
        <time>2019-10-19T12:33:48Z</time>
      </trkpt>
      <trkpt lat="42.95032" lon="0.85126">
        <ele>1258</ele>
        <time>2019-10-19T12:33:54Z</time>
      </trkpt>
      <trkpt lat="42.95032" lon="0.85113">
        <ele>1254</ele>
        <time>2019-10-19T12:34:00Z</time>
      </trkpt>
      <trkpt lat="42.95028" lon="0.851">
        <ele>1251</ele>
        <time>2019-10-19T12:34:08Z</time>
      </trkpt>
      <trkpt lat="42.95027" lon="0.85088">
        <ele>1250</ele>
        <time>2019-10-19T12:34:14Z</time>
      </trkpt>
      <trkpt lat="42.95028" lon="0.85075">
        <ele>1248</ele>
        <time>2019-10-19T12:34:21Z</time>
      </trkpt>
      <trkpt lat="42.95025" lon="0.85062">
        <ele>1244</ele>
        <time>2019-10-19T12:34:29Z</time>
      </trkpt>
      <trkpt lat="42.9502" lon="0.85052">
        <ele>1238</ele>
        <time>2019-10-19T12:34:39Z</time>
      </trkpt>
      <trkpt lat="42.9501" lon="0.85051">
        <ele>1229</ele>
        <time>2019-10-19T12:36:44Z</time>
      </trkpt>
      <trkpt lat="42.95011" lon="0.85064">
        <ele>1233</ele>
        <time>2019-10-19T12:42:08Z</time>
      </trkpt>
      <trkpt lat="42.95009" lon="0.85076">
        <ele>1229</ele>
        <time>2019-10-19T12:42:20Z</time>
      </trkpt>
      <trkpt lat="42.95006" lon="0.85088">
        <ele>1231</ele>
        <time>2019-10-19T12:42:29Z</time>
      </trkpt>
      <trkpt lat="42.95005" lon="0.85102">
        <ele>1228</ele>
        <time>2019-10-19T12:42:39Z</time>
      </trkpt>
      <trkpt lat="42.95004" lon="0.85115">
        <ele>1223</ele>
        <time>2019-10-19T12:42:55Z</time>
      </trkpt>
      <trkpt lat="42.94999" lon="0.85128">
        <ele>1222</ele>
        <time>2019-10-19T12:43:03Z</time>
      </trkpt>
      <trkpt lat="42.94993" lon="0.85138">
        <ele>1224</ele>
        <time>2019-10-19T12:43:10Z</time>
      </trkpt>
      <trkpt lat="42.94987" lon="0.8515">
        <ele>1223</ele>
        <time>2019-10-19T12:43:17Z</time>
      </trkpt>
      <trkpt lat="42.94981" lon="0.85159">
        <ele>1221</ele>
        <time>2019-10-19T12:43:26Z</time>
      </trkpt>
      <trkpt lat="42.94973" lon="0.85167">
        <ele>1222</ele>
        <time>2019-10-19T12:43:35Z</time>
      </trkpt>
      <trkpt lat="42.94966" lon="0.85174">
        <ele>1219</ele>
        <time>2019-10-19T12:43:42Z</time>
      </trkpt>
      <trkpt lat="42.94957" lon="0.8518">
        <ele>1219</ele>
        <time>2019-10-19T12:43:51Z</time>
      </trkpt>
      <trkpt lat="42.94948" lon="0.85186">
        <ele>1218</ele>
        <time>2019-10-19T12:43:57Z</time>
      </trkpt>
      <trkpt lat="42.94952" lon="0.85174">
        <ele>1216</ele>
        <time>2019-10-19T12:44:25Z</time>
      </trkpt>
      <trkpt lat="42.94958" lon="0.85165">
        <ele>1217</ele>
        <time>2019-10-19T12:44:35Z</time>
      </trkpt>
      <trkpt lat="42.94961" lon="0.8515">
        <ele>1218</ele>
        <time>2019-10-19T12:44:58Z</time>
      </trkpt>
      <trkpt lat="42.94952" lon="0.85148">
        <ele>1218</ele>
        <time>2019-10-19T12:45:06Z</time>
      </trkpt>
      <trkpt lat="42.94944" lon="0.85143">
        <ele>1212</ele>
        <time>2019-10-19T12:45:17Z</time>
      </trkpt>
      <trkpt lat="42.94934" lon="0.85143">
        <ele>1206</ele>
        <time>2019-10-19T12:45:26Z</time>
      </trkpt>
      <trkpt lat="42.94924" lon="0.85143">
        <ele>1200</ele>
        <time>2019-10-19T12:45:34Z</time>
      </trkpt>
      <trkpt lat="42.94915" lon="0.85143">
        <ele>1198</ele>
        <time>2019-10-19T12:45:43Z</time>
      </trkpt>
      <trkpt lat="42.94904" lon="0.85145">
        <ele>1197</ele>
        <time>2019-10-19T12:45:56Z</time>
      </trkpt>
      <trkpt lat="42.94894" lon="0.85148">
        <ele>1196</ele>
        <time>2019-10-19T12:46:03Z</time>
      </trkpt>
      <trkpt lat="42.94884" lon="0.85149">
        <ele>1192</ele>
        <time>2019-10-19T12:46:13Z</time>
      </trkpt>
      <trkpt lat="42.94875" lon="0.85149">
        <ele>1192</ele>
        <time>2019-10-19T12:46:23Z</time>
      </trkpt>
      <trkpt lat="42.94867" lon="0.85156">
        <ele>1192</ele>
        <time>2019-10-19T12:46:30Z</time>
      </trkpt>
      <trkpt lat="42.94858" lon="0.85161">
        <ele>1192</ele>
        <time>2019-10-19T12:46:39Z</time>
      </trkpt>
      <trkpt lat="42.94849" lon="0.85163">
        <ele>1188</ele>
        <time>2019-10-19T12:46:48Z</time>
      </trkpt>
      <trkpt lat="42.94841" lon="0.85171">
        <ele>1186</ele>
        <time>2019-10-19T12:46:57Z</time>
      </trkpt>
      <trkpt lat="42.94835" lon="0.85181">
        <ele>1181</ele>
        <time>2019-10-19T12:47:07Z</time>
      </trkpt>
      <trkpt lat="42.94828" lon="0.85191">
        <ele>1179</ele>
        <time>2019-10-19T12:47:20Z</time>
      </trkpt>
      <trkpt lat="42.94819" lon="0.85197">
        <ele>1178</ele>
        <time>2019-10-19T12:47:29Z</time>
      </trkpt>
      <trkpt lat="42.94813" lon="0.85208">
        <ele>1179</ele>
        <time>2019-10-19T12:47:40Z</time>
      </trkpt>
      <trkpt lat="42.94808" lon="0.85221">
        <ele>1175</ele>
        <time>2019-10-19T12:48:05Z</time>
      </trkpt>
      <trkpt lat="42.94801" lon="0.8523">
        <ele>1170</ele>
        <time>2019-10-19T12:48:09Z</time>
      </trkpt>
      <trkpt lat="42.94794" lon="0.8524">
        <ele>1164</ele>
        <time>2019-10-19T12:48:17Z</time>
      </trkpt>
      <trkpt lat="42.94787" lon="0.85249">
        <ele>1163</ele>
        <time>2019-10-19T12:48:23Z</time>
      </trkpt>
      <trkpt lat="42.94782" lon="0.85261">
        <ele>1160</ele>
        <time>2019-10-19T12:48:30Z</time>
      </trkpt>
      <trkpt lat="42.94777" lon="0.85272">
        <ele>1156</ele>
        <time>2019-10-19T12:48:39Z</time>
      </trkpt>
      <trkpt lat="42.94768" lon="0.8528">
        <ele>1151</ele>
        <time>2019-10-19T12:48:56Z</time>
      </trkpt>
      <trkpt lat="42.94765" lon="0.85291">
        <ele>1147</ele>
        <time>2019-10-19T12:49:07Z</time>
      </trkpt>
      <trkpt lat="42.94758" lon="0.85301">
        <ele>1144</ele>
        <time>2019-10-19T12:49:14Z</time>
      </trkpt>
      <trkpt lat="42.94754" lon="0.85313">
        <ele>1141</ele>
        <time>2019-10-19T12:49:26Z</time>
      </trkpt>
      <trkpt lat="42.94748" lon="0.85323">
        <ele>1140</ele>
        <time>2019-10-19T12:49:33Z</time>
      </trkpt>
      <trkpt lat="42.94744" lon="0.85334">
        <ele>1142</ele>
        <time>2019-10-19T12:49:44Z</time>
      </trkpt>
      <trkpt lat="42.94735" lon="0.85338">
        <ele>1140</ele>
        <time>2019-10-19T12:49:56Z</time>
      </trkpt>
      <trkpt lat="42.94726" lon="0.85345">
        <ele>1134</ele>
        <time>2019-10-19T12:50:07Z</time>
      </trkpt>
      <trkpt lat="42.9472" lon="0.85354">
        <ele>1130</ele>
        <time>2019-10-19T12:50:18Z</time>
      </trkpt>
      <trkpt lat="42.94713" lon="0.85362">
        <ele>1127</ele>
        <time>2019-10-19T12:50:28Z</time>
      </trkpt>
      <trkpt lat="42.94705" lon="0.85369">
        <ele>1121</ele>
        <time>2019-10-19T12:50:39Z</time>
      </trkpt>
      <trkpt lat="42.94698" lon="0.85376">
        <ele>1115</ele>
        <time>2019-10-19T12:50:52Z</time>
      </trkpt>
      <trkpt lat="42.94689" lon="0.85382">
        <ele>1114</ele>
        <time>2019-10-19T12:51:02Z</time>
      </trkpt>
      <trkpt lat="42.94684" lon="0.85393">
        <ele>1111</ele>
        <time>2019-10-19T12:51:13Z</time>
      </trkpt>
      <trkpt lat="42.94675" lon="0.85399">
        <ele>1112</ele>
        <time>2019-10-19T12:51:22Z</time>
      </trkpt>
      <trkpt lat="42.94664" lon="0.85402">
        <ele>1106</ele>
        <time>2019-10-19T12:51:34Z</time>
      </trkpt>
      <trkpt lat="42.94659" lon="0.85412">
        <ele>1103</ele>
        <time>2019-10-19T12:51:47Z</time>
      </trkpt>
      <trkpt lat="42.9465" lon="0.85408">
        <ele>1100</ele>
        <time>2019-10-19T12:51:58Z</time>
      </trkpt>
      <trkpt lat="42.94644" lon="0.85398">
        <ele>1097</ele>
        <time>2019-10-19T12:52:07Z</time>
      </trkpt>
      <trkpt lat="42.94635" lon="0.85391">
        <ele>1090</ele>
        <time>2019-10-19T12:52:19Z</time>
      </trkpt>
      <trkpt lat="42.94626" lon="0.8539">
        <ele>1088</ele>
        <time>2019-10-19T12:52:25Z</time>
      </trkpt>
      <trkpt lat="42.94617" lon="0.8539">
        <ele>1091</ele>
        <time>2019-10-19T12:52:31Z</time>
      </trkpt>
      <trkpt lat="42.94608" lon="0.85388">
        <ele>1091</ele>
        <time>2019-10-19T12:52:36Z</time>
      </trkpt>
      <trkpt lat="42.94599" lon="0.85389">
        <ele>1090</ele>
        <time>2019-10-19T12:52:42Z</time>
      </trkpt>
      <trkpt lat="42.9459" lon="0.85385">
        <ele>1087</ele>
        <time>2019-10-19T12:52:51Z</time>
      </trkpt>
      <trkpt lat="42.9458" lon="0.85382">
        <ele>1087</ele>
        <time>2019-10-19T12:52:59Z</time>
      </trkpt>
      <trkpt lat="42.94571" lon="0.85384">
        <ele>1087</ele>
        <time>2019-10-19T12:53:04Z</time>
      </trkpt>
      <trkpt lat="42.9456" lon="0.85383">
        <ele>1085</ele>
        <time>2019-10-19T12:53:11Z</time>
      </trkpt>
      <trkpt lat="42.94551" lon="0.85384">
        <ele>1083</ele>
        <time>2019-10-19T12:53:19Z</time>
      </trkpt>
      <trkpt lat="42.94541" lon="0.85388">
        <ele>1079</ele>
        <time>2019-10-19T12:53:29Z</time>
      </trkpt>
      <trkpt lat="42.94531" lon="0.85385">
        <ele>1078</ele>
        <time>2019-10-19T12:53:38Z</time>
      </trkpt>
      <trkpt lat="42.94522" lon="0.85385">
        <ele>1077</ele>
        <time>2019-10-19T12:53:45Z</time>
      </trkpt>
      <trkpt lat="42.94513" lon="0.85382">
        <ele>1078</ele>
        <time>2019-10-19T12:54:01Z</time>
      </trkpt>
      <trkpt lat="42.94504" lon="0.85383">
        <ele>1074</ele>
        <time>2019-10-19T12:54:58Z</time>
      </trkpt>
      <trkpt lat="42.94499" lon="0.85393">
        <ele>1068</ele>
        <time>2019-10-19T13:06:01Z</time>
      </trkpt>
      <trkpt lat="42.94489" lon="0.85394">
        <ele>1067</ele>
        <time>2019-10-19T13:06:11Z</time>
      </trkpt>
      <trkpt lat="42.94488" lon="0.85407">
        <ele>1068</ele>
        <time>2019-10-19T13:06:20Z</time>
      </trkpt>
      <trkpt lat="42.94495" lon="0.85417">
        <ele>1067</ele>
        <time>2019-10-19T13:06:28Z</time>
      </trkpt>
      <trkpt lat="42.945" lon="0.85428">
        <ele>1070</ele>
        <time>2019-10-19T13:06:37Z</time>
      </trkpt>
      <trkpt lat="42.94507" lon="0.85439">
        <ele>1070</ele>
        <time>2019-10-19T13:06:44Z</time>
      </trkpt>
      <trkpt lat="42.94504" lon="0.85451">
        <ele>1069</ele>
        <time>2019-10-19T13:06:55Z</time>
      </trkpt>
      <trkpt lat="42.9451" lon="0.85462">
        <ele>1057</ele>
        <time>2019-10-19T13:07:12Z</time>
      </trkpt>
      <trkpt lat="42.94518" lon="0.8547">
        <ele>1052</ele>
        <time>2019-10-19T13:07:35Z</time>
      </trkpt>
      <trkpt lat="42.94524" lon="0.8548">
        <ele>1053</ele>
        <time>2019-10-19T13:07:46Z</time>
      </trkpt>
      <trkpt lat="42.94533" lon="0.85484">
        <ele>1051</ele>
        <time>2019-10-19T13:07:54Z</time>
      </trkpt>
      <trkpt lat="42.94541" lon="0.85491">
        <ele>1050</ele>
        <time>2019-10-19T13:08:05Z</time>
      </trkpt>
      <trkpt lat="42.94549" lon="0.855">
        <ele>1047</ele>
        <time>2019-10-19T13:08:14Z</time>
      </trkpt>
      <trkpt lat="42.94558" lon="0.85503">
        <ele>1042</ele>
        <time>2019-10-19T13:08:23Z</time>
      </trkpt>
      <trkpt lat="42.94561" lon="0.85516">
        <ele>1044</ele>
        <time>2019-10-19T13:08:32Z</time>
      </trkpt>
      <trkpt lat="42.94567" lon="0.85525">
        <ele>1045</ele>
        <time>2019-10-19T13:08:43Z</time>
      </trkpt>
      <trkpt lat="42.94571" lon="0.85536">
        <ele>1039</ele>
        <time>2019-10-19T13:08:54Z</time>
      </trkpt>
      <trkpt lat="42.9457" lon="0.85549">
        <ele>1037</ele>
        <time>2019-10-19T13:09:04Z</time>
      </trkpt>
      <trkpt lat="42.9457" lon="0.85562">
        <ele>1030</ele>
        <time>2019-10-19T13:09:17Z</time>
      </trkpt>
      <trkpt lat="42.94569" lon="0.85574">
        <ele>1032</ele>
        <time>2019-10-19T13:09:24Z</time>
      </trkpt>
      <trkpt lat="42.94568" lon="0.85588">
        <ele>1032</ele>
        <time>2019-10-19T13:09:32Z</time>
      </trkpt>
      <trkpt lat="42.94565" lon="0.85601">
        <ele>1036</ele>
        <time>2019-10-19T13:09:39Z</time>
      </trkpt>
      <trkpt lat="42.94566" lon="0.85615">
        <ele>1036</ele>
        <time>2019-10-19T13:09:49Z</time>
      </trkpt>
      <trkpt lat="42.94568" lon="0.85629">
        <ele>1031</ele>
        <time>2019-10-19T13:09:58Z</time>
      </trkpt>
      <trkpt lat="42.9457" lon="0.85642">
        <ele>1026</ele>
        <time>2019-10-19T13:10:08Z</time>
      </trkpt>
      <trkpt lat="42.94574" lon="0.85654">
        <ele>1018</ele>
        <time>2019-10-19T13:10:16Z</time>
      </trkpt>
      <trkpt lat="42.94575" lon="0.85666">
        <ele>1017</ele>
        <time>2019-10-19T13:10:23Z</time>
      </trkpt>
      <trkpt lat="42.94575" lon="0.8568">
        <ele>1019</ele>
        <time>2019-10-19T13:10:32Z</time>
      </trkpt>
      <trkpt lat="42.94573" lon="0.85693">
        <ele>1017</ele>
        <time>2019-10-19T13:10:43Z</time>
      </trkpt>
      <trkpt lat="42.94573" lon="0.85708">
        <ele>1017</ele>
        <time>2019-10-19T13:10:51Z</time>
      </trkpt>
      <trkpt lat="42.94573" lon="0.85722">
        <ele>1015</ele>
        <time>2019-10-19T13:11:00Z</time>
      </trkpt>
      <trkpt lat="42.94568" lon="0.85733">
        <ele>1014</ele>
        <time>2019-10-19T13:11:06Z</time>
      </trkpt>
      <trkpt lat="42.94568" lon="0.85747">
        <ele>1014</ele>
        <time>2019-10-19T13:11:13Z</time>
      </trkpt>
      <trkpt lat="42.94565" lon="0.85761">
        <ele>1012</ele>
        <time>2019-10-19T13:11:22Z</time>
      </trkpt>
      <trkpt lat="42.94558" lon="0.85771">
        <ele>1014</ele>
        <time>2019-10-19T13:11:32Z</time>
      </trkpt>
      <trkpt lat="42.94555" lon="0.85783">
        <ele>1010</ele>
        <time>2019-10-19T13:11:40Z</time>
      </trkpt>
      <trkpt lat="42.94551" lon="0.85796">
        <ele>1012</ele>
        <time>2019-10-19T13:11:47Z</time>
      </trkpt>
      <trkpt lat="42.9455" lon="0.85809">
        <ele>1009</ele>
        <time>2019-10-19T13:11:54Z</time>
      </trkpt>
      <trkpt lat="42.94549" lon="0.85822">
        <ele>1007</ele>
        <time>2019-10-19T13:12:01Z</time>
      </trkpt>
      <trkpt lat="42.94547" lon="0.85834">
        <ele>1007</ele>
        <time>2019-10-19T13:12:08Z</time>
      </trkpt>
      <trkpt lat="42.94542" lon="0.85845">
        <ele>1007</ele>
        <time>2019-10-19T13:12:15Z</time>
      </trkpt>
      <trkpt lat="42.94534" lon="0.85853">
        <ele>997</ele>
        <time>2019-10-19T13:12:31Z</time>
      </trkpt>
      <trkpt lat="42.94524" lon="0.85857">
        <ele>999</ele>
        <time>2019-10-19T13:12:38Z</time>
      </trkpt>
      <trkpt lat="42.94515" lon="0.8586">
        <ele>995</ele>
        <time>2019-10-19T13:12:48Z</time>
      </trkpt>
      <trkpt lat="42.94506" lon="0.85866">
        <ele>993</ele>
        <time>2019-10-19T13:12:56Z</time>
      </trkpt>
      <trkpt lat="42.94497" lon="0.85868">
        <ele>990</ele>
        <time>2019-10-19T13:13:05Z</time>
      </trkpt>
      <trkpt lat="42.94487" lon="0.8587">
        <ele>978</ele>
        <time>2019-10-19T13:13:16Z</time>
      </trkpt>
      <trkpt lat="42.94479" lon="0.85865">
        <ele>978</ele>
        <time>2019-10-19T13:13:22Z</time>
      </trkpt>
      <trkpt lat="42.94469" lon="0.85865">
        <ele>979</ele>
        <time>2019-10-19T13:13:28Z</time>
      </trkpt>
      <trkpt lat="42.9446" lon="0.8586">
        <ele>977</ele>
        <time>2019-10-19T13:13:36Z</time>
      </trkpt>
      <trkpt lat="42.94451" lon="0.85855">
        <ele>976</ele>
        <time>2019-10-19T13:13:42Z</time>
      </trkpt>
      <trkpt lat="42.94442" lon="0.85851">
        <ele>977</ele>
        <time>2019-10-19T13:14:13Z</time>
      </trkpt>
      <trkpt lat="42.94433" lon="0.85848">
        <ele>978</ele>
        <time>2019-10-19T13:14:20Z</time>
      </trkpt>
      <trkpt lat="42.94423" lon="0.85849">
        <ele>976</ele>
        <time>2019-10-19T13:14:28Z</time>
      </trkpt>
      <trkpt lat="42.94415" lon="0.85843">
        <ele>974</ele>
        <time>2019-10-19T13:14:33Z</time>
      </trkpt>
      <trkpt lat="42.94406" lon="0.85839">
        <ele>969</ele>
        <time>2019-10-19T13:14:39Z</time>
      </trkpt>
      <trkpt lat="42.94396" lon="0.85842">
        <ele>969</ele>
        <time>2019-10-19T13:14:45Z</time>
      </trkpt>
      <trkpt lat="42.94385" lon="0.85844">
        <ele>970</ele>
        <time>2019-10-19T13:14:50Z</time>
      </trkpt>
      <trkpt lat="42.94375" lon="0.85842">
        <ele>965</ele>
        <time>2019-10-19T13:14:58Z</time>
      </trkpt>
      <trkpt lat="42.94366" lon="0.85848">
        <ele>963</ele>
        <time>2019-10-19T13:15:04Z</time>
      </trkpt>
      <trkpt lat="42.94361" lon="0.85859">
        <ele>960</ele>
        <time>2019-10-19T13:15:18Z</time>
      </trkpt>
      <trkpt lat="42.94354" lon="0.85867">
        <ele>958</ele>
        <time>2019-10-19T13:15:25Z</time>
      </trkpt>
      <trkpt lat="42.94348" lon="0.85876">
        <ele>960</ele>
        <time>2019-10-19T13:15:29Z</time>
      </trkpt>
      <trkpt lat="42.94347" lon="0.85891">
        <ele>961</ele>
        <time>2019-10-19T13:15:35Z</time>
      </trkpt>
      <trkpt lat="42.94345" lon="0.85905">
        <ele>957</ele>
        <time>2019-10-19T13:15:42Z</time>
      </trkpt>
      <trkpt lat="42.94337" lon="0.85913">
        <ele>955</ele>
        <time>2019-10-19T13:15:47Z</time>
      </trkpt>
      <trkpt lat="42.9433" lon="0.85922">
        <ele>955</ele>
        <time>2019-10-19T13:15:53Z</time>
      </trkpt>
      <trkpt lat="42.94326" lon="0.85934">
        <ele>954</ele>
        <time>2019-10-19T13:16:00Z</time>
      </trkpt>
      <trkpt lat="42.94325" lon="0.85947">
        <ele>950</ele>
        <time>2019-10-19T13:16:06Z</time>
      </trkpt>
      <trkpt lat="42.94324" lon="0.8596">
        <ele>946</ele>
        <time>2019-10-19T13:16:13Z</time>
      </trkpt>
      <trkpt lat="42.94324" lon="0.85974">
        <ele>949</ele>
        <time>2019-10-19T13:16:18Z</time>
      </trkpt>
      <trkpt lat="42.94318" lon="0.85985">
        <ele>947</ele>
        <time>2019-10-19T13:16:23Z</time>
      </trkpt>
      <trkpt lat="42.94313" lon="0.85995">
        <ele>946</ele>
        <time>2019-10-19T13:16:28Z</time>
      </trkpt>
      <trkpt lat="42.94313" lon="0.86009">
        <ele>946</ele>
        <time>2019-10-19T13:16:33Z</time>
      </trkpt>
      <trkpt lat="42.94309" lon="0.8602">
        <ele>947</ele>
        <time>2019-10-19T13:16:38Z</time>
      </trkpt>
      <trkpt lat="42.94306" lon="0.86034">
        <ele>945</ele>
        <time>2019-10-19T13:16:45Z</time>
      </trkpt>
      <trkpt lat="42.94304" lon="0.86047">
        <ele>946</ele>
        <time>2019-10-19T13:16:51Z</time>
      </trkpt>
      <trkpt lat="42.94298" lon="0.86056">
        <ele>940</ele>
        <time>2019-10-19T13:16:57Z</time>
      </trkpt>
      <trkpt lat="42.94298" lon="0.86071">
        <ele>938</ele>
        <time>2019-10-19T13:17:04Z</time>
      </trkpt>
      <trkpt lat="42.94296" lon="0.86084">
        <ele>936</ele>
        <time>2019-10-19T13:17:10Z</time>
      </trkpt>
      <trkpt lat="42.94294" lon="0.86096">
        <ele>934</ele>
        <time>2019-10-19T13:17:17Z</time>
      </trkpt>
      <trkpt lat="42.94288" lon="0.86105">
        <ele>932</ele>
        <time>2019-10-19T13:17:24Z</time>
      </trkpt>
      <trkpt lat="42.9428" lon="0.86112">
        <ele>927</ele>
        <time>2019-10-19T13:17:32Z</time>
      </trkpt>
      <trkpt lat="42.94277" lon="0.86125">
        <ele>925</ele>
        <time>2019-10-19T13:17:37Z</time>
      </trkpt>
      <trkpt lat="42.94273" lon="0.86139">
        <ele>923</ele>
        <time>2019-10-19T13:17:44Z</time>
      </trkpt>
      <trkpt lat="42.94267" lon="0.86151">
        <ele>922</ele>
        <time>2019-10-19T13:17:51Z</time>
      </trkpt>
      <trkpt lat="42.94261" lon="0.86163">
        <ele>924</ele>
        <time>2019-10-19T13:17:57Z</time>
      </trkpt>
      <trkpt lat="42.94256" lon="0.86173">
        <ele>924</ele>
        <time>2019-10-19T13:18:05Z</time>
      </trkpt>
      <trkpt lat="42.9426" lon="0.86184">
        <ele>922</ele>
        <time>2019-10-19T13:18:12Z</time>
      </trkpt>
      <trkpt lat="42.94263" lon="0.86197">
        <ele>928</ele>
        <time>2019-10-19T13:20:39Z</time>
      </trkpt>
      <trkpt lat="42.94265" lon="0.86211">
        <ele>925</ele>
        <time>2019-10-19T13:20:46Z</time>
      </trkpt>
      <trkpt lat="42.94265" lon="0.86224">
        <ele>920</ele>
        <time>2019-10-19T13:22:52Z</time>
      </trkpt>
      <trkpt lat="42.94262" lon="0.86237">
        <ele>915</ele>
        <time>2019-10-19T13:22:58Z</time>
      </trkpt>
      <trkpt lat="42.9426" lon="0.8625">
        <ele>913</ele>
        <time>2019-10-19T13:23:04Z</time>
      </trkpt>
      <trkpt lat="42.94258" lon="0.86264">
        <ele>909</ele>
        <time>2019-10-19T13:23:11Z</time>
      </trkpt>
      <trkpt lat="42.94256" lon="0.86277">
        <ele>908</ele>
        <time>2019-10-19T13:23:18Z</time>
      </trkpt>
      <trkpt lat="42.94254" lon="0.8629">
        <ele>908</ele>
        <time>2019-10-19T13:23:25Z</time>
      </trkpt>
      <trkpt lat="42.94249" lon="0.86302">
        <ele>909</ele>
        <time>2019-10-19T13:23:32Z</time>
      </trkpt>
      <trkpt lat="42.94244" lon="0.86314">
        <ele>909</ele>
        <time>2019-10-19T13:23:40Z</time>
      </trkpt>
      <trkpt lat="42.94247" lon="0.86326">
        <ele>908</ele>
        <time>2019-10-19T13:23:48Z</time>
      </trkpt>
      <trkpt lat="42.94245" lon="0.86339">
        <ele>908</ele>
        <time>2019-10-19T13:23:55Z</time>
      </trkpt>
      <trkpt lat="42.94239" lon="0.86348">
        <ele>905</ele>
        <time>2019-10-19T13:24:02Z</time>
      </trkpt>
      <trkpt lat="42.94239" lon="0.86361">
        <ele>905</ele>
        <time>2019-10-19T13:24:10Z</time>
      </trkpt>
      <trkpt lat="42.94236" lon="0.86372">
        <ele>901</ele>
        <time>2019-10-19T13:24:20Z</time>
      </trkpt>
      <trkpt lat="42.94234" lon="0.86386">
        <ele>890</ele>
        <time>2019-10-19T13:24:33Z</time>
      </trkpt>
      <trkpt lat="42.94231" lon="0.86398">
        <ele>891</ele>
        <time>2019-10-19T13:24:40Z</time>
      </trkpt>
      <trkpt lat="42.94226" lon="0.8641">
        <ele>887</ele>
        <time>2019-10-19T13:24:51Z</time>
      </trkpt>
      <trkpt lat="42.94219" lon="0.8642">
        <ele>888</ele>
        <time>2019-10-19T13:25:01Z</time>
      </trkpt>
      <trkpt lat="42.94211" lon="0.86425">
        <ele>889</ele>
        <time>2019-10-19T13:25:07Z</time>
      </trkpt>
      <trkpt lat="42.94201" lon="0.86428">
        <ele>888</ele>
        <time>2019-10-19T13:25:14Z</time>
      </trkpt>
      <trkpt lat="42.94192" lon="0.86432">
        <ele>884</ele>
        <time>2019-10-19T13:25:21Z</time>
      </trkpt>
      <trkpt lat="42.94183" lon="0.86435">
        <ele>877</ele>
        <time>2019-10-19T13:25:31Z</time>
      </trkpt>
      <trkpt lat="42.94173" lon="0.86435">
        <ele>879</ele>
        <time>2019-10-19T13:25:39Z</time>
      </trkpt>
      <trkpt lat="42.94164" lon="0.86438">
        <ele>880</ele>
        <time>2019-10-19T13:25:47Z</time>
      </trkpt>
      <trkpt lat="42.94155" lon="0.8644">
        <ele>876</ele>
        <time>2019-10-19T13:25:56Z</time>
      </trkpt>
      <trkpt lat="42.94146" lon="0.86442">
        <ele>873</ele>
        <time>2019-10-19T13:26:06Z</time>
      </trkpt>
      <trkpt lat="42.94139" lon="0.86453">
        <ele>869</ele>
        <time>2019-10-19T13:26:15Z</time>
      </trkpt>
      <trkpt lat="42.94129" lon="0.86455">
        <ele>874</ele>
        <time>2019-10-19T13:26:24Z</time>
      </trkpt>
      <trkpt lat="42.94127" lon="0.86468">
        <ele>872</ele>
        <time>2019-10-19T13:26:31Z</time>
      </trkpt>
      <trkpt lat="42.94125" lon="0.8648">
        <ele>867</ele>
        <time>2019-10-19T13:26:42Z</time>
      </trkpt>
      <trkpt lat="42.94118" lon="0.86489">
        <ele>863</ele>
        <time>2019-10-19T13:29:23Z</time>
      </trkpt>
      <trkpt lat="42.94118" lon="0.86503">
        <ele>866</ele>
        <time>2019-10-19T13:29:32Z</time>
      </trkpt>
      <trkpt lat="42.94111" lon="0.86513">
        <ele>865</ele>
        <time>2019-10-19T13:29:41Z</time>
      </trkpt>
      <trkpt lat="42.94106" lon="0.86524">
        <ele>865</ele>
        <time>2019-10-19T13:29:50Z</time>
      </trkpt>
      <trkpt lat="42.94102" lon="0.86535">
        <ele>862</ele>
        <time>2019-10-19T13:29:59Z</time>
      </trkpt>
      <trkpt lat="42.94098" lon="0.86548">
        <ele>862</ele>
        <time>2019-10-19T13:30:20Z</time>
      </trkpt>
      <trkpt lat="42.94097" lon="0.8656">
        <ele>861</ele>
        <time>2019-10-19T13:30:26Z</time>
      </trkpt>
      <trkpt lat="42.94087" lon="0.86566">
        <ele>861</ele>
        <time>2019-10-19T13:30:34Z</time>
      </trkpt>
      <trkpt lat="42.94079" lon="0.86572">
        <ele>860</ele>
        <time>2019-10-19T13:30:44Z</time>
      </trkpt>
      <trkpt lat="42.94071" lon="0.86579">
        <ele>859</ele>
        <time>2019-10-19T13:30:52Z</time>
      </trkpt>
      <trkpt lat="42.94062" lon="0.86585">
        <ele>859</ele>
        <time>2019-10-19T13:31:01Z</time>
      </trkpt>
      <trkpt lat="42.94053" lon="0.86588">
        <ele>859</ele>
        <time>2019-10-19T13:31:08Z</time>
      </trkpt>
      <trkpt lat="42.94044" lon="0.86594">
        <ele>857</ele>
        <time>2019-10-19T13:31:15Z</time>
      </trkpt>
      <trkpt lat="42.94037" lon="0.86604">
        <ele>857</ele>
        <time>2019-10-19T13:31:23Z</time>
      </trkpt>
      <trkpt lat="42.94031" lon="0.86615">
        <ele>856</ele>
        <time>2019-10-19T13:31:31Z</time>
      </trkpt>
      <trkpt lat="42.94029" lon="0.86628">
        <ele>854</ele>
        <time>2019-10-19T13:31:39Z</time>
      </trkpt>
      <trkpt lat="42.94024" lon="0.86639">
        <ele>851</ele>
        <time>2019-10-19T13:31:47Z</time>
      </trkpt>
      <trkpt lat="42.94016" lon="0.86648">
        <ele>853</ele>
        <time>2019-10-19T13:31:54Z</time>
      </trkpt>
      <trkpt lat="42.94013" lon="0.8666">
        <ele>854</ele>
        <time>2019-10-19T13:32:00Z</time>
      </trkpt>
      <trkpt lat="42.94009" lon="0.86671">
        <ele>854</ele>
        <time>2019-10-19T13:32:08Z</time>
      </trkpt>
      <trkpt lat="42.9401" lon="0.86683">
        <ele>852</ele>
        <time>2019-10-19T13:32:17Z</time>
      </trkpt>
      <trkpt lat="42.94012" lon="0.86696">
        <ele>853</ele>
        <time>2019-10-19T13:32:26Z</time>
      </trkpt>
      <trkpt lat="42.9401" lon="0.8671">
        <ele>855</ele>
        <time>2019-10-19T13:32:35Z</time>
      </trkpt>
      <trkpt lat="42.94012" lon="0.86723">
        <ele>856</ele>
        <time>2019-10-19T13:32:42Z</time>
      </trkpt>
      <trkpt lat="42.94007" lon="0.86734">
        <ele>855</ele>
        <time>2019-10-19T13:32:50Z</time>
      </trkpt>
      <trkpt lat="42.93999" lon="0.8674">
        <ele>852</ele>
        <time>2019-10-19T13:32:58Z</time>
      </trkpt>
      <trkpt lat="42.93991" lon="0.86748">
        <ele>852</ele>
        <time>2019-10-19T13:33:08Z</time>
      </trkpt>
      <trkpt lat="42.93984" lon="0.86758">
        <ele>854</ele>
        <time>2019-10-19T13:33:18Z</time>
      </trkpt>
      <trkpt lat="42.93981" lon="0.8677">
        <ele>855</ele>
        <time>2019-10-19T13:33:25Z</time>
      </trkpt>
      <trkpt lat="42.93976" lon="0.86781">
        <ele>857</ele>
        <time>2019-10-19T13:33:32Z</time>
      </trkpt>
      <trkpt lat="42.93973" lon="0.86794">
        <ele>855</ele>
        <time>2019-10-19T13:33:39Z</time>
      </trkpt>
      <trkpt lat="42.93967" lon="0.86806">
        <ele>855</ele>
        <time>2019-10-19T13:33:48Z</time>
      </trkpt>
      <trkpt lat="42.93963" lon="0.86817">
        <ele>856</ele>
        <time>2019-10-19T13:33:55Z</time>
      </trkpt>
      <trkpt lat="42.93957" lon="0.86829">
        <ele>857</ele>
        <time>2019-10-19T13:34:03Z</time>
      </trkpt>
      <trkpt lat="42.93951" lon="0.86838">
        <ele>858</ele>
        <time>2019-10-19T13:34:10Z</time>
      </trkpt>
      <trkpt lat="42.93947" lon="0.8685">
        <ele>857</ele>
        <time>2019-10-19T13:34:18Z</time>
      </trkpt>
      <trkpt lat="42.93943" lon="0.86861">
        <ele>856</ele>
        <time>2019-10-19T13:34:24Z</time>
      </trkpt>
      <trkpt lat="42.93938" lon="0.86872">
        <ele>860</ele>
        <time>2019-10-19T13:34:31Z</time>
      </trkpt>
      <trkpt lat="42.9393" lon="0.86881">
        <ele>859</ele>
        <time>2019-10-19T13:34:39Z</time>
      </trkpt>
      <trkpt lat="42.93928" lon="0.86894">
        <ele>859</ele>
        <time>2019-10-19T13:34:49Z</time>
      </trkpt>
      <trkpt lat="42.93924" lon="0.86906">
        <ele>862</ele>
        <time>2019-10-19T13:34:57Z</time>
      </trkpt>
      <trkpt lat="42.93923" lon="0.86919">
        <ele>865</ele>
        <time>2019-10-19T13:35:05Z</time>
      </trkpt>
      <trkpt lat="42.9392" lon="0.86931">
        <ele>865</ele>
        <time>2019-10-19T13:35:13Z</time>
      </trkpt>
      <trkpt lat="42.93918" lon="0.86944">
        <ele>865</ele>
        <time>2019-10-19T13:35:23Z</time>
      </trkpt>
      <trkpt lat="42.93918" lon="0.86957">
        <ele>864</ele>
        <time>2019-10-19T13:35:32Z</time>
      </trkpt>
      <trkpt lat="42.93916" lon="0.86971">
        <ele>866</ele>
        <time>2019-10-19T13:35:41Z</time>
      </trkpt>
      <trkpt lat="42.93913" lon="0.86982">
        <ele>866</ele>
        <time>2019-10-19T13:35:48Z</time>
      </trkpt>
      <trkpt lat="42.9391" lon="0.86998">
        <ele>867</ele>
        <time>2019-10-19T13:35:57Z</time>
      </trkpt>
      <trkpt lat="42.93908" lon="0.8701">
        <ele>861</ele>
        <time>2019-10-19T13:36:06Z</time>
      </trkpt>
      <trkpt lat="42.93903" lon="0.87022">
        <ele>862</ele>
        <time>2019-10-19T13:36:17Z</time>
      </trkpt>
      <trkpt lat="42.93899" lon="0.87033">
        <ele>863</ele>
        <time>2019-10-19T13:36:24Z</time>
      </trkpt>
      <trkpt lat="42.93895" lon="0.87046">
        <ele>860</ele>
        <time>2019-10-19T13:36:33Z</time>
      </trkpt>
      <trkpt lat="42.93896" lon="0.8706">
        <ele>861</ele>
        <time>2019-10-19T13:36:43Z</time>
      </trkpt>
      <trkpt lat="42.93902" lon="0.87071">
        <ele>861</ele>
        <time>2019-10-19T13:36:51Z</time>
      </trkpt>
      <trkpt lat="42.93911" lon="0.87077">
        <ele>862</ele>
        <time>2019-10-19T13:36:59Z</time>
      </trkpt>
      <trkpt lat="42.93911" lon="0.8709">
        <ele>864</ele>
        <time>2019-10-19T13:37:07Z</time>
      </trkpt>
      <trkpt lat="42.93917" lon="0.87099">
        <ele>870</ele>
        <time>2019-10-19T13:37:19Z</time>
      </trkpt>
      <trkpt lat="42.93922" lon="0.87112">
        <ele>870</ele>
        <time>2019-10-19T13:37:29Z</time>
      </trkpt>
      <trkpt lat="42.93926" lon="0.87124">
        <ele>874</ele>
        <time>2019-10-19T13:37:41Z</time>
      </trkpt>
      <trkpt lat="42.93934" lon="0.87133">
        <ele>870</ele>
        <time>2019-10-19T13:37:47Z</time>
      </trkpt>
      <trkpt lat="42.93941" lon="0.87141">
        <ele>867</ele>
        <time>2019-10-19T13:37:54Z</time>
      </trkpt>
      <trkpt lat="42.93945" lon="0.87153">
        <ele>869</ele>
        <time>2019-10-19T13:38:02Z</time>
      </trkpt>
      <trkpt lat="42.93953" lon="0.87159">
        <ele>865</ele>
        <time>2019-10-19T13:38:11Z</time>
      </trkpt>
      <trkpt lat="42.93958" lon="0.87171">
        <ele>867</ele>
        <time>2019-10-19T13:38:21Z</time>
      </trkpt>
      <trkpt lat="42.93965" lon="0.8718">
        <ele>864</ele>
        <time>2019-10-19T13:38:30Z</time>
      </trkpt>
      <trkpt lat="42.93969" lon="0.87192">
        <ele>864</ele>
        <time>2019-10-19T13:38:37Z</time>
      </trkpt>
      <trkpt lat="42.93968" lon="0.87205">
        <ele>867</ele>
        <time>2019-10-19T13:38:45Z</time>
      </trkpt>
      <trkpt lat="42.93972" lon="0.87216">
        <ele>870</ele>
        <time>2019-10-19T13:38:52Z</time>
      </trkpt>
      <trkpt lat="42.93979" lon="0.87223">
        <ele>866</ele>
        <time>2019-10-19T13:38:58Z</time>
      </trkpt>
      <trkpt lat="42.93984" lon="0.87235">
        <ele>868</ele>
        <time>2019-10-19T13:39:05Z</time>
      </trkpt>
      <trkpt lat="42.93991" lon="0.87245">
        <ele>866</ele>
        <time>2019-10-19T13:39:13Z</time>
      </trkpt>
      <trkpt lat="42.93998" lon="0.87252">
        <ele>862</ele>
        <time>2019-10-19T13:39:22Z</time>
      </trkpt>
      <trkpt lat="42.94005" lon="0.8726">
        <ele>861</ele>
        <time>2019-10-19T13:39:29Z</time>
      </trkpt>
      <trkpt lat="42.94014" lon="0.87266">
        <ele>859</ele>
        <time>2019-10-19T13:39:37Z</time>
      </trkpt>
      <trkpt lat="42.94023" lon="0.87275">
        <ele>860</ele>
        <time>2019-10-19T13:39:47Z</time>
      </trkpt>
      <trkpt lat="42.9403" lon="0.87283">
        <ele>861</ele>
        <time>2019-10-19T13:39:54Z</time>
      </trkpt>
      <trkpt lat="42.94037" lon="0.87292">
        <ele>860</ele>
        <time>2019-10-19T13:40:02Z</time>
      </trkpt>
      <trkpt lat="42.94045" lon="0.87299">
        <ele>857</ele>
        <time>2019-10-19T13:40:09Z</time>
      </trkpt>
      <trkpt lat="42.94052" lon="0.87309">
        <ele>857</ele>
        <time>2019-10-19T13:40:16Z</time>
      </trkpt>
      <trkpt lat="42.9406" lon="0.87313">
        <ele>855</ele>
        <time>2019-10-19T13:40:24Z</time>
      </trkpt>
      <trkpt lat="42.94061" lon="0.87327">
        <ele>857</ele>
        <time>2019-10-19T13:40:31Z</time>
      </trkpt>
      <trkpt lat="42.94067" lon="0.87337">
        <ele>857</ele>
        <time>2019-10-19T13:40:38Z</time>
      </trkpt>
      <trkpt lat="42.94074" lon="0.87346">
        <ele>858</ele>
        <time>2019-10-19T13:40:47Z</time>
      </trkpt>
      <trkpt lat="42.94076" lon="0.8736">
        <ele>865</ele>
        <time>2019-10-19T13:40:56Z</time>
      </trkpt>
      <trkpt lat="42.94081" lon="0.87371">
        <ele>868</ele>
        <time>2019-10-19T13:41:05Z</time>
      </trkpt>
      <trkpt lat="42.94086" lon="0.87384">
        <ele>868</ele>
        <time>2019-10-19T13:41:13Z</time>
      </trkpt>
      <trkpt lat="42.94093" lon="0.87393">
        <ele>867</ele>
        <time>2019-10-19T13:41:20Z</time>
      </trkpt>
      <trkpt lat="42.94101" lon="0.87397">
        <ele>864</ele>
        <time>2019-10-19T13:41:26Z</time>
      </trkpt>
      <trkpt lat="42.94108" lon="0.87407">
        <ele>864</ele>
        <time>2019-10-19T13:41:33Z</time>
      </trkpt>
      <trkpt lat="42.94117" lon="0.87413">
        <ele>858</ele>
        <time>2019-10-19T13:41:41Z</time>
      </trkpt>
      <trkpt lat="42.94124" lon="0.87422">
        <ele>857</ele>
        <time>2019-10-19T13:41:47Z</time>
      </trkpt>
      <trkpt lat="42.9413" lon="0.87431">
        <ele>857</ele>
        <time>2019-10-19T13:41:57Z</time>
      </trkpt>
      <trkpt lat="42.94138" lon="0.87439">
        <ele>856</ele>
        <time>2019-10-19T13:42:06Z</time>
      </trkpt>
      <trkpt lat="42.94143" lon="0.8745">
        <ele>858</ele>
        <time>2019-10-19T13:42:14Z</time>
      </trkpt>
      <trkpt lat="42.94149" lon="0.87461">
        <ele>858</ele>
        <time>2019-10-19T13:42:25Z</time>
      </trkpt>
      <trkpt lat="42.94157" lon="0.87467">
        <ele>856</ele>
        <time>2019-10-19T13:42:34Z</time>
      </trkpt>
      <trkpt lat="42.94168" lon="0.87469">
        <ele>849</ele>
        <time>2019-10-19T13:42:43Z</time>
      </trkpt>
      <trkpt lat="42.94177" lon="0.8747">
        <ele>850</ele>
        <time>2019-10-19T13:42:50Z</time>
      </trkpt>
      <trkpt lat="42.94186" lon="0.87472">
        <ele>849</ele>
        <time>2019-10-19T13:42:56Z</time>
      </trkpt>
      <trkpt lat="42.94195" lon="0.87477">
        <ele>854</ele>
        <time>2019-10-19T13:43:05Z</time>
      </trkpt>
      <trkpt lat="42.94205" lon="0.87474">
        <ele>849</ele>
        <time>2019-10-19T13:43:12Z</time>
      </trkpt>
      <trkpt lat="42.94214" lon="0.87471">
        <ele>849</ele>
        <time>2019-10-19T13:43:20Z</time>
      </trkpt>
      <trkpt lat="42.94223" lon="0.8747">
        <ele>854</ele>
        <time>2019-10-19T13:43:29Z</time>
      </trkpt>
      <trkpt lat="42.94233" lon="0.87471">
        <ele>855</ele>
        <time>2019-10-19T13:43:36Z</time>
      </trkpt>
      <trkpt lat="42.94242" lon="0.87476">
        <ele>854</ele>
        <time>2019-10-19T13:43:43Z</time>
      </trkpt>
      <trkpt lat="42.94251" lon="0.87477">
        <ele>853</ele>
        <time>2019-10-19T13:43:50Z</time>
      </trkpt>
      <trkpt lat="42.9426" lon="0.87479">
        <ele>855</ele>
        <time>2019-10-19T13:43:59Z</time>
      </trkpt>
      <trkpt lat="42.94268" lon="0.87487">
        <ele>854</ele>
        <time>2019-10-19T13:44:07Z</time>
      </trkpt>
      <trkpt lat="42.94274" lon="0.87496">
        <ele>849</ele>
        <time>2019-10-19T13:44:17Z</time>
      </trkpt>
      <trkpt lat="42.94272" lon="0.8751">
        <ele>849</ele>
        <time>2019-10-19T13:44:26Z</time>
      </trkpt>
      <trkpt lat="42.94271" lon="0.87523">
        <ele>851</ele>
        <time>2019-10-19T13:44:34Z</time>
      </trkpt>
      <trkpt lat="42.94269" lon="0.87537">
        <ele>852</ele>
        <time>2019-10-19T13:44:43Z</time>
      </trkpt>
      <trkpt lat="42.94265" lon="0.8755">
        <ele>857</ele>
        <time>2019-10-19T13:44:53Z</time>
      </trkpt>
      <trkpt lat="42.94265" lon="0.87563">
        <ele>860</ele>
        <time>2019-10-19T13:45:02Z</time>
      </trkpt>
      <trkpt lat="42.94261" lon="0.87574">
        <ele>861</ele>
        <time>2019-10-19T13:45:10Z</time>
      </trkpt>
      <trkpt lat="42.94256" lon="0.87586">
        <ele>862</ele>
        <time>2019-10-19T13:45:19Z</time>
      </trkpt>
      <trkpt lat="42.94253" lon="0.87599">
        <ele>860</ele>
        <time>2019-10-19T13:45:28Z</time>
      </trkpt>
      <trkpt lat="42.94252" lon="0.87612">
        <ele>858</ele>
        <time>2019-10-19T13:45:35Z</time>
      </trkpt>
      <trkpt lat="42.94245" lon="0.87622">
        <ele>860</ele>
        <time>2019-10-19T13:45:44Z</time>
      </trkpt>
      <trkpt lat="42.94242" lon="0.87634">
        <ele>863</ele>
        <time>2019-10-19T13:45:53Z</time>
      </trkpt>
      <trkpt lat="42.94242" lon="0.87648">
        <ele>864</ele>
        <time>2019-10-19T13:46:04Z</time>
      </trkpt>
      <trkpt lat="42.94241" lon="0.87661">
        <ele>865</ele>
        <time>2019-10-19T13:46:14Z</time>
      </trkpt>
      <trkpt lat="42.94242" lon="0.87674">
        <ele>868</ele>
        <time>2019-10-19T13:46:26Z</time>
      </trkpt>
      <trkpt lat="42.94245" lon="0.87687">
        <ele>870</ele>
        <time>2019-10-19T13:46:36Z</time>
      </trkpt>
      <trkpt lat="42.94253" lon="0.87695">
        <ele>872</ele>
        <time>2019-10-19T13:46:47Z</time>
      </trkpt>
      <trkpt lat="42.94259" lon="0.87704">
        <ele>871</ele>
        <time>2019-10-19T13:46:56Z</time>
      </trkpt>
      <trkpt lat="42.94268" lon="0.87711">
        <ele>870</ele>
        <time>2019-10-19T13:47:06Z</time>
      </trkpt>
      <trkpt lat="42.94275" lon="0.87719">
        <ele>869</ele>
        <time>2019-10-19T13:47:15Z</time>
      </trkpt>
      <trkpt lat="42.94279" lon="0.8773">
        <ele>870</ele>
        <time>2019-10-19T13:47:23Z</time>
      </trkpt>
      <trkpt lat="42.94286" lon="0.87742">
        <ele>875</ele>
        <time>2019-10-19T13:47:36Z</time>
      </trkpt>
      <trkpt lat="42.94294" lon="0.8775">
        <ele>873</ele>
        <time>2019-10-19T13:47:45Z</time>
      </trkpt>
      <trkpt lat="42.94293" lon="0.87765">
        <ele>873</ele>
        <time>2019-10-19T13:48:16Z</time>
      </trkpt>
      <trkpt lat="42.94285" lon="0.87772">
        <ele>875</ele>
        <time>2019-10-19T13:48:42Z</time>
      </trkpt>
      <trkpt lat="42.94279" lon="0.87781">
        <ele>875</ele>
        <time>2019-10-19T13:48:45Z</time>
      </trkpt>
      <trkpt lat="42.94274" lon="0.87792">
        <ele>874</ele>
        <time>2019-10-19T13:48:50Z</time>
      </trkpt>
      <trkpt lat="42.94266" lon="0.87801">
        <ele>877</ele>
        <time>2019-10-19T13:48:56Z</time>
      </trkpt>
      <trkpt lat="42.9426" lon="0.87812">
        <ele>876</ele>
        <time>2019-10-19T13:49:03Z</time>
      </trkpt>
      <trkpt lat="42.94252" lon="0.87818">
        <ele>880</ele>
        <time>2019-10-19T13:49:15Z</time>
      </trkpt>
      <trkpt lat="42.94248" lon="0.87829">
        <ele>887</ele>
        <time>2019-10-19T13:49:27Z</time>
      </trkpt>
      <trkpt lat="42.94244" lon="0.87841">
        <ele>891</ele>
        <time>2019-10-19T13:49:36Z</time>
      </trkpt>
      <trkpt lat="42.94244" lon="0.87854">
        <ele>890</ele>
        <time>2019-10-19T13:49:45Z</time>
      </trkpt>
      <trkpt lat="42.94244" lon="0.87867">
        <ele>891</ele>
        <time>2019-10-19T13:49:55Z</time>
      </trkpt>
      <trkpt lat="42.94246" lon="0.8788">
        <ele>892</ele>
        <time>2019-10-19T13:50:06Z</time>
      </trkpt>
      <trkpt lat="42.94251" lon="0.8789">
        <ele>896</ele>
        <time>2019-10-19T13:53:00Z</time>
      </trkpt>
      <trkpt lat="42.94261" lon="0.8789">
        <ele>897</ele>
        <time>2019-10-19T13:53:09Z</time>
      </trkpt>
      <trkpt lat="42.94271" lon="0.87889">
        <ele>896</ele>
        <time>2019-10-19T13:53:19Z</time>
      </trkpt>
      <trkpt lat="42.94281" lon="0.87887">
        <ele>898</ele>
        <time>2019-10-19T13:53:30Z</time>
      </trkpt>
      <trkpt lat="42.94291" lon="0.8789">
        <ele>899</ele>
        <time>2019-10-19T13:53:41Z</time>
      </trkpt>
      <trkpt lat="42.94301" lon="0.8789">
        <ele>903</ele>
        <time>2019-10-19T13:53:51Z</time>
      </trkpt>
      <trkpt lat="42.9431" lon="0.87896">
        <ele>900</ele>
        <time>2019-10-19T13:53:57Z</time>
      </trkpt>
      <trkpt lat="42.94319" lon="0.87904">
        <ele>899</ele>
        <time>2019-10-19T13:54:15Z</time>
      </trkpt>
      <trkpt lat="42.94324" lon="0.87914">
        <ele>901</ele>
        <time>2019-10-19T13:54:20Z</time>
      </trkpt>
      <trkpt lat="42.94334" lon="0.8792">
        <ele>902</ele>
        <time>2019-10-19T13:54:26Z</time>
      </trkpt>
      <trkpt lat="42.94343" lon="0.87925">
        <ele>904</ele>
        <time>2019-10-19T13:54:32Z</time>
      </trkpt>
      <trkpt lat="42.94349" lon="0.87934">
        <ele>902</ele>
        <time>2019-10-19T13:54:39Z</time>
      </trkpt>
      <trkpt lat="42.94356" lon="0.87944">
        <ele>900</ele>
        <time>2019-10-19T13:54:46Z</time>
      </trkpt>
      <trkpt lat="42.94362" lon="0.87953">
        <ele>896</ele>
        <time>2019-10-19T13:54:56Z</time>
      </trkpt>
      <trkpt lat="42.94367" lon="0.87963">
        <ele>899</ele>
        <time>2019-10-19T13:55:03Z</time>
      </trkpt>
      <trkpt lat="42.94371" lon="0.87977">
        <ele>896</ele>
        <time>2019-10-19T13:55:09Z</time>
      </trkpt>
      <trkpt lat="42.94376" lon="0.87988">
        <ele>892</ele>
        <time>2019-10-19T13:55:20Z</time>
      </trkpt>
      <trkpt lat="42.94374" lon="0.88001">
        <ele>891</ele>
        <time>2019-10-19T13:55:28Z</time>
      </trkpt>
      <trkpt lat="42.9437" lon="0.88014">
        <ele>892</ele>
        <time>2019-10-19T13:55:37Z</time>
      </trkpt>
      <trkpt lat="42.94367" lon="0.88026">
        <ele>888</ele>
        <time>2019-10-19T13:55:44Z</time>
      </trkpt>
      <trkpt lat="42.94368" lon="0.88041">
        <ele>885</ele>
        <time>2019-10-19T13:55:51Z</time>
      </trkpt>
      <trkpt lat="42.94367" lon="0.88055">
        <ele>886</ele>
        <time>2019-10-19T13:56:00Z</time>
      </trkpt>
      <trkpt lat="42.94368" lon="0.88069">
        <ele>886</ele>
        <time>2019-10-19T13:56:09Z</time>
      </trkpt>
      <trkpt lat="42.94364" lon="0.88082">
        <ele>885</ele>
        <time>2019-10-19T13:56:15Z</time>
      </trkpt>
      <trkpt lat="42.94364" lon="0.88095">
        <ele>886</ele>
        <time>2019-10-19T13:56:23Z</time>
      </trkpt>
      <trkpt lat="42.94363" lon="0.88109">
        <ele>889</ele>
        <time>2019-10-19T13:56:31Z</time>
      </trkpt>
      <trkpt lat="42.94367" lon="0.88121">
        <ele>885</ele>
        <time>2019-10-19T13:56:38Z</time>
      </trkpt>
      <trkpt lat="42.9437" lon="0.88134">
        <ele>885</ele>
        <time>2019-10-19T13:56:45Z</time>
      </trkpt>
      <trkpt lat="42.9437" lon="0.88148">
        <ele>883</ele>
        <time>2019-10-19T13:56:53Z</time>
      </trkpt>
      <trkpt lat="42.94371" lon="0.88161">
        <ele>884</ele>
        <time>2019-10-19T13:57:00Z</time>
      </trkpt>
      <trkpt lat="42.94366" lon="0.88173">
        <ele>885</ele>
        <time>2019-10-19T13:57:07Z</time>
      </trkpt>
      <trkpt lat="42.94361" lon="0.88183">
        <ele>886</ele>
        <time>2019-10-19T13:57:14Z</time>
      </trkpt>
      <trkpt lat="42.94357" lon="0.88195">
        <ele>885</ele>
        <time>2019-10-19T13:57:22Z</time>
      </trkpt>
      <trkpt lat="42.94352" lon="0.88207">
        <ele>886</ele>
        <time>2019-10-19T13:57:30Z</time>
      </trkpt>
      <trkpt lat="42.94348" lon="0.8822">
        <ele>885</ele>
        <time>2019-10-19T13:57:39Z</time>
      </trkpt>
      <trkpt lat="42.94348" lon="0.88233">
        <ele>885</ele>
        <time>2019-10-19T13:57:46Z</time>
      </trkpt>
      <trkpt lat="42.94347" lon="0.88245">
        <ele>885</ele>
        <time>2019-10-19T13:57:54Z</time>
      </trkpt>
      <trkpt lat="42.94345" lon="0.88258">
        <ele>886</ele>
        <time>2019-10-19T13:58:03Z</time>
      </trkpt>
      <trkpt lat="42.94341" lon="0.88271">
        <ele>885</ele>
        <time>2019-10-19T13:58:11Z</time>
      </trkpt>
      <trkpt lat="42.94336" lon="0.88282">
        <ele>886</ele>
        <time>2019-10-19T13:58:25Z</time>
      </trkpt>
      <trkpt lat="42.9433" lon="0.88293">
        <ele>884</ele>
        <time>2019-10-19T13:58:33Z</time>
      </trkpt>
      <trkpt lat="42.94322" lon="0.88302">
        <ele>886</ele>
        <time>2019-10-19T13:58:41Z</time>
      </trkpt>
      <trkpt lat="42.94313" lon="0.88307">
        <ele>883</ele>
        <time>2019-10-19T13:58:49Z</time>
      </trkpt>
      <trkpt lat="42.94304" lon="0.88313">
        <ele>879</ele>
        <time>2019-10-19T13:58:58Z</time>
      </trkpt>
      <trkpt lat="42.94297" lon="0.88322">
        <ele>875</ele>
        <time>2019-10-19T13:59:08Z</time>
      </trkpt>
      <trkpt lat="42.943" lon="0.88335">
        <ele>872</ele>
        <time>2019-10-19T13:59:18Z</time>
      </trkpt>
      <trkpt lat="42.94301" lon="0.88348">
        <ele>871</ele>
        <time>2019-10-19T13:59:27Z</time>
      </trkpt>
      <trkpt lat="42.94302" lon="0.88361">
        <ele>873</ele>
        <time>2019-10-19T13:59:32Z</time>
      </trkpt>
      <trkpt lat="42.94306" lon="0.88373">
        <ele>873</ele>
        <time>2019-10-19T13:59:39Z</time>
      </trkpt>
      <trkpt lat="42.9431" lon="0.88385">
        <ele>871</ele>
        <time>2019-10-19T13:59:46Z</time>
      </trkpt>
      <trkpt lat="42.94315" lon="0.88398">
        <ele>870</ele>
        <time>2019-10-19T13:59:53Z</time>
      </trkpt>
      <trkpt lat="42.9432" lon="0.88409">
        <ele>870</ele>
        <time>2019-10-19T14:00:01Z</time>
      </trkpt>
      <trkpt lat="42.94325" lon="0.88419">
        <ele>872</ele>
        <time>2019-10-19T14:00:08Z</time>
      </trkpt>
      <trkpt lat="42.9433" lon="0.88431">
        <ele>873</ele>
        <time>2019-10-19T14:00:14Z</time>
      </trkpt>
      <trkpt lat="42.94334" lon="0.88443">
        <ele>871</ele>
        <time>2019-10-19T14:00:22Z</time>
      </trkpt>
      <trkpt lat="42.94335" lon="0.88455">
        <ele>868</ele>
        <time>2019-10-19T14:00:28Z</time>
      </trkpt>
      <trkpt lat="42.94335" lon="0.88469">
        <ele>868</ele>
        <time>2019-10-19T14:00:37Z</time>
      </trkpt>
      <trkpt lat="42.94336" lon="0.88482">
        <ele>867</ele>
        <time>2019-10-19T14:00:45Z</time>
      </trkpt>
      <trkpt lat="42.94335" lon="0.88495">
        <ele>867</ele>
        <time>2019-10-19T14:00:54Z</time>
      </trkpt>
      <trkpt lat="42.94344" lon="0.88498">
        <ele>865</ele>
        <time>2019-10-19T14:02:16Z</time>
      </trkpt>
      <trkpt lat="42.94353" lon="0.88503">
        <ele>863</ele>
        <time>2019-10-19T14:02:24Z</time>
      </trkpt>
      <trkpt lat="42.94358" lon="0.88514">
        <ele>863</ele>
        <time>2019-10-19T14:02:32Z</time>
      </trkpt>
      <trkpt lat="42.94363" lon="0.88525">
        <ele>863</ele>
        <time>2019-10-19T14:02:38Z</time>
      </trkpt>
      <trkpt lat="42.94369" lon="0.88535">
        <ele>863</ele>
        <time>2019-10-19T14:02:48Z</time>
      </trkpt>
      <trkpt lat="42.94376" lon="0.88542">
        <ele>863</ele>
        <time>2019-10-19T14:02:57Z</time>
      </trkpt>
      <trkpt lat="42.94383" lon="0.8855">
        <ele>862</ele>
        <time>2019-10-19T14:03:05Z</time>
      </trkpt>
      <trkpt lat="42.9439" lon="0.8856">
        <ele>860</ele>
        <time>2019-10-19T14:03:14Z</time>
      </trkpt>
      <trkpt lat="42.94397" lon="0.88568">
        <ele>858</ele>
        <time>2019-10-19T14:03:22Z</time>
      </trkpt>
      <trkpt lat="42.94401" lon="0.8858">
        <ele>859</ele>
        <time>2019-10-19T14:03:31Z</time>
      </trkpt>
      <trkpt lat="42.94408" lon="0.88591">
        <ele>859</ele>
        <time>2019-10-19T14:03:39Z</time>
      </trkpt>
      <trkpt lat="42.94415" lon="0.88599">
        <ele>859</ele>
        <time>2019-10-19T14:03:47Z</time>
      </trkpt>
      <trkpt lat="42.94418" lon="0.8861">
        <ele>859</ele>
        <time>2019-10-19T14:03:56Z</time>
      </trkpt>
      <trkpt lat="42.94421" lon="0.88623">
        <ele>857</ele>
        <time>2019-10-19T14:04:05Z</time>
      </trkpt>
      <trkpt lat="42.94421" lon="0.88637">
        <ele>856</ele>
        <time>2019-10-19T14:04:13Z</time>
      </trkpt>
      <trkpt lat="42.94423" lon="0.88651">
        <ele>856</ele>
        <time>2019-10-19T14:04:20Z</time>
      </trkpt>
      <trkpt lat="42.94431" lon="0.88657">
        <ele>852</ele>
        <time>2019-10-19T14:04:28Z</time>
      </trkpt>
      <trkpt lat="42.94437" lon="0.88667">
        <ele>854</ele>
        <time>2019-10-19T14:04:34Z</time>
      </trkpt>
      <trkpt lat="42.94443" lon="0.88676">
        <ele>854</ele>
        <time>2019-10-19T14:04:42Z</time>
      </trkpt>
      <trkpt lat="42.9445" lon="0.88684">
        <ele>859</ele>
        <time>2019-10-19T14:04:50Z</time>
      </trkpt>
      <trkpt lat="42.94458" lon="0.88693">
        <ele>858</ele>
        <time>2019-10-19T14:04:59Z</time>
      </trkpt>
      <trkpt lat="42.94465" lon="0.88701">
        <ele>859</ele>
        <time>2019-10-19T14:05:07Z</time>
      </trkpt>
      <trkpt lat="42.94472" lon="0.8871">
        <ele>861</ele>
        <time>2019-10-19T14:05:14Z</time>
      </trkpt>
      <trkpt lat="42.94479" lon="0.88718">
        <ele>863</ele>
        <time>2019-10-19T14:05:22Z</time>
      </trkpt>
      <trkpt lat="42.94485" lon="0.88728">
        <ele>864</ele>
        <time>2019-10-19T14:05:31Z</time>
      </trkpt>
      <trkpt lat="42.94493" lon="0.88736">
        <ele>864</ele>
        <time>2019-10-19T14:05:39Z</time>
      </trkpt>
      <trkpt lat="42.945" lon="0.88745">
        <ele>866</ele>
        <time>2019-10-19T14:05:49Z</time>
      </trkpt>
      <trkpt lat="42.9451" lon="0.88751">
        <ele>868</ele>
        <time>2019-10-19T14:05:57Z</time>
      </trkpt>
      <trkpt lat="42.94518" lon="0.88757">
        <ele>871</ele>
        <time>2019-10-19T14:06:06Z</time>
      </trkpt>
      <trkpt lat="42.94525" lon="0.88766">
        <ele>872</ele>
        <time>2019-10-19T14:06:14Z</time>
      </trkpt>
      <trkpt lat="42.94533" lon="0.88774">
        <ele>874</ele>
        <time>2019-10-19T14:06:22Z</time>
      </trkpt>
      <trkpt lat="42.9454" lon="0.88786">
        <ele>871</ele>
        <time>2019-10-19T14:06:28Z</time>
      </trkpt>
      <trkpt lat="42.94544" lon="0.88797">
        <ele>872</ele>
        <time>2019-10-19T14:06:35Z</time>
      </trkpt>
      <trkpt lat="42.94547" lon="0.8881">
        <ele>872</ele>
        <time>2019-10-19T14:06:43Z</time>
      </trkpt>
      <trkpt lat="42.9455" lon="0.88822">
        <ele>871</ele>
        <time>2019-10-19T14:06:52Z</time>
      </trkpt>
      <trkpt lat="42.94548" lon="0.88834">
        <ele>876</ele>
        <time>2019-10-19T14:07:01Z</time>
      </trkpt>
      <trkpt lat="42.94543" lon="0.88846">
        <ele>880</ele>
        <time>2019-10-19T14:07:10Z</time>
      </trkpt>
      <trkpt lat="42.94538" lon="0.88857">
        <ele>881</ele>
        <time>2019-10-19T14:07:17Z</time>
      </trkpt>
      <trkpt lat="42.94535" lon="0.88869">
        <ele>881</ele>
        <time>2019-10-19T14:07:24Z</time>
      </trkpt>
      <trkpt lat="42.94531" lon="0.88881">
        <ele>883</ele>
        <time>2019-10-19T14:07:32Z</time>
      </trkpt>
      <trkpt lat="42.94524" lon="0.8889">
        <ele>882</ele>
        <time>2019-10-19T14:07:39Z</time>
      </trkpt>
      <trkpt lat="42.9452" lon="0.88903">
        <ele>881</ele>
        <time>2019-10-19T14:07:52Z</time>
      </trkpt>
      <trkpt lat="42.94512" lon="0.88911">
        <ele>883</ele>
        <time>2019-10-19T14:08:01Z</time>
      </trkpt>
      <trkpt lat="42.94502" lon="0.88914">
        <ele>885</ele>
        <time>2019-10-19T14:09:03Z</time>
      </trkpt>
      <trkpt lat="42.94503" lon="0.88927">
        <ele>879</ele>
        <time>2019-10-19T14:09:34Z</time>
      </trkpt>
      <trkpt lat="42.94493" lon="0.88926">
        <ele>882</ele>
        <time>2019-10-19T14:09:44Z</time>
      </trkpt>
      <trkpt lat="42.94484" lon="0.88934">
        <ele>879</ele>
        <time>2019-10-19T14:09:52Z</time>
      </trkpt>
      <trkpt lat="42.94475" lon="0.88939">
        <ele>878</ele>
        <time>2019-10-19T14:10:02Z</time>
      </trkpt>
      <trkpt lat="42.94466" lon="0.88945">
        <ele>878</ele>
        <time>2019-10-19T14:10:10Z</time>
      </trkpt>
      <trkpt lat="42.94458" lon="0.8895">
        <ele>880</ele>
        <time>2019-10-19T14:10:18Z</time>
      </trkpt>
      <trkpt lat="42.9445" lon="0.88959">
        <ele>877</ele>
        <time>2019-10-19T14:10:26Z</time>
      </trkpt>
      <trkpt lat="42.94442" lon="0.88966">
        <ele>876</ele>
        <time>2019-10-19T14:10:33Z</time>
      </trkpt>
      <trkpt lat="42.94433" lon="0.88972">
        <ele>877</ele>
        <time>2019-10-19T14:10:40Z</time>
      </trkpt>
      <trkpt lat="42.94426" lon="0.8898">
        <ele>878</ele>
        <time>2019-10-19T14:10:47Z</time>
      </trkpt>
      <trkpt lat="42.94416" lon="0.88985">
        <ele>879</ele>
        <time>2019-10-19T14:10:54Z</time>
      </trkpt>
      <trkpt lat="42.94409" lon="0.88993">
        <ele>879</ele>
        <time>2019-10-19T14:11:01Z</time>
      </trkpt>
      <trkpt lat="42.94401" lon="0.89">
        <ele>879</ele>
        <time>2019-10-19T14:11:09Z</time>
      </trkpt>
      <trkpt lat="42.94391" lon="0.89005">
        <ele>882</ele>
        <time>2019-10-19T14:11:17Z</time>
      </trkpt>
      <trkpt lat="42.94384" lon="0.89015">
        <ele>883</ele>
        <time>2019-10-19T14:11:25Z</time>
      </trkpt>
      <trkpt lat="42.94377" lon="0.89023">
        <ele>881</ele>
        <time>2019-10-19T14:11:31Z</time>
      </trkpt>
      <trkpt lat="42.94369" lon="0.89029">
        <ele>882</ele>
        <time>2019-10-19T14:11:38Z</time>
      </trkpt>
      <trkpt lat="42.94362" lon="0.89037">
        <ele>881</ele>
        <time>2019-10-19T14:11:45Z</time>
      </trkpt>
      <trkpt lat="42.94352" lon="0.89042">
        <ele>882</ele>
        <time>2019-10-19T14:11:53Z</time>
      </trkpt>
      <trkpt lat="42.94346" lon="0.8905">
        <ele>879</ele>
        <time>2019-10-19T14:11:59Z</time>
      </trkpt>
      <trkpt lat="42.94337" lon="0.89055">
        <ele>880</ele>
        <time>2019-10-19T14:12:05Z</time>
      </trkpt>
      <trkpt lat="42.94327" lon="0.89059">
        <ele>880</ele>
        <time>2019-10-19T14:12:12Z</time>
      </trkpt>
      <trkpt lat="42.94321" lon="0.8907">
        <ele>878</ele>
        <time>2019-10-19T14:12:18Z</time>
      </trkpt>
      <trkpt lat="42.94316" lon="0.8908">
        <ele>876</ele>
        <time>2019-10-19T14:12:25Z</time>
      </trkpt>
      <trkpt lat="42.9431" lon="0.89089">
        <ele>876</ele>
        <time>2019-10-19T14:12:32Z</time>
      </trkpt>
      <trkpt lat="42.94302" lon="0.89097">
        <ele>875</ele>
        <time>2019-10-19T14:12:40Z</time>
      </trkpt>
      <trkpt lat="42.94294" lon="0.89105">
        <ele>876</ele>
        <time>2019-10-19T14:12:47Z</time>
      </trkpt>
      <trkpt lat="42.94289" lon="0.89116">
        <ele>872</ele>
        <time>2019-10-19T14:12:54Z</time>
      </trkpt>
      <trkpt lat="42.94281" lon="0.89123">
        <ele>871</ele>
        <time>2019-10-19T14:13:02Z</time>
      </trkpt>
      <trkpt lat="42.94271" lon="0.89128">
        <ele>875</ele>
        <time>2019-10-19T14:13:10Z</time>
      </trkpt>
      <trkpt lat="42.94262" lon="0.89133">
        <ele>875</ele>
        <time>2019-10-19T14:13:16Z</time>
      </trkpt>
      <trkpt lat="42.94254" lon="0.8914">
        <ele>876</ele>
        <time>2019-10-19T14:13:24Z</time>
      </trkpt>
      <trkpt lat="42.94244" lon="0.8914">
        <ele>878</ele>
        <time>2019-10-19T14:13:29Z</time>
      </trkpt>
      <trkpt lat="42.94237" lon="0.89149">
        <ele>876</ele>
        <time>2019-10-19T14:13:36Z</time>
      </trkpt>
      <trkpt lat="42.94228" lon="0.89153">
        <ele>877</ele>
        <time>2019-10-19T14:13:42Z</time>
      </trkpt>
      <trkpt lat="42.94221" lon="0.89162">
        <ele>876</ele>
        <time>2019-10-19T14:13:50Z</time>
      </trkpt>
      <trkpt lat="42.94213" lon="0.89165">
        <ele>877</ele>
        <time>2019-10-19T14:13:58Z</time>
      </trkpt>
      <trkpt lat="42.94204" lon="0.8917">
        <ele>875</ele>
        <time>2019-10-19T14:14:04Z</time>
      </trkpt>
      <trkpt lat="42.94194" lon="0.89169">
        <ele>876</ele>
        <time>2019-10-19T14:14:09Z</time>
      </trkpt>
      <trkpt lat="42.94184" lon="0.89168">
        <ele>880</ele>
        <time>2019-10-19T14:14:16Z</time>
      </trkpt>
      <trkpt lat="42.94175" lon="0.89169">
        <ele>882</ele>
        <time>2019-10-19T14:14:21Z</time>
      </trkpt>
      <trkpt lat="42.94166" lon="0.89173">
        <ele>882</ele>
        <time>2019-10-19T14:14:27Z</time>
      </trkpt>
      <trkpt lat="42.94156" lon="0.89177">
        <ele>881</ele>
        <time>2019-10-19T14:14:33Z</time>
      </trkpt>
      <trkpt lat="42.94148" lon="0.89181">
        <ele>881</ele>
        <time>2019-10-19T14:14:39Z</time>
      </trkpt>
      <trkpt lat="42.94138" lon="0.89179">
        <ele>883</ele>
        <time>2019-10-19T14:14:46Z</time>
      </trkpt>
      <trkpt lat="42.94131" lon="0.89186">
        <ele>884</ele>
        <time>2019-10-19T14:14:52Z</time>
      </trkpt>
      <trkpt lat="42.94121" lon="0.89192">
        <ele>882</ele>
        <time>2019-10-19T14:15:00Z</time>
      </trkpt>
      <trkpt lat="42.94112" lon="0.89195">
        <ele>879</ele>
        <time>2019-10-19T14:15:06Z</time>
      </trkpt>
      <trkpt lat="42.94103" lon="0.89197">
        <ele>882</ele>
        <time>2019-10-19T14:15:16Z</time>
      </trkpt>
      <trkpt lat="42.94094" lon="0.89196">
        <ele>889</ele>
        <time>2019-10-19T14:15:23Z</time>
      </trkpt>
      <trkpt lat="42.94086" lon="0.89204">
        <ele>886</ele>
        <time>2019-10-19T14:15:32Z</time>
      </trkpt>
      <trkpt lat="42.94074" lon="0.89201">
        <ele>889</ele>
        <time>2019-10-19T14:15:35Z</time>
      </trkpt>
      <trkpt lat="42.94063" lon="0.89201">
        <ele>891</ele>
        <time>2019-10-19T14:15:43Z</time>
      </trkpt>
      <trkpt lat="42.94059" lon="0.89212">
        <ele>894</ele>
        <time>2019-10-19T14:15:56Z</time>
      </trkpt>
      <trkpt lat="42.94048" lon="0.89216">
        <ele>888</ele>
        <time>2019-10-19T14:16:01Z</time>
      </trkpt>
      <trkpt lat="42.94038" lon="0.89217">
        <ele>885</ele>
        <time>2019-10-19T14:16:06Z</time>
      </trkpt>
      <trkpt lat="42.94027" lon="0.89215">
        <ele>886</ele>
        <time>2019-10-19T14:16:13Z</time>
      </trkpt>
      <trkpt lat="42.94018" lon="0.89218">
        <ele>886</ele>
        <time>2019-10-19T14:16:20Z</time>
      </trkpt>
      <trkpt lat="42.94009" lon="0.89212">
        <ele>887</ele>
        <time>2019-10-19T14:16:26Z</time>
      </trkpt>
      <trkpt lat="42.94" lon="0.8922">
        <ele>889</ele>
        <time>2019-10-19T14:16:34Z</time>
      </trkpt>
      <trkpt lat="42.93991" lon="0.89225">
        <ele>892</ele>
        <time>2019-10-19T14:16:41Z</time>
      </trkpt>
      <trkpt lat="42.93982" lon="0.89227">
        <ele>898</ele>
        <time>2019-10-19T14:16:47Z</time>
      </trkpt>
      <trkpt lat="42.93972" lon="0.89232">
        <ele>903</ele>
        <time>2019-10-19T14:16:54Z</time>
      </trkpt>
      <trkpt lat="42.93965" lon="0.89239">
        <ele>904</ele>
        <time>2019-10-19T14:17:01Z</time>
      </trkpt>
      <trkpt lat="42.93957" lon="0.89245">
        <ele>904</ele>
        <time>2019-10-19T14:17:09Z</time>
      </trkpt>
      <trkpt lat="42.93951" lon="0.89255">
        <ele>903</ele>
        <time>2019-10-19T14:17:15Z</time>
      </trkpt>
      <trkpt lat="42.93947" lon="0.89266">
        <ele>902</ele>
        <time>2019-10-19T14:17:21Z</time>
      </trkpt>
      <trkpt lat="42.93942" lon="0.89275">
        <ele>905</ele>
        <time>2019-10-19T14:17:30Z</time>
      </trkpt>
      <trkpt lat="42.93936" lon="0.89285">
        <ele>905</ele>
        <time>2019-10-19T14:17:37Z</time>
      </trkpt>
      <trkpt lat="42.93934" lon="0.89297">
        <ele>906</ele>
        <time>2019-10-19T14:17:44Z</time>
      </trkpt>
      <trkpt lat="42.93933" lon="0.89311">
        <ele>906</ele>
        <time>2019-10-19T14:17:52Z</time>
      </trkpt>
      <trkpt lat="42.93931" lon="0.89324">
        <ele>907</ele>
        <time>2019-10-19T14:17:59Z</time>
      </trkpt>
      <trkpt lat="42.93932" lon="0.89338">
        <ele>907</ele>
        <time>2019-10-19T14:18:07Z</time>
      </trkpt>
      <trkpt lat="42.93931" lon="0.89353">
        <ele>905</ele>
        <time>2019-10-19T14:18:15Z</time>
      </trkpt>
      <trkpt lat="42.93934" lon="0.89365">
        <ele>905</ele>
        <time>2019-10-19T14:18:24Z</time>
      </trkpt>
      <trkpt lat="42.93937" lon="0.89378">
        <ele>903</ele>
        <time>2019-10-19T14:18:35Z</time>
      </trkpt>
      <trkpt lat="42.93934" lon="0.8939">
        <ele>908</ele>
        <time>2019-10-19T14:19:16Z</time>
      </trkpt>
      <trkpt lat="42.93934" lon="0.89403">
        <ele>907</ele>
        <time>2019-10-19T14:37:01Z</time>
      </trkpt>
      <trkpt lat="42.93936" lon="0.89417">
        <ele>907</ele>
        <time>2019-10-19T14:37:11Z</time>
      </trkpt>
      <trkpt lat="42.93938" lon="0.89431">
        <ele>903</ele>
        <time>2019-10-19T14:37:20Z</time>
      </trkpt>
      <trkpt lat="42.93935" lon="0.89443">
        <ele>903</ele>
        <time>2019-10-19T14:37:28Z</time>
      </trkpt>
      <trkpt lat="42.9394" lon="0.89455">
        <ele>908</ele>
        <time>2019-10-19T14:37:34Z</time>
      </trkpt>
      <trkpt lat="42.9394" lon="0.89468">
        <ele>908</ele>
        <time>2019-10-19T14:37:41Z</time>
      </trkpt>
      <trkpt lat="42.93939" lon="0.89481">
        <ele>906</ele>
        <time>2019-10-19T14:37:49Z</time>
      </trkpt>
      <trkpt lat="42.93943" lon="0.89494">
        <ele>902</ele>
        <time>2019-10-19T14:37:56Z</time>
      </trkpt>
      <trkpt lat="42.93942" lon="0.89507">
        <ele>903</ele>
        <time>2019-10-19T14:38:03Z</time>
      </trkpt>
      <trkpt lat="42.93942" lon="0.89521">
        <ele>903</ele>
        <time>2019-10-19T14:38:10Z</time>
      </trkpt>
      <trkpt lat="42.93948" lon="0.89532">
        <ele>897</ele>
        <time>2019-10-19T14:38:20Z</time>
      </trkpt>
      <trkpt lat="42.93946" lon="0.89544">
        <ele>897</ele>
        <time>2019-10-19T14:38:26Z</time>
      </trkpt>
      <trkpt lat="42.93948" lon="0.89558">
        <ele>895</ele>
        <time>2019-10-19T14:38:33Z</time>
      </trkpt>
      <trkpt lat="42.93945" lon="0.8957">
        <ele>896</ele>
        <time>2019-10-19T14:38:40Z</time>
      </trkpt>
      <trkpt lat="42.9394" lon="0.89583">
        <ele>896</ele>
        <time>2019-10-19T14:38:47Z</time>
      </trkpt>
      <trkpt lat="42.93938" lon="0.89595">
        <ele>893</ele>
        <time>2019-10-19T14:38:55Z</time>
      </trkpt>
      <trkpt lat="42.93933" lon="0.89607">
        <ele>893</ele>
        <time>2019-10-19T14:39:02Z</time>
      </trkpt>
      <trkpt lat="42.93927" lon="0.89618">
        <ele>891</ele>
        <time>2019-10-19T14:39:10Z</time>
      </trkpt>
      <trkpt lat="42.93922" lon="0.89629">
        <ele>889</ele>
        <time>2019-10-19T14:39:16Z</time>
      </trkpt>
      <trkpt lat="42.93918" lon="0.89641">
        <ele>883</ele>
        <time>2019-10-19T14:39:23Z</time>
      </trkpt>
      <trkpt lat="42.93917" lon="0.89653">
        <ele>885</ele>
        <time>2019-10-19T14:39:31Z</time>
      </trkpt>
      <trkpt lat="42.93917" lon="0.89666">
        <ele>881</ele>
        <time>2019-10-19T14:40:03Z</time>
      </trkpt>
      <trkpt lat="42.93923" lon="0.89677">
        <ele>877</ele>
        <time>2019-10-19T14:40:14Z</time>
      </trkpt>
      <trkpt lat="42.93924" lon="0.8969">
        <ele>878</ele>
        <time>2019-10-19T14:40:26Z</time>
      </trkpt>
      <trkpt lat="42.93932" lon="0.89696">
        <ele>873</ele>
        <time>2019-10-19T14:40:50Z</time>
      </trkpt>
      <trkpt lat="42.93942" lon="0.89699">
        <ele>874</ele>
        <time>2019-10-19T14:40:57Z</time>
      </trkpt>
      <trkpt lat="42.93952" lon="0.89706">
        <ele>875</ele>
        <time>2019-10-19T14:41:04Z</time>
      </trkpt>
      <trkpt lat="42.9396" lon="0.89714">
        <ele>874</ele>
        <time>2019-10-19T14:41:14Z</time>
      </trkpt>
      <trkpt lat="42.93967" lon="0.89721">
        <ele>873</ele>
        <time>2019-10-19T14:41:22Z</time>
      </trkpt>
      <trkpt lat="42.93975" lon="0.89728">
        <ele>869</ele>
        <time>2019-10-19T14:41:31Z</time>
      </trkpt>
      <trkpt lat="42.93983" lon="0.89735">
        <ele>870</ele>
        <time>2019-10-19T14:41:40Z</time>
      </trkpt>
      <trkpt lat="42.93992" lon="0.8974">
        <ele>871</ele>
        <time>2019-10-19T14:41:49Z</time>
      </trkpt>
      <trkpt lat="42.93999" lon="0.89747">
        <ele>866</ele>
        <time>2019-10-19T14:41:57Z</time>
      </trkpt>
      <trkpt lat="42.94007" lon="0.89755">
        <ele>861</ele>
        <time>2019-10-19T14:42:05Z</time>
      </trkpt>
      <trkpt lat="42.94014" lon="0.89764">
        <ele>859</ele>
        <time>2019-10-19T14:42:15Z</time>
      </trkpt>
      <trkpt lat="42.94022" lon="0.8977">
        <ele>857</ele>
        <time>2019-10-19T14:42:22Z</time>
      </trkpt>
      <trkpt lat="42.9403" lon="0.89779">
        <ele>856</ele>
        <time>2019-10-19T14:42:29Z</time>
      </trkpt>
      <trkpt lat="42.94036" lon="0.89788">
        <ele>856</ele>
        <time>2019-10-19T14:42:36Z</time>
      </trkpt>
      <trkpt lat="42.94042" lon="0.89797">
        <ele>855</ele>
        <time>2019-10-19T14:42:44Z</time>
      </trkpt>
      <trkpt lat="42.94052" lon="0.89801">
        <ele>853</ele>
        <time>2019-10-19T14:42:50Z</time>
      </trkpt>
      <trkpt lat="42.94056" lon="0.89813">
        <ele>852</ele>
        <time>2019-10-19T14:42:58Z</time>
      </trkpt>
      <trkpt lat="42.94063" lon="0.8982">
        <ele>853</ele>
        <time>2019-10-19T14:43:06Z</time>
      </trkpt>
      <trkpt lat="42.94071" lon="0.89829">
        <ele>856</ele>
        <time>2019-10-19T14:43:13Z</time>
      </trkpt>
      <trkpt lat="42.94081" lon="0.8983">
        <ele>851</ele>
        <time>2019-10-19T14:43:22Z</time>
      </trkpt>
      <trkpt lat="42.94089" lon="0.89835">
        <ele>848</ele>
        <time>2019-10-19T14:43:30Z</time>
      </trkpt>
      <trkpt lat="42.94096" lon="0.89843">
        <ele>844</ele>
        <time>2019-10-19T14:43:39Z</time>
      </trkpt>
      <trkpt lat="42.94106" lon="0.89843">
        <ele>845</ele>
        <time>2019-10-19T14:43:47Z</time>
      </trkpt>
      <trkpt lat="42.94104" lon="0.89855">
        <ele>846</ele>
        <time>2019-10-19T14:44:01Z</time>
      </trkpt>
      <trkpt lat="42.94095" lon="0.89857">
        <ele>846</ele>
        <time>2019-10-19T14:44:18Z</time>
      </trkpt>
      <trkpt lat="42.94085" lon="0.8986">
        <ele>847</ele>
        <time>2019-10-19T14:44:24Z</time>
      </trkpt>
      <trkpt lat="42.94078" lon="0.89869">
        <ele>847</ele>
        <time>2019-10-19T14:44:33Z</time>
      </trkpt>
      <trkpt lat="42.94073" lon="0.8988">
        <ele>845</ele>
        <time>2019-10-19T14:44:42Z</time>
      </trkpt>
      <trkpt lat="42.94069" lon="0.89891">
        <ele>844</ele>
        <time>2019-10-19T14:44:50Z</time>
      </trkpt>
      <trkpt lat="42.94063" lon="0.89902">
        <ele>846</ele>
        <time>2019-10-19T14:44:59Z</time>
      </trkpt>
      <trkpt lat="42.94054" lon="0.89903">
        <ele>850</ele>
        <time>2019-10-19T14:45:06Z</time>
      </trkpt>
      <trkpt lat="42.94046" lon="0.89911">
        <ele>850</ele>
        <time>2019-10-19T14:45:16Z</time>
      </trkpt>
      <trkpt lat="42.94038" lon="0.89919">
        <ele>851</ele>
        <time>2019-10-19T14:45:23Z</time>
      </trkpt>
      <trkpt lat="42.9403" lon="0.89925">
        <ele>853</ele>
        <time>2019-10-19T14:45:34Z</time>
      </trkpt>
      <trkpt lat="42.94022" lon="0.89933">
        <ele>852</ele>
        <time>2019-10-19T14:45:42Z</time>
      </trkpt>
      <trkpt lat="42.94014" lon="0.89941">
        <ele>857</ele>
        <time>2019-10-19T14:45:50Z</time>
      </trkpt>
      <trkpt lat="42.94011" lon="0.89953">
        <ele>860</ele>
        <time>2019-10-19T14:45:59Z</time>
      </trkpt>
      <trkpt lat="42.94004" lon="0.89962">
        <ele>858</ele>
        <time>2019-10-19T14:46:06Z</time>
      </trkpt>
      <trkpt lat="42.93995" lon="0.89961">
        <ele>857</ele>
        <time>2019-10-19T14:46:12Z</time>
      </trkpt>
      <trkpt lat="42.93992" lon="0.89973">
        <ele>864</ele>
        <time>2019-10-19T14:46:21Z</time>
      </trkpt>
      <trkpt lat="42.93985" lon="0.89982">
        <ele>866</ele>
        <time>2019-10-19T14:46:33Z</time>
      </trkpt>
      <trkpt lat="42.93976" lon="0.89987">
        <ele>865</ele>
        <time>2019-10-19T14:46:40Z</time>
      </trkpt>
      <trkpt lat="42.93976" lon="0.90005">
        <ele>866</ele>
        <time>2019-10-19T14:46:47Z</time>
      </trkpt>
      <trkpt lat="42.93968" lon="0.90012">
        <ele>867</ele>
        <time>2019-10-19T14:46:59Z</time>
      </trkpt>
      <trkpt lat="42.93961" lon="0.9002">
        <ele>866</ele>
        <time>2019-10-19T14:47:15Z</time>
      </trkpt>
      <trkpt lat="42.93958" lon="0.90033">
        <ele>864</ele>
        <time>2019-10-19T14:47:55Z</time>
      </trkpt>
      <trkpt lat="42.93957" lon="0.90047">
        <ele>870</ele>
        <time>2019-10-19T14:48:05Z</time>
      </trkpt>
      <trkpt lat="42.93957" lon="0.90062">
        <ele>872</ele>
        <time>2019-10-19T14:48:12Z</time>
      </trkpt>
      <trkpt lat="42.93957" lon="0.90075">
        <ele>871</ele>
        <time>2019-10-19T14:48:17Z</time>
      </trkpt>
      <trkpt lat="42.93949" lon="0.90082">
        <ele>870</ele>
        <time>2019-10-19T14:48:26Z</time>
      </trkpt>
      <trkpt lat="42.93947" lon="0.90095">
        <ele>871</ele>
        <time>2019-10-19T14:48:35Z</time>
      </trkpt>
      <trkpt lat="42.93949" lon="0.90111">
        <ele>873</ele>
        <time>2019-10-19T14:48:40Z</time>
      </trkpt>
      <trkpt lat="42.93947" lon="0.90125">
        <ele>879</ele>
        <time>2019-10-19T14:48:54Z</time>
      </trkpt>
      <trkpt lat="42.93944" lon="0.9014">
        <ele>876</ele>
        <time>2019-10-19T14:49:00Z</time>
      </trkpt>
      <trkpt lat="42.93944" lon="0.90153">
        <ele>872</ele>
        <time>2019-10-19T14:49:04Z</time>
      </trkpt>
      <trkpt lat="42.93943" lon="0.90166">
        <ele>870</ele>
        <time>2019-10-19T14:49:10Z</time>
      </trkpt>
      <trkpt lat="42.9394" lon="0.9018">
        <ele>876</ele>
        <time>2019-10-19T14:49:18Z</time>
      </trkpt>
      <trkpt lat="42.93935" lon="0.90192">
        <ele>878</ele>
        <time>2019-10-19T14:49:27Z</time>
      </trkpt>
      <trkpt lat="42.93934" lon="0.90205">
        <ele>877</ele>
        <time>2019-10-19T14:49:33Z</time>
      </trkpt>
      <trkpt lat="42.93931" lon="0.90218">
        <ele>877</ele>
        <time>2019-10-19T14:49:40Z</time>
      </trkpt>
      <trkpt lat="42.93929" lon="0.90231">
        <ele>878</ele>
        <time>2019-10-19T14:49:47Z</time>
      </trkpt>
      <trkpt lat="42.9393" lon="0.90244">
        <ele>874</ele>
        <time>2019-10-19T14:49:54Z</time>
      </trkpt>
      <trkpt lat="42.93928" lon="0.90256">
        <ele>871</ele>
        <time>2019-10-19T14:50:01Z</time>
      </trkpt>
      <trkpt lat="42.93929" lon="0.90269">
        <ele>871</ele>
        <time>2019-10-19T14:50:08Z</time>
      </trkpt>
      <trkpt lat="42.9393" lon="0.90282">
        <ele>871</ele>
        <time>2019-10-19T14:50:14Z</time>
      </trkpt>
      <trkpt lat="42.93932" lon="0.90295">
        <ele>872</ele>
        <time>2019-10-19T14:50:21Z</time>
      </trkpt>
      <trkpt lat="42.9393" lon="0.90309">
        <ele>874</ele>
        <time>2019-10-19T14:50:27Z</time>
      </trkpt>
      <trkpt lat="42.93929" lon="0.90323">
        <ele>874</ele>
        <time>2019-10-19T14:50:35Z</time>
      </trkpt>
      <trkpt lat="42.93924" lon="0.90336">
        <ele>875</ele>
        <time>2019-10-19T14:50:41Z</time>
      </trkpt>
      <trkpt lat="42.93922" lon="0.90348">
        <ele>878</ele>
        <time>2019-10-19T14:50:48Z</time>
      </trkpt>
      <trkpt lat="42.93921" lon="0.90361">
        <ele>877</ele>
        <time>2019-10-19T14:50:54Z</time>
      </trkpt>
      <trkpt lat="42.9392" lon="0.90375">
        <ele>875</ele>
        <time>2019-10-19T14:51:01Z</time>
      </trkpt>
      <trkpt lat="42.93919" lon="0.90388">
        <ele>874</ele>
        <time>2019-10-19T14:51:09Z</time>
      </trkpt>
      <trkpt lat="42.93922" lon="0.904">
        <ele>873</ele>
        <time>2019-10-19T14:51:16Z</time>
      </trkpt>
      <trkpt lat="42.93927" lon="0.90412">
        <ele>874</ele>
        <time>2019-10-19T14:51:24Z</time>
      </trkpt>
      <trkpt lat="42.93931" lon="0.90423">
        <ele>870</ele>
        <time>2019-10-19T14:51:31Z</time>
      </trkpt>
      <trkpt lat="42.93938" lon="0.90434">
        <ele>869</ele>
        <time>2019-10-19T14:51:39Z</time>
      </trkpt>
      <trkpt lat="42.93944" lon="0.90445">
        <ele>870</ele>
        <time>2019-10-19T14:51:47Z</time>
      </trkpt>
      <trkpt lat="42.93949" lon="0.90456">
        <ele>872</ele>
        <time>2019-10-19T14:51:54Z</time>
      </trkpt>
      <trkpt lat="42.93955" lon="0.90469">
        <ele>870</ele>
        <time>2019-10-19T14:52:00Z</time>
      </trkpt>
      <trkpt lat="42.9396" lon="0.90479">
        <ele>871</ele>
        <time>2019-10-19T14:52:07Z</time>
      </trkpt>
      <trkpt lat="42.93968" lon="0.90486">
        <ele>870</ele>
        <time>2019-10-19T14:52:15Z</time>
      </trkpt>
      <trkpt lat="42.93973" lon="0.90498">
        <ele>870</ele>
        <time>2019-10-19T14:52:22Z</time>
      </trkpt>
      <trkpt lat="42.93978" lon="0.9051">
        <ele>866</ele>
        <time>2019-10-19T14:52:29Z</time>
      </trkpt>
      <trkpt lat="42.93979" lon="0.90522">
        <ele>864</ele>
        <time>2019-10-19T14:52:35Z</time>
      </trkpt>
      <trkpt lat="42.93984" lon="0.90534">
        <ele>864</ele>
        <time>2019-10-19T14:52:42Z</time>
      </trkpt>
      <trkpt lat="42.93989" lon="0.90546">
        <ele>862</ele>
        <time>2019-10-19T14:52:47Z</time>
      </trkpt>
      <trkpt lat="42.93995" lon="0.90556">
        <ele>857</ele>
        <time>2019-10-19T14:52:54Z</time>
      </trkpt>
      <trkpt lat="42.94" lon="0.90568">
        <ele>856</ele>
        <time>2019-10-19T14:53:06Z</time>
      </trkpt>
      <trkpt lat="42.94008" lon="0.90573">
        <ele>853</ele>
        <time>2019-10-19T14:53:16Z</time>
      </trkpt>
      <trkpt lat="42.94013" lon="0.90584">
        <ele>855</ele>
        <time>2019-10-19T14:53:23Z</time>
      </trkpt>
      <trkpt lat="42.9402" lon="0.90591">
        <ele>857</ele>
        <time>2019-10-19T14:53:30Z</time>
      </trkpt>
      <trkpt lat="42.94022" lon="0.90605">
        <ele>857</ele>
        <time>2019-10-19T14:53:36Z</time>
      </trkpt>
      <trkpt lat="42.94018" lon="0.90617">
        <ele>860</ele>
        <time>2019-10-19T14:53:46Z</time>
      </trkpt>
      <trkpt lat="42.94011" lon="0.90628">
        <ele>859</ele>
        <time>2019-10-19T14:53:54Z</time>
      </trkpt>
      <trkpt lat="42.94007" lon="0.9064">
        <ele>858</ele>
        <time>2019-10-19T14:54:02Z</time>
      </trkpt>
      <trkpt lat="42.94002" lon="0.90652">
        <ele>855</ele>
        <time>2019-10-19T14:54:09Z</time>
      </trkpt>
      <trkpt lat="42.93997" lon="0.90663">
        <ele>859</ele>
        <time>2019-10-19T14:54:17Z</time>
      </trkpt>
      <trkpt lat="42.93993" lon="0.90674">
        <ele>862</ele>
        <time>2019-10-19T14:54:24Z</time>
      </trkpt>
      <trkpt lat="42.93986" lon="0.90685">
        <ele>863</ele>
        <time>2019-10-19T14:54:32Z</time>
      </trkpt>
      <trkpt lat="42.93982" lon="0.90696">
        <ele>864</ele>
        <time>2019-10-19T14:54:39Z</time>
      </trkpt>
      <trkpt lat="42.93976" lon="0.90708">
        <ele>866</ele>
        <time>2019-10-19T14:54:47Z</time>
      </trkpt>
      <trkpt lat="42.93971" lon="0.9072">
        <ele>864</ele>
        <time>2019-10-19T14:54:54Z</time>
      </trkpt>
      <trkpt lat="42.93964" lon="0.90729">
        <ele>865</ele>
        <time>2019-10-19T14:55:02Z</time>
      </trkpt>
      <trkpt lat="42.9396" lon="0.90741">
        <ele>867</ele>
        <time>2019-10-19T14:55:10Z</time>
      </trkpt>
      <trkpt lat="42.93955" lon="0.90752">
        <ele>868</ele>
        <time>2019-10-19T14:55:17Z</time>
      </trkpt>
      <trkpt lat="42.93951" lon="0.90763">
        <ele>869</ele>
        <time>2019-10-19T14:55:24Z</time>
      </trkpt>
      <trkpt lat="42.93945" lon="0.90772">
        <ele>868</ele>
        <time>2019-10-19T14:55:32Z</time>
      </trkpt>
      <trkpt lat="42.93938" lon="0.90781">
        <ele>866</ele>
        <time>2019-10-19T14:55:41Z</time>
      </trkpt>
      <trkpt lat="42.93934" lon="0.90794">
        <ele>865</ele>
        <time>2019-10-19T14:55:48Z</time>
      </trkpt>
      <trkpt lat="42.9393" lon="0.90805">
        <ele>863</ele>
        <time>2019-10-19T14:55:54Z</time>
      </trkpt>
      <trkpt lat="42.93924" lon="0.90814">
        <ele>862</ele>
        <time>2019-10-19T14:56:01Z</time>
      </trkpt>
      <trkpt lat="42.93916" lon="0.90823">
        <ele>863</ele>
        <time>2019-10-19T14:56:10Z</time>
      </trkpt>
      <trkpt lat="42.93911" lon="0.90835">
        <ele>862</ele>
        <time>2019-10-19T14:56:18Z</time>
      </trkpt>
      <trkpt lat="42.93908" lon="0.90849">
        <ele>862</ele>
        <time>2019-10-19T14:56:25Z</time>
      </trkpt>
      <trkpt lat="42.93903" lon="0.90859">
        <ele>861</ele>
        <time>2019-10-19T14:56:32Z</time>
      </trkpt>
      <trkpt lat="42.93896" lon="0.90868">
        <ele>862</ele>
        <time>2019-10-19T14:56:39Z</time>
      </trkpt>
      <trkpt lat="42.9389" lon="0.90879">
        <ele>860</ele>
        <time>2019-10-19T14:56:47Z</time>
      </trkpt>
      <trkpt lat="42.93883" lon="0.90887">
        <ele>858</ele>
        <time>2019-10-19T14:56:54Z</time>
      </trkpt>
      <trkpt lat="42.93877" lon="0.90898">
        <ele>858</ele>
        <time>2019-10-19T14:57:02Z</time>
      </trkpt>
      <trkpt lat="42.9387" lon="0.90908">
        <ele>855</ele>
        <time>2019-10-19T14:57:09Z</time>
      </trkpt>
      <trkpt lat="42.93862" lon="0.90916">
        <ele>853</ele>
        <time>2019-10-19T14:57:15Z</time>
      </trkpt>
      <trkpt lat="42.93855" lon="0.90924">
        <ele>853</ele>
        <time>2019-10-19T14:57:22Z</time>
      </trkpt>
      <trkpt lat="42.93847" lon="0.90934">
        <ele>855</ele>
        <time>2019-10-19T14:57:30Z</time>
      </trkpt>
      <trkpt lat="42.93838" lon="0.90938">
        <ele>852</ele>
        <time>2019-10-19T14:57:37Z</time>
      </trkpt>
      <trkpt lat="42.93835" lon="0.90958">
        <ele>857</ele>
        <time>2019-10-19T14:57:45Z</time>
      </trkpt>
      <trkpt lat="42.93833" lon="0.90971">
        <ele>858</ele>
        <time>2019-10-19T14:57:50Z</time>
      </trkpt>
      <trkpt lat="42.93826" lon="0.90979">
        <ele>859</ele>
        <time>2019-10-19T14:57:57Z</time>
      </trkpt>
      <trkpt lat="42.93818" lon="0.90988">
        <ele>858</ele>
        <time>2019-10-19T14:58:04Z</time>
      </trkpt>
      <trkpt lat="42.9381" lon="0.90995">
        <ele>861</ele>
        <time>2019-10-19T14:58:12Z</time>
      </trkpt>
      <trkpt lat="42.93801" lon="0.91002">
        <ele>858</ele>
        <time>2019-10-19T14:58:19Z</time>
      </trkpt>
      <trkpt lat="42.93795" lon="0.91011">
        <ele>857</ele>
        <time>2019-10-19T14:58:25Z</time>
      </trkpt>
      <trkpt lat="42.93787" lon="0.91019">
        <ele>859</ele>
        <time>2019-10-19T14:58:33Z</time>
      </trkpt>
      <trkpt lat="42.93781" lon="0.91029">
        <ele>857</ele>
        <time>2019-10-19T14:58:40Z</time>
      </trkpt>
      <trkpt lat="42.93771" lon="0.91033">
        <ele>857</ele>
        <time>2019-10-19T14:58:47Z</time>
      </trkpt>
      <trkpt lat="42.93764" lon="0.91041">
        <ele>857</ele>
        <time>2019-10-19T14:58:54Z</time>
      </trkpt>
      <trkpt lat="42.93755" lon="0.91046">
        <ele>856</ele>
        <time>2019-10-19T14:59:01Z</time>
      </trkpt>
      <trkpt lat="42.93747" lon="0.91051">
        <ele>854</ele>
        <time>2019-10-19T14:59:08Z</time>
      </trkpt>
      <trkpt lat="42.93744" lon="0.91063">
        <ele>858</ele>
        <time>2019-10-19T14:59:26Z</time>
      </trkpt>
      <trkpt lat="42.93749" lon="0.91075">
        <ele>858</ele>
        <time>2019-10-19T14:59:51Z</time>
      </trkpt>
      <trkpt lat="42.93754" lon="0.91086">
        <ele>858</ele>
        <time>2019-10-19T14:59:59Z</time>
      </trkpt>
      <trkpt lat="42.9375" lon="0.91099">
        <ele>863</ele>
        <time>2019-10-19T15:00:13Z</time>
      </trkpt>
      <trkpt lat="42.93747" lon="0.91111">
        <ele>864</ele>
        <time>2019-10-19T15:00:24Z</time>
      </trkpt>
      <trkpt lat="42.93749" lon="0.91124">
        <ele>868</ele>
        <time>2019-10-19T15:00:32Z</time>
      </trkpt>
      <trkpt lat="42.93746" lon="0.91137">
        <ele>870</ele>
        <time>2019-10-19T15:00:43Z</time>
      </trkpt>
      <trkpt lat="42.93743" lon="0.9115">
        <ele>869</ele>
        <time>2019-10-19T15:00:53Z</time>
      </trkpt>
      <trkpt lat="42.93739" lon="0.91162">
        <ele>867</ele>
        <time>2019-10-19T15:01:03Z</time>
      </trkpt>
      <trkpt lat="42.93734" lon="0.91173">
        <ele>869</ele>
        <time>2019-10-19T15:01:14Z</time>
      </trkpt>
      <trkpt lat="42.93724" lon="0.91176">
        <ele>873</ele>
        <time>2019-10-19T15:02:01Z</time>
      </trkpt>
    </trkseg>
  </trk>
</gpx>